Wetterdaten: Dienstag, 22.05.2018
Datum Zeit Temp. A. Pool Temp. Feuchte A. Luftdruck Regen Wind Richtung Richtung Sonnenschein ET UV Solar Taupunkt Windchill Windben Empfang
22.05.2018 00:00 14,5 C 18,3 C 76 % 1011,0 hPa 0,0 l/m 6,8 km/h (2 Bft) O-NO 67 0 min 0,000 mm 0,0 UV-I 0 W/m 10,3 C 14,3 C 11,3 km/h (2 Bft) 100,00 %
22.05.2018 00:02 14,5 C 18,3 C 75 % 1010,9 hPa 0,0 l/m 6,4 km/h (2 Bft) O-NO 62 0 min 0,000 mm 0,0 UV-I 0 W/m 10,1 C 14,5 C 9,7 km/h (2 Bft) 94,87 %
22.05.2018 00:03 14,4 C 18,3 C 76 % 1010,9 hPa 0,0 l/m 6,0 km/h (2 Bft) O-NO 69 0 min 0,000 mm 0,0 UV-I 0 W/m 10,2 C 14,4 C 8,0 km/h (2 Bft) 87,50 %
22.05.2018 00:04 14,3 C 18,3 C 76 % 1010,9 hPa 0,0 l/m 5,2 km/h (1 Bft) O 80 0 min 0,000 mm 0,0 UV-I 0 W/m 10,1 C 14,3 C 8,0 km/h (2 Bft) 93,10 %
22.05.2018 00:05 14,3 C 18,3 C 76 % 1010,9 hPa 0,0 l/m 5,1 km/h (1 Bft) O 86 0 min 0,000 mm 0,0 UV-I 0 W/m 10,1 C 14,3 C 6,4 km/h (2 Bft) 100,00 %
22.05.2018 00:06 14,2 C 18,3 C 77 % 1010,9 hPa 0,0 l/m 5,6 km/h (1 Bft) NO 50 0 min 0,000 mm 0,0 UV-I 0 W/m 10,2 C 14,2 C 6,4 km/h (2 Bft) 100,00 %
22.05.2018 00:07 14,0 C 18,3 C 77 % 1010,9 hPa 0,0 l/m 5,9 km/h (2 Bft) O-NO 66 0 min 0,000 mm 0,0 UV-I 0 W/m 10,0 C 14,0 C 8,0 km/h (2 Bft) 92,31 %
22.05.2018 00:08 13,9 C 18,3 C 77 % 1010,9 hPa 0,0 l/m 5,0 km/h (1 Bft) O-NO 62 0 min 0,000 mm 0,0 UV-I 0 W/m 9,9 C 13,9 C 6,4 km/h (2 Bft) 92,59 %
22.05.2018 00:09 13,8 C 18,3 C 78 % 1010,9 hPa 0,0 l/m 4,7 km/h (1 Bft) O-NO 68 0 min 0,000 mm 0,0 UV-I 0 W/m 10,0 C 13,8 C 6,4 km/h (2 Bft) 100,00 %
22.05.2018 00:10 13,8 C 18,3 C 78 % 1010,9 hPa 0,0 l/m 5,3 km/h (1 Bft) O 86 0 min 0,000 mm 0,0 UV-I 0 W/m 10,0 C 13,8 C 8,0 km/h (2 Bft) 91,67 %
22.05.2018 00:11 13,9 C 18,3 C 78 % 1010,9 hPa 0,0 l/m 4,4 km/h (1 Bft) O 82 0 min 0,000 mm 0,0 UV-I 0 W/m 10,1 C 13,9 C 6,4 km/h (2 Bft) 95,65 %
22.05.2018 00:12 13,9 C 18,3 C 78 % 1010,9 hPa 0,0 l/m 5,2 km/h (1 Bft) O 86 0 min 0,000 mm 0,0 UV-I 0 W/m 10,1 C 13,9 C 6,4 km/h (2 Bft) 91,67 %
22.05.2018 00:13 13,9 C 18,3 C 78 % 1010,9 hPa 0,0 l/m 5,3 km/h (1 Bft) O 86 0 min 0,000 mm 0,0 UV-I 0 W/m 10,1 C 13,9 C 6,4 km/h (2 Bft) 96,55 %
22.05.2018 00:14 14,0 C 18,3 C 78 % 1010,9 hPa 0,0 l/m 5,1 km/h (1 Bft) O 85 0 min 0,000 mm 0,0 UV-I 0 W/m 10,2 C 14,0 C 6,4 km/h (2 Bft) 96,30 %
22.05.2018 00:15 14,0 C 18,3 C 78 % 1010,9 hPa 0,0 l/m 5,6 km/h (1 Bft) O-NO 72 0 min 0,000 mm 0,0 UV-I 0 W/m 10,2 C 14,0 C 8,0 km/h (2 Bft) 90,91 %
22.05.2018 00:16 14,1 C 18,3 C 78 % 1010,9 hPa 0,0 l/m 5,3 km/h (1 Bft) O 82 0 min 0,000 mm 0,0 UV-I 0 W/m 10,3 C 14,1 C 6,4 km/h (2 Bft) 93,33 %
22.05.2018 00:17 14,1 C 18,3 C 78 % 1010,9 hPa 0,0 l/m 4,8 km/h (1 Bft) O 88 0 min 0,000 mm 0,0 UV-I 0 W/m 10,3 C 14,1 C 6,4 km/h (2 Bft) 91,30 %
22.05.2018 00:18 14,0 C 18,3 C 78 % 1010,9 hPa 0,0 l/m 5,4 km/h (1 Bft) O 87 0 min 0,000 mm 0,0 UV-I 0 W/m 10,2 C 14,0 C 6,4 km/h (2 Bft) 100,00 %
22.05.2018 00:19 14,0 C 18,3 C 78 % 1010,9 hPa 0,0 l/m 5,1 km/h (1 Bft) O-NO 74 0 min 0,000 mm 0,0 UV-I 0 W/m 10,2 C 14,0 C 6,4 km/h (2 Bft) 93,10 %
22.05.2018 00:20 14,0 C 18,3 C 78 % 1010,9 hPa 0,0 l/m 5,2 km/h (1 Bft) O 80 0 min 0,000 mm 0,0 UV-I 0 W/m 10,2 C 14,0 C 8,0 km/h (2 Bft) 95,83 %
22.05.2018 00:21 14,1 C 18,3 C 78 % 1010,9 hPa 0,0 l/m 5,3 km/h (1 Bft) O 90 0 min 0,000 mm 0,0 UV-I 0 W/m 10,3 C 14,1 C 6,4 km/h (2 Bft) 91,67 %
22.05.2018 00:22 14,1 C 18,3 C 78 % 1010,9 hPa 0,0 l/m 5,4 km/h (1 Bft) O-NO 75 0 min 0,000 mm 0,0 UV-I 0 W/m 10,3 C 14,1 C 9,7 km/h (2 Bft) 100,00 %
22.05.2018 00:23 14,1 C 18,3 C 78 % 1010,9 hPa 0,0 l/m 5,2 km/h (1 Bft) O-NO 78 0 min 0,000 mm 0,0 UV-I 0 W/m 10,3 C 14,1 C 8,0 km/h (2 Bft) 92,59 %
22.05.2018 00:24 14,1 C 18,3 C 78 % 1010,8 hPa 0,0 l/m 7,2 km/h (2 Bft) O 84 0 min 0,000 mm 0,0 UV-I 0 W/m 10,3 C 13,6 C 9,7 km/h (2 Bft) 95,12 %
22.05.2018 00:25 14,1 C 18,3 C 78 % 1010,8 hPa 0,0 l/m 7,0 km/h (2 Bft) O 90 0 min 0,000 mm 0,0 UV-I 0 W/m 10,3 C 13,7 C 11,3 km/h (2 Bft) 100,00 %
22.05.2018 00:26 14,1 C 18,3 C 77 % 1010,8 hPa 0,0 l/m 8,4 km/h (2 Bft) O-NO 70 0 min 0,000 mm 0,0 UV-I 0 W/m 10,1 C 12,9 C 12,9 km/h (3 Bft) 91,67 %
22.05.2018 00:27 14,1 C 18,3 C 77 % 1010,8 hPa 0,0 l/m 7,3 km/h (2 Bft) O-NO 78 0 min 0,000 mm 0,0 UV-I 0 W/m 10,1 C 13,6 C 11,3 km/h (2 Bft) 100,00 %
22.05.2018 00:28 14,1 C 18,3 C 77 % 1010,8 hPa 0,0 l/m 7,1 km/h (2 Bft) O 94 0 min 0,000 mm 0,0 UV-I 0 W/m 10,1 C 13,7 C 9,7 km/h (2 Bft) 84,62 %
22.05.2018 00:29 14,1 C 18,3 C 77 % 1010,8 hPa 0,0 l/m 6,4 km/h (2 Bft) O 88 0 min 0,000 mm 0,0 UV-I 0 W/m 10,1 C 14,1 C 9,7 km/h (2 Bft) 96,30 %
22.05.2018 00:30 14,1 C 18,3 C 78 % 1010,8 hPa 0,0 l/m 7,0 km/h (2 Bft) O 88 0 min 0,000 mm 0,0 UV-I 0 W/m 10,3 C 13,7 C 9,7 km/h (2 Bft) 92,31 %
22.05.2018 00:31 14,1 C 18,3 C 77 % 1010,7 hPa 0,0 l/m 8,5 km/h (2 Bft) O-NO 73 0 min 0,000 mm 0,0 UV-I 0 W/m 10,1 C 12,9 C 11,3 km/h (2 Bft) 100,00 %
22.05.2018 00:32 14,0 C 18,3 C 77 % 1010,8 hPa 0,0 l/m 6,5 km/h (2 Bft) O-NO 67 0 min 0,000 mm 0,0 UV-I 0 W/m 10,0 C 14,0 C 8,0 km/h (2 Bft) 92,31 %
22.05.2018 00:33 13,8 C 18,3 C 78 % 1010,8 hPa 0,0 l/m 6,6 km/h (2 Bft) O-NO 65 0 min 0,000 mm 0,0 UV-I 0 W/m 10,0 C 13,7 C 8,0 km/h (2 Bft) 96,30 %
22.05.2018 00:34 13,8 C 18,3 C 78 % 1010,7 hPa 0,0 l/m 5,9 km/h (2 Bft) O-NO 73 0 min 0,000 mm 0,0 UV-I 0 W/m 10,0 C 13,8 C 9,7 km/h (2 Bft) 95,65 %
22.05.2018 00:35 13,8 C 18,3 C 79 % 1010,8 hPa 0,0 l/m 6,1 km/h (2 Bft) O 86 0 min 0,000 mm 0,0 UV-I 0 W/m 10,2 C 13,8 C 9,7 km/h (2 Bft) 95,83 %
22.05.2018 00:36 13,8 C 18,3 C 79 % 1010,7 hPa 0,0 l/m 5,7 km/h (1 Bft) O-NO 72 0 min 0,000 mm 0,0 UV-I 0 W/m 10,2 C 13,8 C 6,4 km/h (2 Bft) 95,65 %
22.05.2018 00:37 13,8 C 18,3 C 79 % 1010,7 hPa 0,0 l/m 6,4 km/h (2 Bft) O-NO 69 0 min 0,000 mm 0,0 UV-I 0 W/m 10,2 C 13,8 C 8,0 km/h (2 Bft) 90,00 %
22.05.2018 00:38 13,8 C 18,3 C 79 % 1010,7 hPa 0,0 l/m 5,7 km/h (1 Bft) O-NO 74 0 min 0,000 mm 0,0 UV-I 0 W/m 10,2 C 13,8 C 8,0 km/h (2 Bft) 100,00 %
22.05.2018 00:39 13,8 C 18,3 C 79 % 1010,7 hPa 0,0 l/m 5,7 km/h (1 Bft) O 80 0 min 0,000 mm 0,0 UV-I 0 W/m 10,2 C 13,8 C 8,0 km/h (2 Bft) 95,83 %
22.05.2018 00:40 13,7 C 18,3 C 79 % 1010,7 hPa 0,0 l/m 7,0 km/h (2 Bft) O 92 0 min 0,000 mm 0,0 UV-I 0 W/m 10,1 C 13,3 C 9,7 km/h (2 Bft) 96,15 %
22.05.2018 00:41 13,7 C 18,3 C 79 % 1010,7 hPa 0,0 l/m 5,2 km/h (1 Bft) O-NO 78 0 min 0,000 mm 0,0 UV-I 0 W/m 10,1 C 13,7 C 9,7 km/h (2 Bft) 95,83 %
22.05.2018 00:42 13,7 C 18,3 C 79 % 1010,7 hPa 0,0 l/m 5,7 km/h (1 Bft) O 84 0 min 0,000 mm 0,0 UV-I 0 W/m 10,1 C 13,7 C 9,7 km/h (2 Bft) 100,00 %
22.05.2018 00:43 13,7 C 18,3 C 79 % 1010,7 hPa 0,0 l/m 6,0 km/h (2 Bft) O-NO 78 0 min 0,000 mm 0,0 UV-I 0 W/m 10,1 C 13,7 C 11,3 km/h (2 Bft) 96,30 %
22.05.2018 00:44 13,7 C 18,3 C 79 % 1010,7 hPa 0,0 l/m 5,5 km/h (1 Bft) O-NO 74 0 min 0,000 mm 0,0 UV-I 0 W/m 10,1 C 13,7 C 6,4 km/h (2 Bft) 95,02 %
22.05.2018 00:45 13,7 C 18,3 C 79 % 1010,7 hPa 0,0 l/m 8,9 km/h (2 Bft) O 88 0 min 0,000 mm 0,0 UV-I 0 W/m 10,1 C 12,2 C 11,3 km/h (2 Bft) 95,45 %
22.05.2018 00:46 13,7 C 18,3 C 79 % 1010,7 hPa 0,0 l/m 8,9 km/h (2 Bft) O-SO 104 0 min 0,000 mm 0,0 UV-I 0 W/m 10,1 C 12,2 C 12,9 km/h (3 Bft) 96,15 %
22.05.2018 00:47 13,7 C 18,3 C 79 % 1010,7 hPa 0,0 l/m 8,8 km/h (2 Bft) O-NO 74 0 min 0,000 mm 0,0 UV-I 0 W/m 10,1 C 12,3 C 11,3 km/h (2 Bft) 100,00 %
22.05.2018 00:48 13,7 C 18,3 C 79 % 1010,6 hPa 0,0 l/m 8,9 km/h (2 Bft) O 93 0 min 0,000 mm 0,0 UV-I 0 W/m 10,1 C 12,2 C 14,5 km/h (3 Bft) 100,00 %
22.05.2018 00:49 13,7 C 18,3 C 79 % 1010,6 hPa 0,0 l/m 10,3 km/h (2 Bft) O 98 0 min 0,000 mm 0,0 UV-I 0 W/m 10,1 C 11,5 C 14,5 km/h (3 Bft) 95,65 %
22.05.2018 00:50 13,8 C 18,3 C 79 % 1010,7 hPa 0,0 l/m 9,1 km/h (2 Bft) O-SO 104 0 min 0,000 mm 0,0 UV-I 0 W/m 10,2 C 12,2 C 12,9 km/h (3 Bft) 95,83 %
22.05.2018 00:51 13,9 C 18,3 C 79 % 1010,6 hPa 0,0 l/m 7,6 km/h (2 Bft) SO 131 0 min 0,000 mm 0,0 UV-I 0 W/m 10,3 C 13,2 C 11,3 km/h (2 Bft) 92,31 %
22.05.2018 00:52 14,1 C 18,3 C 78 % 1010,6 hPa 0,0 l/m 11,9 km/h (2 Bft) O-SO 103 0 min 0,000 mm 0,0 UV-I 0 W/m 10,3 C 11,3 C 16,1 km/h (3 Bft) 96,30 %
22.05.2018 00:53 14,2 C 18,3 C 78 % 1010,6 hPa 0,0 l/m 11,1 km/h (2 Bft) O 99 0 min 0,000 mm 0,0 UV-I 0 W/m 10,4 C 11,7 C 12,9 km/h (3 Bft) 100,00 %
22.05.2018 00:54 14,2 C 18,3 C 78 % 1010,6 hPa 0,0 l/m 11,7 km/h (2 Bft) O 94 0 min 0,000 mm 0,0 UV-I 0 W/m 10,4 C 11,5 C 14,5 km/h (3 Bft) 93,33 %
22.05.2018 00:55 14,3 C 18,3 C 78 % 1010,6 hPa 0,0 l/m 13,0 km/h (3 Bft) O-SO 105 0 min 0,000 mm 0,0 UV-I 0 W/m 10,5 C 11,1 C 16,1 km/h (3 Bft) 100,00 %
22.05.2018 00:56 14,3 C 18,3 C 77 % 1010,6 hPa 0,0 l/m 10,9 km/h (2 Bft) O-SO 115 0 min 0,000 mm 0,0 UV-I 0 W/m 10,3 C 11,9 C 12,9 km/h (3 Bft) 100,00 %
22.05.2018 00:57 14,3 C 18,3 C 77 % 1010,6 hPa 0,0 l/m 11,8 km/h (2 Bft) O 95 0 min 0,000 mm 0,0 UV-I 0 W/m 10,3 C 11,5 C 19,3 km/h (3 Bft) 95,65 %
22.05.2018 00:58 14,3 C 18,3 C 77 % 1010,5 hPa 0,0 l/m 10,9 km/h (2 Bft) O-SO 107 0 min 0,000 mm 0,0 UV-I 0 W/m 10,3 C 11,9 C 16,1 km/h (3 Bft) 100,00 %
22.05.2018 00:59 14,3 C 18,3 C 77 % 1010,6 hPa 0,0 l/m 11,6 km/h (2 Bft) O 97 0 min 0,000 mm 0,0 UV-I 0 W/m 10,3 C 11,6 C 16,1 km/h (3 Bft) 100,00 %
22.05.2018 01:00 14,3 C 18,3 C 77 % 1010,5 hPa 0,0 l/m 8,2 km/h (2 Bft) O 93 0 min 0,000 mm 0,0 UV-I 0 W/m 10,3 C 13,3 C 11,3 km/h (2 Bft) 100,00 %
22.05.2018 01:01 14,3 C 18,3 C 77 % 1010,5 hPa 0,0 l/m 10,8 km/h (2 Bft) O 99 0 min 0,025 mm 0,0 UV-I 0 W/m 10,3 C 12,0 C 12,9 km/h (3 Bft) 100,00 %
22.05.2018 01:02 14,2 C 18,3 C 77 % 1010,5 hPa 0,0 l/m 10,5 km/h (2 Bft) O 82 0 min 0,000 mm 0,0 UV-I 0 W/m 10,2 C 12,0 C 12,9 km/h (3 Bft) 100,00 %
22.05.2018 01:03 14,2 C 18,3 C 77 % 1010,5 hPa 0,0 l/m 11,9 km/h (2 Bft) O 86 0 min 0,000 mm 0,0 UV-I 0 W/m 10,2 C 11,4 C 14,5 km/h (3 Bft) 100,00 %
22.05.2018 01:04 14,2 C 18,3 C 78 % 1010,5 hPa 0,0 l/m 10,0 km/h (2 Bft) O-SO 122 0 min 0,000 mm 0,0 UV-I 0 W/m 10,4 C 12,2 C 12,9 km/h (3 Bft) 95,83 %
22.05.2018 01:05 14,2 C 18,3 C 78 % 1010,5 hPa 0,0 l/m 10,1 km/h (2 Bft) O 92 0 min 0,000 mm 0,0 UV-I 0 W/m 10,4 C 12,2 C 16,1 km/h (3 Bft) 95,65 %
22.05.2018 01:06 14,2 C 18,3 C 78 % 1010,5 hPa 0,0 l/m 9,7 km/h (2 Bft) O 90 0 min 0,000 mm 0,0 UV-I 0 W/m 10,4 C 12,4 C 16,1 km/h (3 Bft) 100,00 %
22.05.2018 01:07 14,2 C 18,3 C 78 % 1010,5 hPa 0,0 l/m 9,0 km/h (2 Bft) O 82 0 min 0,000 mm 0,0 UV-I 0 W/m 10,4 C 12,7 C 11,3 km/h (2 Bft) 100,00 %
22.05.2018 01:08 14,1 C 18,3 C 78 % 1010,6 hPa 0,0 l/m 10,5 km/h (2 Bft) O-NO 78 0 min 0,000 mm 0,0 UV-I 0 W/m 10,3 C 11,9 C 14,5 km/h (3 Bft) 100,00 %
22.05.2018 01:09 14,1 C 18,3 C 78 % 1010,5 hPa 0,0 l/m 9,7 km/h (2 Bft) O-SO 113 0 min 0,000 mm 0,0 UV-I 0 W/m 10,3 C 12,3 C 14,5 km/h (3 Bft) 100,00 %
22.05.2018 01:10 14,1 C 18,3 C 78 % 1010,5 hPa 0,0 l/m 10,1 km/h (2 Bft) O-SO 103 0 min 0,000 mm 0,0 UV-I 0 W/m 10,3 C 12,1 C 14,5 km/h (3 Bft) 100,00 %
22.05.2018 01:11 14,1 C 18,3 C 78 % 1010,5 hPa 0,0 l/m 9,7 km/h (2 Bft) O 90 0 min 0,000 mm 0,0 UV-I 0 W/m 10,3 C 12,3 C 16,1 km/h (3 Bft) 100,00 %
22.05.2018 01:12 14,1 C 18,3 C 78 % 1010,5 hPa 0,0 l/m 7,1 km/h (2 Bft) O-NO 75 0 min 0,000 mm 0,0 UV-I 0 W/m 10,3 C 13,7 C 11,3 km/h (2 Bft) 96,27 %
22.05.2018 01:13 14,1 C 18,3 C 78 % 1010,5 hPa 0,0 l/m 6,5 km/h (2 Bft) O 96 0 min 0,000 mm 0,0 UV-I 0 W/m 10,3 C 14,1 C 9,7 km/h (2 Bft) 100,00 %
22.05.2018 01:14 14,0 C 18,3 C 78 % 1010,6 hPa 0,0 l/m 7,4 km/h (2 Bft) O 87 0 min 0,000 mm 0,0 UV-I 0 W/m 10,2 C 13,4 C 12,9 km/h (3 Bft) 100,00 %
22.05.2018 01:15 13,9 C 18,3 C 78 % 1010,5 hPa 0,0 l/m 5,3 km/h (1 Bft) O-NO 76 0 min 0,000 mm 0,0 UV-I 0 W/m 10,1 C 13,9 C 11,3 km/h (2 Bft) 100,00 %
22.05.2018 01:16 13,8 C 18,3 C 79 % 1010,5 hPa 0,0 l/m 4,8 km/h (1 Bft) O-NO 69 0 min 0,000 mm 0,0 UV-I 0 W/m 10,2 C 13,8 C 8,0 km/h (2 Bft) 100,00 %
22.05.2018 01:17 13,8 C 18,3 C 79 % 1010,5 hPa 0,0 l/m 5,3 km/h (1 Bft) O-NO 67 0 min 0,000 mm 0,0 UV-I 0 W/m 10,2 C 13,8 C 8,0 km/h (2 Bft) 100,00 %
22.05.2018 01:18 13,7 C 18,3 C 79 % 1010,5 hPa 0,0 l/m 6,8 km/h (2 Bft) O 84 0 min 0,000 mm 0,0 UV-I 0 W/m 10,1 C 13,5 C 11,3 km/h (2 Bft) 100,00 %
22.05.2018 01:19 13,7 C 18,3 C 79 % 1010,5 hPa 0,0 l/m 5,2 km/h (1 Bft) O 91 0 min 0,000 mm 0,0 UV-I 0 W/m 10,1 C 13,7 C 8,0 km/h (2 Bft) 100,00 %
22.05.2018 01:20 13,6 C 18,3 C 80 % 1010,5 hPa 0,0 l/m 5,1 km/h (1 Bft) O 97 0 min 0,000 mm 0,0 UV-I 0 W/m 10,2 C 13,6 C 9,7 km/h (2 Bft) 86,96 %
22.05.2018 01:21 13,6 C 18,3 C 80 % 1010,5 hPa 0,0 l/m 6,2 km/h (2 Bft) O 94 0 min 0,000 mm 0,0 UV-I 0 W/m 10,2 C 13,6 C 11,3 km/h (2 Bft) 100,00 %
22.05.2018 01:22 13,6 C 18,3 C 80 % 1010,5 hPa 0,0 l/m 6,5 km/h (2 Bft) O 82 0 min 0,000 mm 0,0 UV-I 0 W/m 10,2 C 13,6 C 11,3 km/h (2 Bft) 100,00 %
22.05.2018 01:23 13,6 C 18,3 C 80 % 1010,5 hPa 0,0 l/m 5,0 km/h (1 Bft) O 82 0 min 0,000 mm 0,0 UV-I 0 W/m 10,2 C 13,6 C 6,4 km/h (2 Bft) 100,00 %
22.05.2018 01:24 13,6 C 18,3 C 80 % 1010,5 hPa 0,0 l/m 3,8 km/h (1 Bft) O 82 0 min 0,000 mm 0,0 UV-I 0 W/m 10,2 C 13,6 C 4,8 km/h (1 Bft) 96,15 %
22.05.2018 01:25 13,6 C 18,3 C 80 % 1010,5 hPa 0,0 l/m 4,4 km/h (1 Bft) O 88 0 min 0,000 mm 0,0 UV-I 0 W/m 10,2 C 13,6 C 6,4 km/h (2 Bft) 100,00 %
22.05.2018 01:26 13,6 C 18,3 C 80 % 1010,5 hPa 0,0 l/m 5,8 km/h (2 Bft) O 91 0 min 0,000 mm 0,0 UV-I 0 W/m 10,2 C 13,6 C 9,7 km/h (2 Bft) 100,00 %
22.05.2018 01:27 13,5 C 18,3 C 80 % 1010,5 hPa 0,0 l/m 5,5 km/h (1 Bft) O 92 0 min 0,000 mm 0,0 UV-I 0 W/m 10,1 C 13,5 C 6,4 km/h (2 Bft) 96,15 %
22.05.2018 01:28 13,5 C 18,3 C 80 % 1010,5 hPa 0,0 l/m 5,2 km/h (1 Bft) O 92 0 min 0,000 mm 0,0 UV-I 0 W/m 10,1 C 13,5 C 6,4 km/h (2 Bft) 100,00 %
22.05.2018 01:29 13,5 C 18,3 C 80 % 1010,5 hPa 0,0 l/m 6,3 km/h (2 Bft) O-NO 78 0 min 0,000 mm 0,0 UV-I 0 W/m 10,1 C 13,5 C 8,0 km/h (2 Bft) 100,00 %
22.05.2018 01:30 13,5 C 18,3 C 80 % 1010,5 hPa 0,0 l/m 3,9 km/h (1 Bft) O-NO 77 0 min 0,000 mm 0,0 UV-I 0 W/m 10,1 C 13,5 C 4,8 km/h (1 Bft) 100,00 %
22.05.2018 01:31 13,4 C 18,3 C 80 % 1010,5 hPa 0,0 l/m 4,3 km/h (1 Bft) O-NO 74 0 min 0,000 mm 0,0 UV-I 0 W/m 10,0 C 13,4 C 4,8 km/h (1 Bft) 96,55 %
22.05.2018 01:32 13,4 C 18,3 C 81 % 1010,5 hPa 0,0 l/m 4,7 km/h (1 Bft) O 88 0 min 0,000 mm 0,0 UV-I 0 W/m 10,2 C 13,4 C 6,4 km/h (2 Bft) 100,00 %
22.05.2018 01:33 13,4 C 18,3 C 81 % 1010,5 hPa 0,0 l/m 3,7 km/h (1 Bft) O 82 0 min 0,000 mm 0,0 UV-I 0 W/m 10,2 C 13,4 C 4,8 km/h (1 Bft) 100,00 %
22.05.2018 01:34 13,3 C 18,3 C 81 % 1010,5 hPa 0,0 l/m 3,9 km/h (1 Bft) O 80 0 min 0,000 mm 0,0 UV-I 0 W/m 10,1 C 13,3 C 6,4 km/h (2 Bft) 100,00 %
22.05.2018 01:35 13,3 C 18,3 C 81 % 1010,5 hPa 0,0 l/m 3,9 km/h (1 Bft) NO 51 0 min 0,000 mm 0,0 UV-I 0 W/m 10,1 C 13,3 C 4,8 km/h (1 Bft) 100,00 %
22.05.2018 01:36 13,3 C 18,3 C 81 % 1010,5 hPa 0,0 l/m 3,6 km/h (1 Bft) O-NO 59 0 min 0,000 mm 0,0 UV-I 0 W/m 10,1 C 13,3 C 4,8 km/h (1 Bft) 100,00 %
22.05.2018 01:37 13,3 C 18,3 C 81 % 1010,5 hPa 0,0 l/m 3,5 km/h (1 Bft) O 84 0 min 0,000 mm 0,0 UV-I 0 W/m 10,1 C 13,3 C 6,4 km/h (2 Bft) 100,00 %
22.05.2018 01:38 13,2 C 18,3 C 81 % 1010,4 hPa 0,0 l/m 4,1 km/h (1 Bft) O 94 0 min 0,000 mm 0,0 UV-I 0 W/m 10,0 C 13,2 C 6,4 km/h (2 Bft) 100,00 %
22.05.2018 01:39 13,2 C 18,3 C 81 % 1010,5 hPa 0,0 l/m 3,2 km/h (1 Bft) O 93 0 min 0,000 mm 0,0 UV-I 0 W/m 10,0 C 13,2 C 4,8 km/h (1 Bft) 100,00 %
22.05.2018 01:40 13,1 C 18,3 C 82 % 1010,5 hPa 0,0 l/m 3,6 km/h (1 Bft) O 91 0 min 0,000 mm 0,0 UV-I 0 W/m 10,1 C 13,1 C 6,4 km/h (2 Bft) 100,00 %
22.05.2018 01:41 13,1 C 18,3 C 82 % 1010,5 hPa 0,0 l/m 3,7 km/h (1 Bft) O 87 0 min 0,000 mm 0,0 UV-I 0 W/m 10,1 C 13,1 C 4,8 km/h (1 Bft) 100,00 %
22.05.2018 01:42 13,0 C 18,3 C 82 % 1010,5 hPa 0,0 l/m 4,1 km/h (1 Bft) O-NO 74 0 min 0,000 mm 0,0 UV-I 0 W/m 10,0 C 13,0 C 4,8 km/h (1 Bft) 96,15 %
22.05.2018 01:43 12,9 C 18,3 C 82 % 1010,5 hPa 0,0 l/m 3,5 km/h (1 Bft) O-NO 75 0 min 0,000 mm 0,0 UV-I 0 W/m 9,9 C 12,9 C 4,8 km/h (1 Bft) 100,00 %
22.05.2018 01:44 12,9 C 18,3 C 82 % 1010,5 hPa 0,0 l/m 2,8 km/h (1 Bft) O-NO 75 0 min 0,000 mm 0,0 UV-I 0 W/m 9,9 C 12,9 C 3,2 km/h (1 Bft) 100,00 %
22.05.2018 01:45 12,9 C 18,3 C 82 % 1010,4 hPa 0,0 l/m 3,0 km/h (1 Bft) O-NO 75 0 min 0,000 mm 0,0 UV-I 0 W/m 9,9 C 12,9 C 3,2 km/h (1 Bft) 100,00 %
22.05.2018 01:46 12,8 C 18,3 C 82 % 1010,4 hPa 0,0 l/m 2,7 km/h (1 Bft) O-NO 75 0 min 0,000 mm 0,0 UV-I 0 W/m 9,8 C 12,8 C 3,2 km/h (1 Bft) 100,00 %
22.05.2018 01:47 12,8 C 18,3 C 83 % 1010,4 hPa 0,0 l/m 3,6 km/h (1 Bft) O-NO 75 0 min 0,000 mm 0,0 UV-I 0 W/m 10,0 C 12,8 C 4,8 km/h (1 Bft) 100,00 %
22.05.2018 01:48 12,7 C 18,3 C 83 % 1010,4 hPa 0,0 l/m 3,2 km/h (1 Bft) O-NO 75 0 min 0,000 mm 0,0 UV-I 0 W/m 9,9 C 12,7 C 4,8 km/h (1 Bft) 91,30 %
22.05.2018 01:49 12,7 C 18,3 C 83 % 1010,4 hPa 0,0 l/m 3,9 km/h (1 Bft) O-NO 75 0 min 0,000 mm 0,0 UV-I 0 W/m 9,9 C 12,7 C 4,8 km/h (1 Bft) 100,00 %
22.05.2018 01:50 12,8 C 18,3 C 83 % 1010,4 hPa 0,0 l/m 3,5 km/h (1 Bft) O-NO 75 0 min 0,000 mm 0,0 UV-I 0 W/m 10,0 C 12,8 C 4,8 km/h (1 Bft) 100,00 %
22.05.2018 01:51 12,8 C 18,3 C 83 % 1010,4 hPa 0,0 l/m 4,0 km/h (1 Bft) O-NO 77 0 min 0,000 mm 0,0 UV-I 0 W/m 10,0 C 12,8 C 4,8 km/h (1 Bft) 100,00 %
22.05.2018 01:52 12,8 C 18,3 C 83 % 1010,3 hPa 0,0 l/m 4,5 km/h (1 Bft) O-NO 78 0 min 0,000 mm 0,0 UV-I 0 W/m 10,0 C 12,8 C 6,4 km/h (2 Bft) 95,65 %
22.05.2018 01:53 12,9 C 18,3 C 83 % 1010,4 hPa 0,0 l/m 4,1 km/h (1 Bft) O-NO 78 0 min 0,000 mm 0,0 UV-I 0 W/m 10,1 C 12,9 C 4,8 km/h (1 Bft) 100,00 %
22.05.2018 01:54 12,9 C 18,3 C 83 % 1010,4 hPa 0,0 l/m 3,2 km/h (1 Bft) O-NO 78 0 min 0,000 mm 0,0 UV-I 0 W/m 10,1 C 12,9 C 4,8 km/h (1 Bft) 100,00 %
22.05.2018 01:55 12,9 C 18,3 C 83 % 1010,4 hPa 0,0 l/m 4,0 km/h (1 Bft) O-NO 78 0 min 0,000 mm 0,0 UV-I 0 W/m 10,1 C 12,9 C 4,8 km/h (1 Bft) 100,00 %
22.05.2018 01:56 12,9 C 18,3 C 83 % 1010,4 hPa 0,0 l/m 3,2 km/h (1 Bft) O-NO 78 0 min 0,000 mm 0,0 UV-I 0 W/m 10,1 C 12,9 C 4,8 km/h (1 Bft) 100,00 %
22.05.2018 01:57 12,9 C 18,3 C 83 % 1010,4 hPa 0,0 l/m 3,0 km/h (1 Bft) O-NO 78 0 min 0,000 mm 0,0 UV-I 0 W/m 10,1 C 12,9 C 3,2 km/h (1 Bft) 100,00 %
22.05.2018 01:58 12,9 C 18,3 C 82 % 1010,3 hPa 0,0 l/m 3,0 km/h (1 Bft) O-NO 78 0 min 0,000 mm 0,0 UV-I 0 W/m 9,9 C 12,9 C 4,8 km/h (1 Bft) 91,30 %
22.05.2018 01:59 12,9 C 18,3 C 83 % 1010,3 hPa 0,0 l/m 3,7 km/h (1 Bft) O-NO 78 0 min 0,000 mm 0,0 UV-I 0 W/m 10,1 C 12,9 C 4,8 km/h (1 Bft) 100,00 %
22.05.2018 02:00 12,9 C 18,3 C 83 % 1010,3 hPa 0,0 l/m 2,7 km/h (1 Bft) O-NO 78 0 min 0,000 mm 0,0 UV-I 0 W/m 10,1 C 12,9 C 4,8 km/h (1 Bft) 100,00 %
22.05.2018 02:01 12,9 C 18,3 C 83 % 1010,3 hPa 0,0 l/m 3,2 km/h (1 Bft) O-NO 78 0 min 0,026 mm 0,0 UV-I 0 W/m 10,1 C 12,9 C 4,8 km/h (1 Bft) 100,00 %
22.05.2018 02:02 12,9 C 18,3 C 83 % 1010,3 hPa 0,0 l/m 3,4 km/h (1 Bft) O-NO 78 0 min 0,000 mm 0,0 UV-I 0 W/m 10,1 C 12,9 C 4,8 km/h (1 Bft) 100,00 %
22.05.2018 02:03 12,9 C 18,3 C 83 % 1010,3 hPa 0,0 l/m 3,4 km/h (1 Bft) O 90 0 min 0,000 mm 0,0 UV-I 0 W/m 10,1 C 12,9 C 4,8 km/h (1 Bft) 91,30 %
22.05.2018 02:04 12,9 C 18,3 C 83 % 1010,3 hPa 0,0 l/m 3,1 km/h (1 Bft) O 90 0 min 0,000 mm 0,0 UV-I 0 W/m 10,1 C 12,9 C 3,2 km/h (1 Bft) 92,59 %
22.05.2018 02:05 12,9 C 18,3 C 82 % 1010,3 hPa 0,0 l/m 3,2 km/h (1 Bft) O 90 0 min 0,000 mm 0,0 UV-I 0 W/m 9,9 C 12,9 C 4,8 km/h (1 Bft) 100,00 %
22.05.2018 02:06 12,9 C 18,3 C 83 % 1010,3 hPa 0,0 l/m 2,7 km/h (1 Bft) O 90 0 min 0,000 mm 0,0 UV-I 0 W/m 10,1 C 12,9 C 3,2 km/h (1 Bft) 100,00 %
22.05.2018 02:07 12,8 C 18,3 C 83 % 1010,3 hPa 0,0 l/m 3,0 km/h (1 Bft) O 90 0 min 0,000 mm 0,0 UV-I 0 W/m 10,0 C 12,8 C 3,2 km/h (1 Bft) 95,65 %
22.05.2018 02:08 12,8 C 18,3 C 83 % 1010,4 hPa 0,0 l/m 3,8 km/h (1 Bft) O 90 0 min 0,000 mm 0,0 UV-I 0 W/m 10,0 C 12,8 C 4,8 km/h (1 Bft) 96,97 %
22.05.2018 02:09 12,7 C 18,3 C 83 % 1010,4 hPa 0,0 l/m 4,0 km/h (1 Bft) O 90 0 min 0,000 mm 0,0 UV-I 0 W/m 9,9 C 12,7 C 4,8 km/h (1 Bft) 100,00 %
22.05.2018 02:10 12,7 C 18,3 C 83 % 1010,3 hPa 0,0 l/m 2,8 km/h (1 Bft) O 90 0 min 0,000 mm 0,0 UV-I 0 W/m 9,9 C 12,7 C 4,8 km/h (1 Bft) 95,83 %
22.05.2018 02:11 12,7 C 18,3 C 83 % 1010,3 hPa 0,0 l/m 2,7 km/h (1 Bft) O 90 0 min 0,000 mm 0,0 UV-I 0 W/m 9,9 C 12,7 C 3,2 km/h (1 Bft) 95,65 %
22.05.2018 02:12 12,7 C 18,3 C 83 % 1010,3 hPa 0,0 l/m 2,4 km/h (1 Bft) O 90 0 min 0,000 mm 0,0 UV-I 0 W/m 9,9 C 12,7 C 3,2 km/h (1 Bft) 91,67 %
22.05.2018 02:14 12,8 C 18,3 C 83 % 1010,3 hPa 0,0 l/m 2,7 km/h (1 Bft) O 90 0 min 0,000 mm 0,0 UV-I 0 W/m 10,0 C 12,8 C 3,2 km/h (1 Bft) 96,43 %
22.05.2018 02:15 12,8 C 18,3 C 83 % 1010,3 hPa 0,0 l/m 2,6 km/h (1 Bft) O 90 0 min 0,000 mm 0,0 UV-I 0 W/m 10,0 C 12,8 C 3,2 km/h (1 Bft) 96,15 %
22.05.2018 02:16 12,8 C 18,3 C 83 % 1010,2 hPa 0,0 l/m 3,4 km/h (1 Bft) O 90 0 min 0,000 mm 0,0 UV-I 0 W/m 10,0 C 12,8 C 4,8 km/h (1 Bft) 100,00 %
22.05.2018 02:17 12,7 C 18,3 C 83 % 1010,3 hPa 0,0 l/m 3,3 km/h (1 Bft) O 90 0 min 0,000 mm 0,0 UV-I 0 W/m 9,9 C 12,7 C 4,8 km/h (1 Bft) 96,15 %
22.05.2018 02:18 12,7 C 18,3 C 83 % 1010,3 hPa 0,0 l/m 3,4 km/h (1 Bft) O 90 0 min 0,000 mm 0,0 UV-I 0 W/m 9,9 C 12,7 C 4,8 km/h (1 Bft) 100,00 %
22.05.2018 02:19 12,7 C 18,3 C 83 % 1010,2 hPa 0,0 l/m 3,3 km/h (1 Bft) O 90 0 min 0,000 mm 0,0 UV-I 0 W/m 9,9 C 12,7 C 4,8 km/h (1 Bft) 95,83 %
22.05.2018 02:20 12,7 C 18,3 C 83 % 1010,2 hPa 0,0 l/m 3,7 km/h (1 Bft) O 90 0 min 0,000 mm 0,0 UV-I 0 W/m 9,9 C 12,7 C 4,8 km/h (1 Bft) 100,00 %
22.05.2018 02:21 12,7 C 18,3 C 83 % 1010,2 hPa 0,0 l/m 3,0 km/h (1 Bft) O 90 0 min 0,000 mm 0,0 UV-I 0 W/m 9,9 C 12,7 C 4,8 km/h (1 Bft) 95,83 %
22.05.2018 02:22 12,6 C 18,3 C 83 % 1010,2 hPa 0,0 l/m 3,2 km/h (1 Bft) O 90 0 min 0,000 mm 0,0 UV-I 0 W/m 9,8 C 12,6 C 3,2 km/h (1 Bft) 96,55 %
22.05.2018 02:23 12,6 C 18,3 C 84 % 1010,2 hPa 0,0 l/m 3,1 km/h (1 Bft) O 90 0 min 0,000 mm 0,0 UV-I 0 W/m 10,0 C 12,6 C 4,8 km/h (1 Bft) 100,00 %
22.05.2018 02:24 12,6 C 18,3 C 84 % 1010,2 hPa 0,0 l/m 3,6 km/h (1 Bft) O 89 0 min 0,000 mm 0,0 UV-I 0 W/m 10,0 C 12,6 C 4,8 km/h (1 Bft) 100,00 %
22.05.2018 02:25 12,6 C 18,3 C 84 % 1010,2 hPa 0,0 l/m 3,2 km/h (1 Bft) O 89 0 min 0,000 mm 0,0 UV-I 0 W/m 10,0 C 12,6 C 4,8 km/h (1 Bft) 95,83 %
22.05.2018 02:26 12,6 C 18,3 C 84 % 1010,2 hPa 0,0 l/m 3,0 km/h (1 Bft) O 89 0 min 0,000 mm 0,0 UV-I 0 W/m 10,0 C 12,6 C 4,8 km/h (1 Bft) 95,83 %
22.05.2018 02:27 12,5 C 18,3 C 84 % 1010,2 hPa 0,0 l/m 3,0 km/h (1 Bft) O 89 0 min 0,000 mm 0,0 UV-I 0 W/m 9,9 C 12,5 C 4,8 km/h (1 Bft) 100,00 %
22.05.2018 02:28 12,6 C 18,3 C 84 % 1010,2 hPa 0,0 l/m 2,7 km/h (1 Bft) O 89 0 min 0,000 mm 0,0 UV-I 0 W/m 10,0 C 12,6 C 4,8 km/h (1 Bft) 95,65 %
22.05.2018 02:29 12,6 C 18,3 C 84 % 1010,2 hPa 0,0 l/m 1,5 km/h (1 Bft) O 89 0 min 0,000 mm 0,0 UV-I 0 W/m 10,0 C 12,6 C 3,2 km/h (1 Bft) 100,00 %
22.05.2018 02:30 12,6 C 18,3 C 84 % 1010,2 hPa 0,0 l/m 1,4 km/h (1 Bft) O 89 0 min 0,000 mm 0,0 UV-I 0 W/m 10,0 C 12,6 C 3,2 km/h (1 Bft) 96,15 %
22.05.2018 02:31 12,5 C 18,3 C 84 % 1010,2 hPa 0,0 l/m 2,0 km/h (1 Bft) O 89 0 min 0,000 mm 0,0 UV-I 0 W/m 9,9 C 12,5 C 3,2 km/h (1 Bft) 96,30 %
22.05.2018 02:32 12,6 C 18,3 C 84 % 1010,2 hPa 0,0 l/m 1,8 km/h (1 Bft) O 89 0 min 0,000 mm 0,0 UV-I 0 W/m 10,0 C 12,6 C 3,2 km/h (1 Bft) 100,00 %
22.05.2018 02:33 12,6 C 18,3 C 84 % 1010,2 hPa 0,0 l/m 1,6 km/h (1 Bft) O 89 0 min 0,000 mm 0,0 UV-I 0 W/m 10,0 C 12,6 C 1,6 km/h (1 Bft) 100,00 %
22.05.2018 02:34 12,6 C 18,3 C 84 % 1010,2 hPa 0,0 l/m 1,8 km/h (1 Bft) O 89 0 min 0,000 mm 0,0 UV-I 0 W/m 10,0 C 12,6 C 3,2 km/h (1 Bft) 95,65 %
22.05.2018 02:35 12,6 C 18,3 C 84 % 1010,2 hPa 0,0 l/m 1,8 km/h (1 Bft) O 89 0 min 0,000 mm 0,0 UV-I 0 W/m 10,0 C 12,6 C 3,2 km/h (1 Bft) 96,30 %
22.05.2018 02:36 12,6 C 18,3 C 84 % 1010,2 hPa 0,0 l/m 1,7 km/h (1 Bft) O 89 0 min 0,000 mm 0,0 UV-I 0 W/m 10,0 C 12,6 C 3,2 km/h (1 Bft) 100,00 %
22.05.2018 02:37 12,4 C 18,3 C 84 % 1010,2 hPa 0,0 l/m 1,4 km/h (1 Bft) O 89 0 min 0,000 mm 0,0 UV-I 0 W/m 9,8 C 12,4 C 1,6 km/h (1 Bft) 95,83 %
22.05.2018 02:38 12,5 C 18,3 C 84 % 1010,2 hPa 0,0 l/m 1,7 km/h (1 Bft) O 89 0 min 0,000 mm 0,0 UV-I 0 W/m 9,9 C 12,5 C 3,2 km/h (1 Bft) 100,00 %
22.05.2018 02:39 12,4 C 18,3 C 84 % 1010,2 hPa 0,0 l/m 1,7 km/h (1 Bft) O 89 0 min 0,000 mm 0,0 UV-I 0 W/m 9,8 C 12,4 C 3,2 km/h (1 Bft) 95,83 %
22.05.2018 02:40 12,4 C 18,3 C 83 % 1010,2 hPa 0,0 l/m 0,7 km/h (0 Bft) O 89 0 min 0,000 mm 0,0 UV-I 0 W/m 9,6 C 12,4 C 1,6 km/h (1 Bft) 100,00 %
22.05.2018 02:41 12,2 C 18,3 C 84 % 1010,2 hPa 0,0 l/m 0,0 km/h (0 Bft) O 89 0 min 0,000 mm 0,0 UV-I 0 W/m 9,6 C 12,2 C 0,0 km/h (0 Bft) 96,30 %
22.05.2018 02:42 12,1 C 18,3 C 84 % 1010,2 hPa 0,0 l/m 0,0 km/h (0 Bft) O 89 0 min 0,000 mm 0,0 UV-I 0 W/m 9,5 C 12,1 C 0,0 km/h (0 Bft) 100,00 %
22.05.2018 02:43 12,1 C 18,3 C 84 % 1010,2 hPa 0,0 l/m 0,0 km/h (0 Bft) O 89 0 min 0,000 mm 0,0 UV-I 0 W/m 9,5 C 12,1 C 0,0 km/h (0 Bft) 100,00 %
22.05.2018 02:44 11,9 C 18,3 C 85 % 1010,2 hPa 0,0 l/m 0,0 km/h (0 Bft) O 89 0 min 0,000 mm 0,0 UV-I 0 W/m 9,5 C 11,9 C 0,0 km/h (0 Bft) 100,00 %
22.05.2018 02:45 11,9 C 18,3 C 85 % 1010,2 hPa 0,0 l/m 0,0 km/h (0 Bft) O 89 0 min 0,000 mm 0,0 UV-I 0 W/m 9,5 C 11,9 C 0,0 km/h (0 Bft) 100,00 %
22.05.2018 02:46 11,8 C 18,3 C 85 % 1010,2 hPa 0,0 l/m 0,0 km/h (0 Bft) O 89 0 min 0,000 mm 0,0 UV-I 0 W/m 9,4 C 11,8 C 0,0 km/h (0 Bft) 100,00 %
22.05.2018 02:47 11,8 C 18,3 C 86 % 1010,2 hPa 0,0 l/m 0,0 km/h (0 Bft) O 89 0 min 0,000 mm 0,0 UV-I 0 W/m 9,5 C 11,8 C 0,0 km/h (0 Bft) 100,00 %
22.05.2018 02:48 11,8 C 18,3 C 86 % 1010,2 hPa 0,0 l/m 0,0 km/h (0 Bft) O 89 0 min 0,000 mm 0,0 UV-I 0 W/m 9,5 C 11,8 C 0,0 km/h (0 Bft) 100,00 %
22.05.2018 02:49 11,8 C 18,3 C 86 % 1010,2 hPa 0,0 l/m 0,0 km/h (0 Bft) O 89 0 min 0,000 mm 0,0 UV-I 0 W/m 9,5 C 11,8 C 0,0 km/h (0 Bft) 100,00 %
22.05.2018 02:50 11,8 C 18,3 C 86 % 1010,2 hPa 0,0 l/m 0,5 km/h (0 Bft) O 89 0 min 0,000 mm 0,0 UV-I 0 W/m 9,5 C 11,8 C 3,2 km/h (1 Bft) 95,83 %
22.05.2018 02:51 11,8 C 18,3 C 87 % 1010,2 hPa 0,0 l/m 2,1 km/h (1 Bft) O 89 0 min 0,000 mm 0,0 UV-I 0 W/m 9,7 C 11,8 C 3,2 km/h (1 Bft) 100,00 %
22.05.2018 02:52 11,8 C 18,3 C 87 % 1010,2 hPa 0,0 l/m 2,2 km/h (1 Bft) O 89 0 min 0,000 mm 0,0 UV-I 0 W/m 9,7 C 11,8 C 3,2 km/h (1 Bft) 100,00 %
22.05.2018 02:53 11,9 C 18,3 C 87 % 1010,2 hPa 0,0 l/m 2,5 km/h (1 Bft) O 89 0 min 0,000 mm 0,0 UV-I 0 W/m 9,8 C 11,9 C 3,2 km/h (1 Bft) 100,00 %
22.05.2018 02:54 11,9 C 18,3 C 87 % 1010,2 hPa 0,0 l/m 2,5 km/h (1 Bft) O 89 0 min 0,000 mm 0,0 UV-I 0 W/m 9,8 C 11,9 C 3,2 km/h (1 Bft) 100,00 %
22.05.2018 02:55 11,9 C 18,3 C 86 % 1010,2 hPa 0,0 l/m 3,0 km/h (1 Bft) O 89 0 min 0,000 mm 0,0 UV-I 0 W/m 9,6 C 11,9 C 3,2 km/h (1 Bft) 100,00 %
22.05.2018 02:56 11,9 C 18,3 C 87 % 1010,2 hPa 0,0 l/m 3,5 km/h (1 Bft) O 89 0 min 0,000 mm 0,0 UV-I 0 W/m 9,8 C 11,9 C 4,8 km/h (1 Bft) 100,00 %
22.05.2018 02:57 11,9 C 18,3 C 86 % 1010,3 hPa 0,0 l/m 3,5 km/h (1 Bft) SW 236 0 min 0,000 mm 0,0 UV-I 0 W/m 9,6 C 11,9 C 4,8 km/h (1 Bft) 95,65 %
22.05.2018 02:58 11,9 C 18,3 C 86 % 1010,3 hPa 0,0 l/m 5,4 km/h (1 Bft) SW 236 0 min 0,000 mm 0,0 UV-I 0 W/m 9,6 C 11,9 C 6,4 km/h (2 Bft) 95,83 %
22.05.2018 02:59 11,8 C 18,3 C 86 % 1010,3 hPa 0,0 l/m 4,7 km/h (1 Bft) SW 236 0 min 0,000 mm 0,0 UV-I 0 W/m 9,5 C 11,8 C 4,8 km/h (1 Bft) 100,00 %
22.05.2018 03:00 11,7 C 18,3 C 86 % 1010,3 hPa 0,0 l/m 5,5 km/h (1 Bft) SW 235 0 min 0,000 mm 0,0 UV-I 0 W/m 9,4 C 11,7 C 6,4 km/h (2 Bft) 100,00 %
22.05.2018 03:01 11,6 C 18,3 C 87 % 1010,3 hPa 0,0 l/m 5,4 km/h (1 Bft) SW 235 0 min 0,000 mm 0,0 UV-I 0 W/m 9,5 C 11,6 C 6,4 km/h (2 Bft) 100,00 %
22.05.2018 03:02 11,6 C 18,3 C 87 % 1010,3 hPa 0,0 l/m 5,1 km/h (1 Bft) SW 235 0 min 0,000 mm 0,0 UV-I 0 W/m 9,5 C 11,6 C 6,4 km/h (2 Bft) 100,00 %
22.05.2018 03:03 11,6 C 18,3 C 87 % 1010,3 hPa 0,0 l/m 4,7 km/h (1 Bft) SW 235 0 min 0,000 mm 0,0 UV-I 0 W/m 9,5 C 11,6 C 6,4 km/h (2 Bft) 95,83 %
22.05.2018 03:04 11,5 C 18,3 C 87 % 1010,4 hPa 0,0 l/m 2,3 km/h (1 Bft) SW 235 0 min 0,000 mm 0,0 UV-I 0 W/m 9,4 C 11,5 C 3,2 km/h (1 Bft) 100,00 %
22.05.2018 03:05 11,3 C 18,3 C 86 % 1010,4 hPa 0,0 l/m 0,9 km/h (0 Bft) SW 235 0 min 0,000 mm 0,0 UV-I 0 W/m 9,0 C 11,3 C 1,6 km/h (1 Bft) 100,00 %
22.05.2018 03:06 11,1 C 18,3 C 86 % 1010,3 hPa 0,0 l/m 0,2 km/h (0 Bft) SW 235 0 min 0,000 mm 0,0 UV-I 0 W/m 8,8 C 11,1 C 1,6 km/h (1 Bft) 100,00 %
22.05.2018 03:07 10,9 C 18,3 C 88 % 1010,3 hPa 0,0 l/m 0,0 km/h (0 Bft) SW 235 0 min 0,000 mm 0,0 UV-I 0 W/m 9,0 C 10,9 C 0,0 km/h (0 Bft) 100,00 %
22.05.2018 03:08 10,9 C 18,3 C 88 % 1010,3 hPa 0,0 l/m 0,0 km/h (0 Bft) SW 235 0 min 0,000 mm 0,0 UV-I 0 W/m 9,0 C 10,9 C 0,0 km/h (0 Bft) 100,00 %
22.05.2018 03:09 10,9 C 18,3 C 88 % 1010,3 hPa 0,0 l/m 0,0 km/h (0 Bft) SW 235 0 min 0,000 mm 0,0 UV-I 0 W/m 9,0 C 10,9 C 0,0 km/h (0 Bft) 95,83 %
22.05.2018 03:10 10,9 C 18,3 C 89 % 1010,3 hPa 0,0 l/m 0,0 km/h (0 Bft) SW 235 0 min 0,000 mm 0,0 UV-I 0 W/m 9,2 C 10,9 C 0,0 km/h (0 Bft) 100,00 %
22.05.2018 03:11 11,1 C 18,3 C 89 % 1010,3 hPa 0,0 l/m 0,0 km/h (0 Bft) SW 235 0 min 0,000 mm 0,0 UV-I 0 W/m 9,4 C 11,1 C 0,0 km/h (0 Bft) 100,00 %
22.05.2018 03:12 11,2 C 18,3 C 89 % 1010,2 hPa 0,0 l/m 0,0 km/h (0 Bft) SW 235 0 min 0,000 mm 0,0 UV-I 0 W/m 9,5 C 11,2 C 0,0 km/h (0 Bft) 100,00 %
22.05.2018 03:13 11,2 C 18,3 C 88 % 1010,3 hPa 0,0 l/m 0,0 km/h (0 Bft) SW 235 0 min 0,000 mm 0,0 UV-I 0 W/m 9,3 C 11,2 C 0,0 km/h (0 Bft) 100,00 %
22.05.2018 03:14 11,3 C 18,3 C 88 % 1010,3 hPa 0,0 l/m 0,0 km/h (0 Bft) SW 235 0 min 0,000 mm 0,0 UV-I 0 W/m 9,4 C 11,3 C 0,0 km/h (0 Bft) 100,00 %
22.05.2018 03:15 11,4 C 18,3 C 88 % 1010,2 hPa 0,0 l/m 0,0 km/h (0 Bft) SW 235 0 min 0,000 mm 0,0 UV-I 0 W/m 9,5 C 11,4 C 0,0 km/h (0 Bft) 100,00 %
22.05.2018 03:16 11,4 C 18,3 C 88 % 1010,2 hPa 0,0 l/m 0,0 km/h (0 Bft) SW 235 0 min 0,000 mm 0,0 UV-I 0 W/m 9,5 C 11,4 C 0,0 km/h (0 Bft) 100,00 %
22.05.2018 03:17 11,5 C 18,3 C 87 % 1010,2 hPa 0,0 l/m 0,0 km/h (0 Bft) SW 235 0 min 0,000 mm 0,0 UV-I 0 W/m 9,4 C 11,5 C 0,0 km/h (0 Bft) 95,83 %
22.05.2018 03:19 11,5 C 18,3 C 87 % 1010,2 hPa 0,0 l/m 0,0 km/h (0 Bft) SW 235 0 min 0,000 mm 0,0 UV-I 0 W/m 9,4 C 11,5 C 0,0 km/h (0 Bft) 100,00 %
22.05.2018 03:20 11,4 C 18,3 C 86 % 1010,3 hPa 0,0 l/m 0,0 km/h (0 Bft) SW 235 0 min 0,000 mm 0,0 UV-I 0 W/m 9,1 C 11,4 C 0,0 km/h (0 Bft) 100,00 %
22.05.2018 03:21 11,3 C 18,3 C 87 % 1010,3 hPa 0,0 l/m 0,0 km/h (0 Bft) SW 235 0 min 0,000 mm 0,0 UV-I 0 W/m 9,2 C 11,3 C 0,0 km/h (0 Bft) 100,00 %
22.05.2018 03:25 10,6 C 18,3 C 88 % 1010,3 hPa 0,0 l/m 0,0 km/h (0 Bft) N 0 0 min 0,000 mm 0,0 UV-I 0 W/m 8,7 C 10,6 C 0,0 km/h (0 Bft) 100,00 %
22.05.2018 03:30 10,7 C 18,3 C 89 % 1010,3 hPa 0,0 l/m 0,0 km/h (0 Bft) N 0 0 min 0,000 mm 0,0 UV-I 0 W/m 9,0 C 10,7 C 0,0 km/h (0 Bft) 100,00 %
22.05.2018 03:35 10,8 C 18,3 C 89 % 1010,3 hPa 0,0 l/m 0,0 km/h (0 Bft) N 0 0 min 0,000 mm 0,0 UV-I 0 W/m 9,1 C 10,8 C 0,0 km/h (0 Bft) 100,00 %
22.05.2018 03:40 10,8 C 18,3 C 88 % 1010,3 hPa 0,0 l/m 0,0 km/h (0 Bft) N 0 0 min 0,000 mm 0,0 UV-I 0 W/m 8,9 C 10,8 C 0,0 km/h (0 Bft) 100,00 %
22.05.2018 03:45 10,4 C 18,3 C 89 % 1010,2 hPa 0,0 l/m 0,0 km/h (0 Bft) N 0 0 min 0,000 mm 0,0 UV-I 0 W/m 8,7 C 10,4 C 0,0 km/h (0 Bft) 100,00 %
22.05.2018 03:50 10,7 C 17,8 C 90 % 1010,2 hPa 0,0 l/m 1,6 km/h (1 Bft) SW 225 0 min 0,000 mm 0,0 UV-I 0 W/m 9,1 C 10,7 C 3,2 km/h (1 Bft) 98,25 %
22.05.2018 03:55 10,6 C 17,8 C 89 % 1010,2 hPa 0,0 l/m 1,6 km/h (1 Bft) SW 225 0 min 0,000 mm 0,0 UV-I 0 W/m 8,9 C 10,6 C 3,2 km/h (1 Bft) 100,00 %
22.05.2018 04:00 10,2 C 17,8 C 90 % 1010,2 hPa 0,0 l/m 0,0 km/h (0 Bft) N 0 0 min 0,000 mm 0,0 UV-I 0 W/m 8,6 C 10,2 C 0,0 km/h (0 Bft) 100,00 %
22.05.2018 04:05 10,6 C 17,8 C 90 % 1010,2 hPa 0,0 l/m 1,6 km/h (1 Bft) SW 225 0 min 0,000 mm 0,0 UV-I 0 W/m 9,0 C 10,6 C 4,8 km/h (1 Bft) 100,00 %
22.05.2018 04:10 10,4 C 17,8 C 89 % 1010,2 hPa 0,0 l/m 1,6 km/h (1 Bft) SW 225 0 min 0,000 mm 0,0 UV-I 0 W/m 8,7 C 10,4 C 3,2 km/h (1 Bft) 100,00 %
22.05.2018 04:15 10,2 C 17,8 C 90 % 1010,3 hPa 0,0 l/m 1,6 km/h (1 Bft) SW 225 0 min 0,000 mm 0,0 UV-I 0 W/m 8,6 C 10,2 C 3,2 km/h (1 Bft) 99,12 %
22.05.2018 04:20 10,4 C 17,8 C 90 % 1010,3 hPa 0,0 l/m 1,6 km/h (1 Bft) SW 225 0 min 0,000 mm 0,0 UV-I 0 W/m 8,8 C 10,4 C 3,2 km/h (1 Bft) 97,37 %
22.05.2018 04:25 10,1 C 17,8 C 90 % 1010,3 hPa 0,0 l/m 1,6 km/h (1 Bft) SW 225 0 min 0,000 mm 0,0 UV-I 0 W/m 8,5 C 10,1 C 3,2 km/h (1 Bft) 98,25 %
22.05.2018 04:30 10,0 C 17,8 C 90 % 1010,3 hPa 0,0 l/m 1,6 km/h (1 Bft) SW 225 0 min 0,000 mm 0,0 UV-I 0 W/m 8,4 C 10,0 C 3,2 km/h (1 Bft) 97,37 %
22.05.2018 04:35 10,1 C 17,8 C 90 % 1010,3 hPa 0,0 l/m 1,6 km/h (1 Bft) SW 225 0 min 0,000 mm 0,0 UV-I 0 W/m 8,5 C 10,1 C 3,2 km/h (1 Bft) 99,12 %
22.05.2018 04:40 9,9 C 17,8 C 90 % 1010,3 hPa 0,0 l/m 1,6 km/h (1 Bft) SW 225 0 min 0,000 mm 0,0 UV-I 0 W/m 8,3 C 9,9 C 3,2 km/h (1 Bft) 99,12 %
22.05.2018 04:45 10,1 C 17,8 C 91 % 1010,3 hPa 0,0 l/m 1,6 km/h (1 Bft) SW 225 0 min 0,000 mm 0,0 UV-I 0 W/m 8,7 C 10,1 C 4,8 km/h (1 Bft) 100,00 %
22.05.2018 04:50 10,2 C 17,8 C 91 % 1010,3 hPa 0,0 l/m 1,6 km/h (1 Bft) SW 225 0 min 0,000 mm 0,0 UV-I 0 W/m 8,8 C 10,2 C 4,8 km/h (1 Bft) 97,37 %
22.05.2018 04:55 9,9 C 17,8 C 91 % 1010,3 hPa 0,0 l/m 1,6 km/h (1 Bft) SW 225 0 min 0,000 mm 0,0 UV-I 0 W/m 8,5 C 9,9 C 3,2 km/h (1 Bft) 97,37 %
22.05.2018 05:00 10,1 C 17,8 C 91 % 1010,4 hPa 0,0 l/m 0,0 km/h (0 Bft) N 0 0 min 0,000 mm 0,0 UV-I 0 W/m 8,7 C 10,1 C 0,0 km/h (0 Bft) 97,37 %
22.05.2018 05:05 9,7 C 17,8 C 90 % 1010,3 hPa 0,0 l/m 0,0 km/h (0 Bft) N 0 0 min 0,000 mm 0,0 UV-I 5 W/m 8,1 C 9,7 C 0,0 km/h (0 Bft) 97,37 %
22.05.2018 05:10 9,7 C 17,8 C 91 % 1010,3 hPa 0,0 l/m 0,0 km/h (0 Bft) N 0 0 min 0,000 mm 0,0 UV-I 6 W/m 8,3 C 9,7 C 0,0 km/h (0 Bft) 98,25 %
22.05.2018 05:15 9,4 C 17,8 C 91 % 1010,4 hPa 0,0 l/m 0,0 km/h (0 Bft) SW 225 0 min 0,000 mm 0,0 UV-I 7 W/m 8,0 C 9,4 C 3,2 km/h (1 Bft) 96,49 %
22.05.2018 05:21 9,6 C 17,8 C 93 % 1010,5 hPa 0,0 l/m 0,1 km/h (0 Bft) SW 235 0 min 0,000 mm 0,0 UV-I 11 W/m 8,5 C 9,6 C 1,6 km/h (1 Bft) 100,00 %
22.05.2018 05:22 9,6 C 17,8 C 93 % 1010,4 hPa 0,0 l/m 1,6 km/h (1 Bft) SW 235 0 min 0,000 mm 0,0 UV-I 11 W/m 8,5 C 9,6 C 3,2 km/h (1 Bft) 96,15 %
22.05.2018 05:23 9,6 C 17,8 C 93 % 1010,5 hPa 0,0 l/m 1,5 km/h (1 Bft) SW 235 0 min 0,000 mm 0,0 UV-I 12 W/m 8,5 C 9,6 C 3,2 km/h (1 Bft) 100,00 %
22.05.2018 05:24 9,7 C 17,8 C 93 % 1010,5 hPa 0,0 l/m 0,1 km/h (0 Bft) SW 235 0 min 0,000 mm 0,0 UV-I 12 W/m 8,6 C 9,7 C 1,6 km/h (1 Bft) 96,15 %
22.05.2018 05:25 9,7 C 17,8 C 92 % 1010,5 hPa 0,0 l/m 0,5 km/h (0 Bft) SW 235 0 min 0,000 mm 0,0 UV-I 12 W/m 8,5 C 9,7 C 3,2 km/h (1 Bft) 100,00 %
22.05.2018 05:26 9,7 C 17,8 C 92 % 1010,5 hPa 0,0 l/m 2,0 km/h (1 Bft) SW 235 0 min 0,000 mm 0,0 UV-I 13 W/m 8,5 C 9,7 C 3,2 km/h (1 Bft) 100,00 %
22.05.2018 05:27 9,7 C 17,8 C 92 % 1010,5 hPa 0,0 l/m 2,2 km/h (1 Bft) SW 235 0 min 0,000 mm 0,0 UV-I 14 W/m 8,5 C 9,7 C 3,2 km/h (1 Bft) 100,00 %
22.05.2018 05:28 9,6 C 17,8 C 92 % 1010,5 hPa 0,0 l/m 1,9 km/h (1 Bft) SW 235 0 min 0,000 mm 0,0 UV-I 14 W/m 8,4 C 9,6 C 3,2 km/h (1 Bft) 100,00 %
22.05.2018 05:29 9,6 C 17,8 C 92 % 1010,5 hPa 0,0 l/m 2,0 km/h (1 Bft) SW 235 1 min 0,000 mm 0,0 UV-I 16 W/m 8,4 C 9,6 C 3,2 km/h (1 Bft) 100,00 %
22.05.2018 05:30 9,6 C 17,8 C 92 % 1010,5 hPa 0,0 l/m 1,9 km/h (1 Bft) SW 235 1 min 0,000 mm 0,0 UV-I 16 W/m 8,4 C 9,6 C 3,2 km/h (1 Bft) 91,30 %
22.05.2018 05:31 9,6 C 17,8 C 92 % 1010,5 hPa 0,0 l/m 1,8 km/h (1 Bft) SW 235 1 min 0,000 mm 0,0 UV-I 18 W/m 8,4 C 9,6 C 3,2 km/h (1 Bft) 100,00 %
22.05.2018 05:32 9,6 C 17,8 C 92 % 1010,5 hPa 0,0 l/m 0,6 km/h (0 Bft) SW 235 1 min 0,000 mm 0,0 UV-I 18 W/m 8,4 C 9,6 C 1,6 km/h (1 Bft) 100,00 %
22.05.2018 05:33 9,6 C 17,8 C 92 % 1010,5 hPa 0,0 l/m 2,1 km/h (1 Bft) SW 234 1 min 0,000 mm 0,0 UV-I 20 W/m 8,4 C 9,6 C 3,2 km/h (1 Bft) 100,00 %
22.05.2018 05:34 9,6 C 17,8 C 92 % 1010,5 hPa 0,0 l/m 1,5 km/h (1 Bft) SW 234 1 min 0,000 mm 0,0 UV-I 22 W/m 8,4 C 9,6 C 1,6 km/h (1 Bft) 100,00 %
22.05.2018 05:35 9,6 C 17,8 C 92 % 1010,5 hPa 0,0 l/m 1,0 km/h (0 Bft) SW 234 1 min 0,000 mm 0,0 UV-I 25 W/m 8,4 C 9,6 C 3,2 km/h (1 Bft) 100,00 %
22.05.2018 05:36 9,6 C 17,8 C 92 % 1010,5 hPa 0,0 l/m 0,1 km/h (0 Bft) SW 234 1 min 0,000 mm 0,0 UV-I 26 W/m 8,4 C 9,6 C 1,6 km/h (1 Bft) 98,82 %
22.05.2018 05:37 9,7 C 17,8 C 92 % 1010,4 hPa 0,0 l/m 0,0 km/h (0 Bft) SW 234 1 min 0,000 mm 0,0 UV-I 27 W/m 8,5 C 9,7 C 0,0 km/h (0 Bft) 97,37 %
22.05.2018 05:38 9,7 C 17,8 C 91 % 1010,4 hPa 0,0 l/m 0,5 km/h (0 Bft) SW 234 1 min 0,000 mm 0,0 UV-I 29 W/m 8,3 C 9,7 C 1,6 km/h (1 Bft) 100,00 %
22.05.2018 05:39 9,7 C 17,8 C 92 % 1010,4 hPa 0,0 l/m 0,3 km/h (0 Bft) SW 234 1 min 0,000 mm 0,0 UV-I 30 W/m 8,5 C 9,7 C 1,6 km/h (1 Bft) 100,00 %
22.05.2018 05:40 9,8 C 17,8 C 92 % 1010,4 hPa 0,0 l/m 0,0 km/h (0 Bft) SW 234 1 min 0,000 mm 0,0 UV-I 32 W/m 8,6 C 9,8 C 0,0 km/h (0 Bft) 96,00 %
22.05.2018 05:41 9,8 C 17,8 C 92 % 1010,4 hPa 0,0 l/m 0,0 km/h (0 Bft) SW 234 1 min 0,000 mm 0,0 UV-I 33 W/m 8,6 C 9,8 C 0,0 km/h (0 Bft) 100,00 %
22.05.2018 05:42 9,8 C 17,8 C 92 % 1010,4 hPa 0,0 l/m 0,0 km/h (0 Bft) SW 234 1 min 0,000 mm 0,0 UV-I 33 W/m 8,6 C 9,8 C 0,0 km/h (0 Bft) 100,00 %
22.05.2018 05:43 9,8 C 17,8 C 92 % 1010,4 hPa 0,0 l/m 0,0 km/h (0 Bft) SW 234 1 min 0,000 mm 0,0 UV-I 36 W/m 8,6 C 9,8 C 0,0 km/h (0 Bft) 100,00 %
22.05.2018 05:44 9,8 C 17,8 C 92 % 1010,4 hPa 0,0 l/m 0,0 km/h (0 Bft) SW 234 1 min 0,000 mm 0,0 UV-I 38 W/m 8,6 C 9,8 C 0,0 km/h (0 Bft) 100,00 %
22.05.2018 05:45 9,7 C 17,8 C 91 % 1010,4 hPa 0,0 l/m 0,0 km/h (0 Bft) SW 234 1 min 0,000 mm 0,0 UV-I 39 W/m 8,3 C 9,7 C 0,0 km/h (0 Bft) 95,65 %
22.05.2018 05:46 9,7 C 17,8 C 91 % 1010,4 hPa 0,0 l/m 0,0 km/h (0 Bft) SW 234 1 min 0,000 mm 0,0 UV-I 40 W/m 8,3 C 9,7 C 0,0 km/h (0 Bft) 100,00 %
22.05.2018 05:47 9,6 C 17,8 C 91 % 1010,4 hPa 0,0 l/m 0,0 km/h (0 Bft) SW 234 1 min 0,000 mm 0,0 UV-I 42 W/m 8,2 C 9,6 C 0,0 km/h (0 Bft) 96,15 %
22.05.2018 05:48 9,5 C 17,8 C 91 % 1010,4 hPa 0,0 l/m 0,5 km/h (0 Bft) SW 234 1 min 0,000 mm 0,0 UV-I 44 W/m 8,1 C 9,5 C 1,6 km/h (1 Bft) 100,00 %
22.05.2018 05:49 9,6 C 17,8 C 91 % 1010,4 hPa 0,0 l/m 1,0 km/h (0 Bft) SW 234 1 min 0,000 mm 0,0 UV-I 45 W/m 8,2 C 9,6 C 1,6 km/h (1 Bft) 100,00 %
22.05.2018 05:50 9,6 C 17,8 C 92 % 1010,4 hPa 0,0 l/m 0,2 km/h (0 Bft) SW 234 1 min 0,000 mm 0,0 UV-I 46 W/m 8,4 C 9,6 C 1,6 km/h (1 Bft) 100,00 %
22.05.2018 05:51 9,7 C 17,8 C 92 % 1010,4 hPa 0,0 l/m 0,0 km/h (0 Bft) SW 234 1 min 0,000 mm 0,0 UV-I 48 W/m 8,5 C 9,7 C 0,0 km/h (0 Bft) 100,00 %
22.05.2018 05:53 9,9 C 17,8 C 92 % 1010,4 hPa 0,0 l/m 0,0 km/h (0 Bft) SW 234 2 min 0,000 mm 0,0 UV-I 48 W/m 8,7 C 9,9 C 0,0 km/h (0 Bft) 98,00 %
22.05.2018 05:54 10,0 C 17,8 C 92 % 1010,4 hPa 0,0 l/m 0,0 km/h (0 Bft) SW 234 0 min 0,000 mm 0,0 UV-I 39 W/m 8,8 C 10,0 C 0,0 km/h (0 Bft) 100,00 %
22.05.2018 05:55 10,1 C 17,8 C 92 % 1010,5 hPa 0,0 l/m 0,0 km/h (0 Bft) SW 235 0 min 0,000 mm 0,0 UV-I 42 W/m 8,9 C 10,1 C 0,0 km/h (0 Bft) 100,00 %
22.05.2018 05:56 10,1 C 17,8 C 92 % 1010,5 hPa 0,0 l/m 0,0 km/h (0 Bft) SW 235 0 min 0,000 mm 0,0 UV-I 46 W/m 8,9 C 10,1 C 0,0 km/h (0 Bft) 100,00 %
22.05.2018 05:57 10,1 C 17,8 C 92 % 1010,5 hPa 0,0 l/m 0,0 km/h (0 Bft) SW 235 1 min 0,000 mm 0,0 UV-I 49 W/m 8,9 C 10,1 C 0,0 km/h (0 Bft) 100,00 %
22.05.2018 05:58 10,1 C 17,8 C 92 % 1010,5 hPa 0,0 l/m 0,0 km/h (0 Bft) SW 234 1 min 0,000 mm 0,0 UV-I 57 W/m 8,9 C 10,1 C 0,0 km/h (0 Bft) 100,00 %
22.05.2018 05:59 10,1 C 17,8 C 92 % 1010,5 hPa 0,0 l/m 0,0 km/h (0 Bft) SW 234 1 min 0,000 mm 0,0 UV-I 63 W/m 8,9 C 10,1 C 0,0 km/h (0 Bft) 100,00 %
22.05.2018 06:00 10,1 C 17,8 C 92 % 1010,5 hPa 0,0 l/m 0,0 km/h (0 Bft) SW 234 1 min 0,025 mm 0,0 UV-I 65 W/m 8,9 C 10,1 C 0,0 km/h (0 Bft) 100,00 %
22.05.2018 06:01 10,0 C 17,8 C 91 % 1010,6 hPa 0,0 l/m 0,0 km/h (0 Bft) SW 235 1 min 0,000 mm 0,0 UV-I 66 W/m 8,6 C 10,0 C 0,0 km/h (0 Bft) 100,00 %
22.05.2018 06:02 9,9 C 17,8 C 91 % 1010,6 hPa 0,0 l/m 0,0 km/h (0 Bft) SW 235 1 min 0,000 mm 0,0 UV-I 70 W/m 8,5 C 9,9 C 0,0 km/h (0 Bft) 100,00 %
22.05.2018 06:03 9,8 C 17,8 C 91 % 1010,6 hPa 0,0 l/m 0,0 km/h (0 Bft) SW 234 1 min 0,000 mm 0,0 UV-I 71 W/m 8,4 C 9,8 C 0,0 km/h (0 Bft) 100,00 %
22.05.2018 06:04 9,8 C 17,8 C 91 % 1010,7 hPa 0,0 l/m 0,0 km/h (0 Bft) SW 234 1 min 0,000 mm 0,0 UV-I 70 W/m 8,4 C 9,8 C 0,0 km/h (0 Bft) 100,00 %
22.05.2018 06:05 9,8 C 17,8 C 92 % 1010,7 hPa 0,0 l/m 0,0 km/h (0 Bft) SW 234 1 min 0,000 mm 0,0 UV-I 70 W/m 8,6 C 9,8 C 0,0 km/h (0 Bft) 95,83 %
22.05.2018 06:06 9,8 C 17,8 C 92 % 1010,8 hPa 0,0 l/m 0,0 km/h (0 Bft) SW 234 1 min 0,000 mm 0,0 UV-I 73 W/m 8,6 C 9,8 C 0,0 km/h (0 Bft) 100,00 %
22.05.2018 06:07 9,8 C 17,8 C 92 % 1010,8 hPa 0,0 l/m 0,0 km/h (0 Bft) SW 234 1 min 0,000 mm 0,0 UV-I 75 W/m 8,6 C 9,8 C 0,0 km/h (0 Bft) 100,00 %
22.05.2018 06:08 9,8 C 17,8 C 92 % 1010,8 hPa 0,0 l/m 0,0 km/h (0 Bft) SW 234 1 min 0,000 mm 0,0 UV-I 80 W/m 8,6 C 9,8 C 0,0 km/h (0 Bft) 100,00 %
22.05.2018 06:09 9,8 C 17,8 C 92 % 1010,8 hPa 0,0 l/m 0,0 km/h (0 Bft) SW 234 1 min 0,000 mm 0,0 UV-I 84 W/m 8,6 C 9,8 C 0,0 km/h (0 Bft) 100,00 %
22.05.2018 06:10 9,8 C 17,8 C 92 % 1010,8 hPa 0,0 l/m 0,0 km/h (0 Bft) SW 234 1 min 0,000 mm 0,0 UV-I 84 W/m 8,6 C 9,8 C 0,0 km/h (0 Bft) 100,00 %
22.05.2018 06:11 9,9 C 17,8 C 92 % 1010,8 hPa 0,0 l/m 0,0 km/h (0 Bft) SW 234 1 min 0,000 mm 0,0 UV-I 86 W/m 8,7 C 9,9 C 0,0 km/h (0 Bft) 100,00 %
22.05.2018 06:12 10,0 C 17,8 C 92 % 1010,8 hPa 0,0 l/m 0,0 km/h (0 Bft) SW 234 1 min 0,000 mm 0,0 UV-I 88 W/m 8,8 C 10,0 C 0,0 km/h (0 Bft) 95,65 %
22.05.2018 06:13 10,0 C 17,8 C 92 % 1010,8 hPa 0,0 l/m 0,0 km/h (0 Bft) SW 234 1 min 0,000 mm 0,0 UV-I 90 W/m 8,8 C 10,0 C 0,0 km/h (0 Bft) 100,00 %
22.05.2018 06:14 10,0 C 17,8 C 92 % 1010,9 hPa 0,0 l/m 0,0 km/h (0 Bft) SW 234 1 min 0,000 mm 0,0 UV-I 92 W/m 8,8 C 10,0 C 0,0 km/h (0 Bft) 100,00 %
22.05.2018 06:15 10,1 C 17,8 C 92 % 1010,8 hPa 0,0 l/m 0,0 km/h (0 Bft) SW 234 1 min 0,000 mm 0,0 UV-I 94 W/m 8,9 C 10,1 C 0,0 km/h (0 Bft) 100,00 %
22.05.2018 06:16 10,1 C 17,8 C 92 % 1010,8 hPa 0,0 l/m 0,0 km/h (0 Bft) SW 234 1 min 0,000 mm 0,0 UV-I 97 W/m 8,9 C 10,1 C 0,0 km/h (0 Bft) 100,00 %
22.05.2018 06:17 10,2 C 17,8 C 92 % 1010,9 hPa 0,0 l/m 0,0 km/h (0 Bft) SW 234 1 min 0,000 mm 0,0 UV-I 98 W/m 9,0 C 10,2 C 0,0 km/h (0 Bft) 96,30 %
22.05.2018 06:18 10,2 C 17,8 C 92 % 1010,9 hPa 0,0 l/m 0,0 km/h (0 Bft) SW 234 1 min 0,000 mm 0,0 UV-I 100 W/m 9,0 C 10,2 C 0,0 km/h (0 Bft) 100,00 %
22.05.2018 06:19 10,3 C 17,8 C 92 % 1010,9 hPa 0,0 l/m 0,0 km/h (0 Bft) SW 234 1 min 0,000 mm 0,0 UV-I 103 W/m 9,1 C 10,3 C 0,0 km/h (0 Bft) 100,00 %
22.05.2018 06:20 10,3 C 17,8 C 92 % 1010,9 hPa 0,0 l/m 0,0 km/h (0 Bft) SW 234 1 min 0,000 mm 0,0 UV-I 105 W/m 9,1 C 10,3 C 0,0 km/h (0 Bft) 100,00 %
22.05.2018 06:21 10,4 C 17,8 C 92 % 1010,9 hPa 0,0 l/m 0,0 km/h (0 Bft) SW 234 1 min 0,000 mm 0,0 UV-I 106 W/m 9,2 C 10,4 C 0,0 km/h (0 Bft) 100,00 %
22.05.2018 06:22 10,4 C 17,8 C 92 % 1010,9 hPa 0,0 l/m 0,0 km/h (0 Bft) SW 234 1 min 0,000 mm 0,0 UV-I 109 W/m 9,2 C 10,4 C 0,0 km/h (0 Bft) 100,00 %
22.05.2018 06:23 10,4 C 17,8 C 92 % 1010,9 hPa 0,0 l/m 0,0 km/h (0 Bft) SW 234 1 min 0,000 mm 0,0 UV-I 111 W/m 9,2 C 10,4 C 0,0 km/h (0 Bft) 100,00 %
22.05.2018 06:24 10,5 C 17,8 C 92 % 1010,9 hPa 0,0 l/m 0,0 km/h (0 Bft) SW 234 1 min 0,000 mm 0,0 UV-I 113 W/m 9,3 C 10,5 C 0,0 km/h (0 Bft) 95,83 %
22.05.2018 06:25 10,4 C 17,8 C 92 % 1010,9 hPa 0,0 l/m 0,0 km/h (0 Bft) SW 234 1 min 0,000 mm 0,0 UV-I 115 W/m 9,2 C 10,4 C 0,0 km/h (0 Bft) 100,00 %
22.05.2018 06:26 10,4 C 17,8 C 92 % 1010,9 hPa 0,0 l/m 0,0 km/h (0 Bft) SW 234 1 min 0,000 mm 0,0 UV-I 117 W/m 9,2 C 10,4 C 0,0 km/h (0 Bft) 100,00 %
22.05.2018 06:27 10,4 C 17,8 C 92 % 1010,9 hPa 0,0 l/m 0,0 km/h (0 Bft) SW 234 1 min 0,000 mm 0,0 UV-I 119 W/m 9,2 C 10,4 C 0,0 km/h (0 Bft) 100,00 %
22.05.2018 06:28 10,5 C 17,8 C 92 % 1010,9 hPa 0,0 l/m 0,0 km/h (0 Bft) SW 234 1 min 0,000 mm 0,0 UV-I 123 W/m 9,3 C 10,5 C 0,0 km/h (0 Bft) 95,83 %
22.05.2018 06:29 10,5 C 17,8 C 92 % 1010,9 hPa 0,0 l/m 0,0 km/h (0 Bft) SW 234 1 min 0,000 mm 0,0 UV-I 125 W/m 9,3 C 10,5 C 0,0 km/h (0 Bft) 100,00 %
22.05.2018 06:30 10,5 C 17,8 C 92 % 1010,9 hPa 0,0 l/m 0,0 km/h (0 Bft) SW 234 1 min 0,000 mm 0,0 UV-I 127 W/m 9,3 C 10,5 C 0,0 km/h (0 Bft) 95,83 %
22.05.2018 06:31 10,6 C 17,8 C 92 % 1010,9 hPa 0,0 l/m 0,0 km/h (0 Bft) SW 234 1 min 0,000 mm 0,0 UV-I 129 W/m 9,4 C 10,6 C 0,0 km/h (0 Bft) 100,00 %
22.05.2018 06:32 10,6 C 17,8 C 91 % 1010,9 hPa 0,0 l/m 0,0 km/h (0 Bft) SW 234 1 min 0,000 mm 0,0 UV-I 131 W/m 9,2 C 10,6 C 0,0 km/h (0 Bft) 92,31 %
22.05.2018 06:33 10,7 C 17,8 C 91 % 1010,9 hPa 0,0 l/m 0,0 km/h (0 Bft) SW 234 1 min 0,000 mm 0,0 UV-I 134 W/m 9,3 C 10,7 C 0,0 km/h (0 Bft) 100,00 %
22.05.2018 06:34 10,7 C 17,8 C 91 % 1010,9 hPa 0,0 l/m 0,0 km/h (0 Bft) SW 234 1 min 0,000 mm 0,0 UV-I 137 W/m 9,3 C 10,7 C 0,0 km/h (0 Bft) 91,30 %
22.05.2018 06:35 10,7 C 17,8 C 91 % 1010,9 hPa 0,0 l/m 0,0 km/h (0 Bft) SW 234 1 min 0,000 mm 0,0 UV-I 139 W/m 9,3 C 10,7 C 0,0 km/h (0 Bft) 100,00 %
22.05.2018 06:36 10,8 C 17,8 C 91 % 1010,9 hPa 0,0 l/m 0,0 km/h (0 Bft) SW 234 1 min 0,000 mm 0,0 UV-I 141 W/m 9,4 C 10,8 C 0,0 km/h (0 Bft) 92,31 %
22.05.2018 06:37 10,9 C 17,8 C 91 % 1010,9 hPa 0,0 l/m 0,0 km/h (0 Bft) SW 234 1 min 0,000 mm 0,0 UV-I 144 W/m 9,5 C 10,9 C 0,0 km/h (0 Bft) 87,50 %
22.05.2018 06:38 10,9 C 17,8 C 91 % 1010,9 hPa 0,0 l/m 0,0 km/h (0 Bft) SW 234 1 min 0,000 mm 0,0 UV-I 147 W/m 9,5 C 10,9 C 0,0 km/h (0 Bft) 100,00 %
22.05.2018 06:39 11,0 C 17,8 C 91 % 1010,9 hPa 0,0 l/m 0,0 km/h (0 Bft) SW 234 1 min 0,000 mm 0,0 UV-I 149 W/m 9,6 C 11,0 C 0,0 km/h (0 Bft) 91,67 %
22.05.2018 06:40 11,1 C 17,8 C 91 % 1010,9 hPa 0,0 l/m 0,0 km/h (0 Bft) SW 234 1 min 0,000 mm 0,0 UV-I 151 W/m 9,7 C 11,1 C 0,0 km/h (0 Bft) 100,00 %
22.05.2018 06:41 11,2 C 17,8 C 91 % 1010,9 hPa 0,0 l/m 0,0 km/h (0 Bft) SW 234 1 min 0,000 mm 0,0 UV-I 154 W/m 9,8 C 11,2 C 0,0 km/h (0 Bft) 93,10 %
22.05.2018 06:42 11,3 C 17,8 C 91 % 1010,9 hPa 0,0 l/m 0,0 km/h (0 Bft) SW 234 1 min 0,000 mm 0,0 UV-I 157 W/m 9,9 C 11,3 C 0,0 km/h (0 Bft) 100,00 %
22.05.2018 06:43 11,3 C 17,8 C 90 % 1010,9 hPa 0,0 l/m 0,0 km/h (0 Bft) SW 234 1 min 0,000 mm 0,0 UV-I 160 W/m 9,7 C 11,3 C 0,0 km/h (0 Bft) 87,50 %
22.05.2018 06:44 11,4 C 17,8 C 90 % 1010,9 hPa 0,0 l/m 0,0 km/h (0 Bft) SW 234 1 min 0,000 mm 0,0 UV-I 163 W/m 9,8 C 11,4 C 0,0 km/h (0 Bft) 95,65 %
22.05.2018 06:45 11,6 C 17,8 C 90 % 1010,9 hPa 0,0 l/m 0,0 km/h (0 Bft) SW 234 1 min 0,000 mm 0,0 UV-I 165 W/m 10,0 C 11,6 C 0,0 km/h (0 Bft) 95,83 %
22.05.2018 06:46 11,6 C 17,8 C 90 % 1010,9 hPa 0,0 l/m 0,0 km/h (0 Bft) SW 234 1 min 0,000 mm 0,0 UV-I 167 W/m 10,0 C 11,6 C 0,0 km/h (0 Bft) 100,00 %
22.05.2018 06:47 11,7 C 17,8 C 90 % 1010,9 hPa 0,0 l/m 0,0 km/h (0 Bft) SW 234 1 min 0,000 mm 0,0 UV-I 168 W/m 10,1 C 11,7 C 0,0 km/h (0 Bft) 93,75 %
22.05.2018 06:48 11,8 C 17,8 C 90 % 1010,8 hPa 0,0 l/m 0,0 km/h (0 Bft) SW 234 1 min 0,000 mm 0,0 UV-I 173 W/m 10,2 C 11,8 C 0,0 km/h (0 Bft) 92,31 %
22.05.2018 06:49 11,9 C 17,8 C 89 % 1010,9 hPa 0,0 l/m 0,0 km/h (0 Bft) SW 234 1 min 0,000 mm 0,0 UV-I 175 W/m 10,1 C 11,9 C 0,0 km/h (0 Bft) 100,00 %
22.05.2018 06:50 11,9 C 17,8 C 89 % 1010,9 hPa 0,0 l/m 0,0 km/h (0 Bft) SW 234 1 min 0,000 mm 0,0 UV-I 178 W/m 10,1 C 11,9 C 0,0 km/h (0 Bft) 86,67 %
22.05.2018 06:51 12,1 C 17,8 C 89 % 1010,8 hPa 0,0 l/m 0,0 km/h (0 Bft) SW 234 1 min 0,000 mm 0,0 UV-I 181 W/m 10,3 C 12,1 C 0,0 km/h (0 Bft) 96,15 %
22.05.2018 06:52 12,1 C 17,8 C 89 % 1010,8 hPa 0,0 l/m 0,9 km/h (0 Bft) SW 234 1 min 0,000 mm 0,0 UV-I 183 W/m 10,3 C 12,1 C 3,2 km/h (1 Bft) 92,31 %
22.05.2018 06:53 12,2 C 17,8 C 89 % 1010,8 hPa 0,0 l/m 1,9 km/h (1 Bft) SW 234 1 min 0,000 mm 0,0 UV-I 185 W/m 10,4 C 12,2 C 3,2 km/h (1 Bft) 96,30 %
22.05.2018 06:54 12,2 C 17,8 C 89 % 1010,8 hPa 0,0 l/m 2,4 km/h (1 Bft) S 177 1 min 0,000 mm 0,0 UV-I 189 W/m 10,4 C 12,2 C 3,2 km/h (1 Bft) 91,67 %
22.05.2018 06:55 12,3 C 17,8 C 88 % 1010,9 hPa 0,0 l/m 0,7 km/h (0 Bft) S 177 1 min 0,000 mm 0,0 UV-I 191 W/m 10,4 C 12,3 C 1,6 km/h (1 Bft) 96,15 %
22.05.2018 06:56 12,4 C 17,8 C 88 % 1010,9 hPa 0,0 l/m 1,3 km/h (1 Bft) S 177 1 min 0,000 mm 0,0 UV-I 194 W/m 10,5 C 12,4 C 3,2 km/h (1 Bft) 96,30 %
22.05.2018 06:57 12,4 C 17,8 C 88 % 1010,9 hPa 0,0 l/m 3,9 km/h (1 Bft) SO 126 1 min 0,000 mm 0,0 UV-I 195 W/m 10,5 C 12,4 C 4,8 km/h (1 Bft) 96,15 %
22.05.2018 06:58 12,5 C 17,8 C 88 % 1010,9 hPa 0,0 l/m 3,2 km/h (1 Bft) O-SO 105 1 min 0,000 mm 0,0 UV-I 197 W/m 10,6 C 12,5 C 4,8 km/h (1 Bft) 96,30 %
22.05.2018 06:59 12,6 C 17,8 C 87 % 1010,9 hPa 0,0 l/m 4,6 km/h (1 Bft) O-SO 105 1 min 0,000 mm 0,0 UV-I 200 W/m 10,5 C 12,6 C 6,4 km/h (2 Bft) 86,96 %
22.05.2018 07:00 12,7 C 17,8 C 87 % 1010,9 hPa 0,0 l/m 4,5 km/h (1 Bft) O-SO 105 1 min 0,000 mm 0,0 UV-I 204 W/m 10,6 C 12,7 C 6,4 km/h (2 Bft) 95,83 %
22.05.2018 07:01 12,7 C 17,8 C 87 % 1010,9 hPa 0,0 l/m 4,6 km/h (1 Bft) O-SO 105 1 min 0,051 mm 0,0 UV-I 207 W/m 10,6 C 12,7 C 4,8 km/h (1 Bft) 93,33 %
22.05.2018 07:02 12,7 C 17,8 C 87 % 1010,9 hPa 0,0 l/m 3,0 km/h (1 Bft) O-SO 105 1 min 0,000 mm 0,0 UV-I 208 W/m 10,6 C 12,7 C 4,8 km/h (1 Bft) 100,00 %
22.05.2018 07:03 12,8 C 17,8 C 86 % 1010,9 hPa 0,0 l/m 3,2 km/h (1 Bft) O-SO 105 1 min 0,000 mm 0,0 UV-I 211 W/m 10,5 C 12,8 C 4,8 km/h (1 Bft) 96,15 %
22.05.2018 07:04 12,8 C 17,8 C 86 % 1010,9 hPa 0,0 l/m 4,1 km/h (1 Bft) O-SO 105 1 min 0,000 mm 0,0 UV-I 214 W/m 10,5 C 12,8 C 6,4 km/h (2 Bft) 90,91 %
22.05.2018 07:05 12,9 C 17,8 C 86 % 1010,9 hPa 0,0 l/m 3,4 km/h (1 Bft) O-SO 105 1 min 0,000 mm 0,0 UV-I 217 W/m 10,6 C 12,9 C 4,8 km/h (1 Bft) 100,00 %
22.05.2018 07:06 12,9 C 17,8 C 86 % 1010,9 hPa 0,0 l/m 4,9 km/h (1 Bft) O-NO 64 1 min 0,000 mm 0,0 UV-I 220 W/m 10,6 C 12,9 C 6,4 km/h (2 Bft) 95,83 %
22.05.2018 07:07 13,0 C 17,8 C 87 % 1010,9 hPa 0,0 l/m 4,5 km/h (1 Bft) O 81 1 min 0,000 mm 0,0 UV-I 221 W/m 10,9 C 13,0 C 6,4 km/h (2 Bft) 100,00 %
22.05.2018 07:08 13,1 C 17,8 C 86 % 1011,0 hPa 0,0 l/m 4,7 km/h (1 Bft) O 81 1 min 0,000 mm 0,0 UV-I 221 W/m 10,8 C 13,1 C 6,4 km/h (2 Bft) 95,83 %
22.05.2018 07:09 13,2 C 17,8 C 86 % 1011,0 hPa 0,0 l/m 3,4 km/h (1 Bft) O 81 1 min 0,000 mm 0,0 UV-I 228 W/m 10,9 C 13,2 C 4,8 km/h (1 Bft) 100,00 %
22.05.2018 07:10 13,2 C 17,8 C 86 % 1011,0 hPa 0,0 l/m 4,0 km/h (1 Bft) O 84 1 min 0,000 mm 0,0 UV-I 230 W/m 10,9 C 13,2 C 4,8 km/h (1 Bft) 95,83 %
22.05.2018 07:11 13,2 C 17,8 C 86 % 1010,9 hPa 0,0 l/m 4,1 km/h (1 Bft) O 80 1 min 0,000 mm 0,0 UV-I 233 W/m 10,9 C 13,2 C 4,8 km/h (1 Bft) 95,65 %
22.05.2018 07:12 13,3 C 17,8 C 86 % 1011,0 hPa 0,0 l/m 2,6 km/h (1 Bft) O 80 1 min 0,000 mm 0,0 UV-I 235 W/m 11,0 C 13,3 C 4,8 km/h (1 Bft) 100,00 %
22.05.2018 07:13 13,3 C 17,8 C 85 % 1011,0 hPa 0,0 l/m 3,3 km/h (1 Bft) O 80 1 min 0,000 mm 0,0 UV-I 238 W/m 10,8 C 13,3 C 4,8 km/h (1 Bft) 95,65 %
22.05.2018 07:14 13,3 C 17,8 C 85 % 1010,9 hPa 0,0 l/m 4,7 km/h (1 Bft) O 80 1 min 0,000 mm 0,0 UV-I 240 W/m 10,8 C 13,3 C 6,4 km/h (2 Bft) 100,00 %
22.05.2018 07:15 13,3 C 17,8 C 86 % 1011,0 hPa 0,0 l/m 3,5 km/h (1 Bft) O-NO 61 1 min 0,000 mm 0,0 UV-I 243 W/m 11,0 C 13,3 C 6,4 km/h (2 Bft) 91,67 %
22.05.2018 07:16 13,4 C 17,8 C 85 % 1010,9 hPa 0,0 l/m 6,4 km/h (2 Bft) O 93 1 min 0,000 mm 0,0 UV-I 246 W/m 10,9 C 13,4 C 9,7 km/h (2 Bft) 96,55 %
22.05.2018 07:17 13,4 C 17,8 C 85 % 1010,9 hPa 0,0 l/m 6,9 km/h (2 Bft) O 92 1 min 0,000 mm 0,0 UV-I 249 W/m 10,9 C 13,1 C 9,7 km/h (2 Bft) 96,30 %
22.05.2018 07:18 13,4 C 17,8 C 84 % 1010,9 hPa 0,0 l/m 5,8 km/h (2 Bft) O-NO 74 1 min 0,000 mm 0,0 UV-I 252 W/m 10,8 C 13,4 C 6,4 km/h (2 Bft) 96,15 %
22.05.2018 07:19 13,4 C 17,8 C 84 % 1011,0 hPa 0,0 l/m 8,0 km/h (2 Bft) O 80 1 min 0,000 mm 0,0 UV-I 256 W/m 10,8 C 12,4 C 12,9 km/h (3 Bft) 93,33 %
22.05.2018 07:20 13,5 C 17,8 C 84 % 1011,0 hPa 0,0 l/m 8,5 km/h (2 Bft) O 87 1 min 0,000 mm 0,0 UV-I 258 W/m 10,8 C 12,2 C 12,9 km/h (3 Bft) 100,00 %
22.05.2018 07:21 13,5 C 17,8 C 84 % 1011,0 hPa 0,0 l/m 6,6 km/h (2 Bft) O-NO 69 1 min 0,000 mm 0,0 UV-I 260 W/m 10,8 C 13,4 C 9,7 km/h (2 Bft) 100,00 %
22.05.2018 07:22 13,5 C 17,8 C 84 % 1011,0 hPa 0,0 l/m 6,6 km/h (2 Bft) O-NO 69 1 min 0,000 mm 0,0 UV-I 263 W/m 10,8 C 13,4 C 9,7 km/h (2 Bft) 95,65 %
22.05.2018 07:23 13,6 C 17,8 C 84 % 1011,0 hPa 0,0 l/m 6,4 km/h (2 Bft) O-NO 77 1 min 0,000 mm 0,0 UV-I 266 W/m 10,9 C 13,6 C 11,3 km/h (2 Bft) 100,00 %
22.05.2018 07:24 13,6 C 17,8 C 84 % 1011,0 hPa 0,0 l/m 7,2 km/h (2 Bft) O 88 1 min 0,000 mm 0,2 UV-I 269 W/m 10,9 C 13,1 C 11,3 km/h (2 Bft) 100,00 %
22.05.2018 07:25 13,6 C 17,8 C 83 % 1011,0 hPa 0,0 l/m 9,9 km/h (2 Bft) O 84 1 min 0,000 mm 0,5 UV-I 272 W/m 10,8 C 11,6 C 12,9 km/h (3 Bft) 100,00 %
22.05.2018 07:26 13,6 C 17,8 C 83 % 1011,0 hPa 0,0 l/m 10,6 km/h (2 Bft) O-NO 76 1 min 0,000 mm 0,5 UV-I 275 W/m 10,8 C 11,3 C 14,5 km/h (3 Bft) 100,00 %
22.05.2018 07:27 13,6 C 17,8 C 83 % 1011,0 hPa 0,0 l/m 7,6 km/h (2 Bft) O-NO 58 1 min 0,000 mm 0,5 UV-I 254 W/m 10,8 C 12,9 C 11,3 km/h (2 Bft) 100,00 %
22.05.2018 07:28 13,6 C 17,8 C 84 % 1011,0 hPa 0,0 l/m 7,7 km/h (2 Bft) O-NO 75 1 min 0,000 mm 0,5 UV-I 278 W/m 10,9 C 12,8 C 11,3 km/h (2 Bft) 96,55 %
22.05.2018 07:29 13,7 C 17,8 C 84 % 1011,0 hPa 0,0 l/m 11,0 km/h (2 Bft) O 84 1 min 0,000 mm 0,5 UV-I 283 W/m 11,0 C 11,2 C 12,9 km/h (3 Bft) 100,00 %
22.05.2018 07:30 13,7 C 17,8 C 84 % 1011,0 hPa 0,0 l/m 9,0 km/h (2 Bft) O-NO 77 1 min 0,000 mm 0,5 UV-I 286 W/m 11,0 C 12,2 C 11,3 km/h (2 Bft) 100,00 %
22.05.2018 07:31 13,8 C 17,8 C 84 % 1011,0 hPa 0,0 l/m 6,7 km/h (2 Bft) O-NO 65 1 min 0,000 mm 0,5 UV-I 289 W/m 11,1 C 13,6 C 9,7 km/h (2 Bft) 100,00 %
22.05.2018 07:32 13,8 C 17,8 C 83 % 1011,0 hPa 0,0 l/m 11,6 km/h (2 Bft) O-NO 63 1 min 0,000 mm 0,5 UV-I 292 W/m 11,0 C 11,1 C 14,5 km/h (3 Bft) 100,00 %
22.05.2018 07:33 13,8 C 17,8 C 83 % 1011,0 hPa 0,0 l/m 10,0 km/h (2 Bft) O 79 1 min 0,000 mm 0,5 UV-I 288 W/m 11,0 C 11,8 C 14,5 km/h (3 Bft) 100,00 %
22.05.2018 07:34 13,9 C 17,8 C 83 % 1011,0 hPa 0,0 l/m 9,0 km/h (2 Bft) NO 47 1 min 0,000 mm 0,5 UV-I 290 W/m 11,1 C 12,4 C 12,9 km/h (3 Bft) 100,00 %
22.05.2018 07:35 13,9 C 17,8 C 83 % 1011,0 hPa 0,0 l/m 7,2 km/h (2 Bft) NO 46 1 min 0,000 mm 0,5 UV-I 298 W/m 11,1 C 13,4 C 11,3 km/h (2 Bft) 100,00 %
22.05.2018 07:36 13,9 C 17,8 C 83 % 1011,0 hPa 0,0 l/m 7,6 km/h (2 Bft) O-NO 61 1 min 0,000 mm 0,5 UV-I 301 W/m 11,1 C 13,2 C 9,7 km/h (2 Bft) 91,67 %
22.05.2018 07:37 14,0 C 17,8 C 83 % 1011,0 hPa 0,0 l/m 10,0 km/h (2 Bft) O 81 1 min 0,000 mm 0,6 UV-I 304 W/m 11,2 C 12,0 C 12,9 km/h (3 Bft) 100,00 %
22.05.2018 07:38 14,1 C 17,8 C 82 % 1011,0 hPa 0,0 l/m 9,9 km/h (2 Bft) NO 40 1 min 0,000 mm 0,6 UV-I 307 W/m 11,1 C 12,2 C 12,9 km/h (3 Bft) 96,30 %
22.05.2018 07:39 14,1 C 17,8 C 82 % 1011,0 hPa 0,0 l/m 7,0 km/h (2 Bft) O-NO 61 1 min 0,000 mm 0,6 UV-I 309 W/m 11,1 C 13,7 C 12,9 km/h (3 Bft) 100,00 %
22.05.2018 07:40 14,1 C 17,8 C 83 % 1011,0 hPa 0,0 l/m 8,2 km/h (2 Bft) O-NO 77 1 min 0,000 mm 0,6 UV-I 310 W/m 11,3 C 13,0 C 12,9 km/h (3 Bft) 100,00 %
22.05.2018 07:41 14,1 C 17,8 C 82 % 1011,1 hPa 0,0 l/m 7,2 km/h (2 Bft) O 80 1 min 0,000 mm 0,6 UV-I 314 W/m 11,1 C 13,6 C 11,3 km/h (2 Bft) 100,00 %
22.05.2018 07:42 14,2 C 17,8 C 81 % 1011,0 hPa 0,0 l/m 8,2 km/h (2 Bft) O-NO 66 1 min 0,000 mm 0,6 UV-I 316 W/m 11,0 C 13,2 C 11,3 km/h (2 Bft) 100,00 %
22.05.2018 07:43 14,2 C 17,8 C 82 % 1011,1 hPa 0,0 l/m 9,3 km/h (2 Bft) NO 45 1 min 0,000 mm 0,6 UV-I 320 W/m 11,2 C 12,6 C 12,9 km/h (3 Bft) 100,00 %
22.05.2018 07:44 14,2 C 17,8 C 82 % 1011,1 hPa 0,0 l/m 7,5 km/h (2 Bft) O 98 1 min 0,000 mm 0,6 UV-I 323 W/m 11,2 C 13,5 C 11,3 km/h (2 Bft) 100,00 %
22.05.2018 07:45 14,2 C 17,8 C 82 % 1011,1 hPa 0,0 l/m 7,7 km/h (2 Bft) O-NO 65 1 min 0,000 mm 0,6 UV-I 326 W/m 11,2 C 13,4 C 12,9 km/h (3 Bft) 100,00 %
22.05.2018 07:46 14,3 C 17,8 C 82 % 1011,1 hPa 0,0 l/m 11,0 km/h (2 Bft) O-NO 65 1 min 0,000 mm 0,6 UV-I 329 W/m 11,3 C 11,9 C 16,1 km/h (3 Bft) 100,00 %
22.05.2018 07:47 14,3 C 17,8 C 82 % 1011,1 hPa 0,0 l/m 7,2 km/h (2 Bft) N-NO 31 1 min 0,000 mm 0,6 UV-I 331 W/m 11,3 C 13,8 C 9,7 km/h (2 Bft) 100,00 %
22.05.2018 07:48 14,4 C 17,8 C 82 % 1011,1 hPa 0,0 l/m 7,6 km/h (2 Bft) O-NO 59 1 min 0,000 mm 0,6 UV-I 334 W/m 11,4 C 13,7 C 11,3 km/h (2 Bft) 100,00 %
22.05.2018 07:49 14,5 C 17,8 C 82 % 1011,1 hPa 0,0 l/m 11,2 km/h (2 Bft) O-NO 62 1 min 0,000 mm 0,7 UV-I 337 W/m 11,5 C 12,0 C 14,5 km/h (3 Bft) 100,00 %
22.05.2018 07:50 14,5 C 17,8 C 82 % 1011,1 hPa 0,0 l/m 10,1 km/h (2 Bft) O-NO 71 1 min 0,000 mm 0,7 UV-I 339 W/m 11,5 C 12,5 C 14,5 km/h (3 Bft) 100,00 %
22.05.2018 07:51 14,5 C 17,8 C 81 % 1011,1 hPa 0,0 l/m 9,2 km/h (2 Bft) O-NO 78 1 min 0,000 mm 0,7 UV-I 344 W/m 11,3 C 13,0 C 12,9 km/h (3 Bft) 100,00 %
22.05.2018 07:52 14,5 C 17,8 C 80 % 1011,1 hPa 0,0 l/m 5,6 km/h (1 Bft) O-NO 60 1 min 0,000 mm 0,7 UV-I 346 W/m 11,1 C 14,5 C 8,0 km/h (2 Bft) 100,00 %
22.05.2018 07:53 14,6 C 17,8 C 80 % 1011,1 hPa 0,0 l/m 8,7 km/h (2 Bft) O-NO 71 1 min 0,000 mm 0,7 UV-I 350 W/m 11,2 C 13,3 C 12,9 km/h (3 Bft) 100,00 %
22.05.2018 07:54 14,6 C 17,8 C 80 % 1011,1 hPa 0,0 l/m 8,4 km/h (2 Bft) NO 49 1 min 0,000 mm 0,7 UV-I 354 W/m 11,2 C 13,5 C 14,5 km/h (3 Bft) 100,00 %
22.05.2018 07:55 14,6 C 17,8 C 81 % 1011,1 hPa 0,0 l/m 7,7 km/h (2 Bft) O 82 1 min 0,000 mm 0,7 UV-I 332 W/m 11,4 C 13,8 C 12,9 km/h (3 Bft) 100,00 %
22.05.2018 07:56 14,6 C 17,8 C 80 % 1011,1 hPa 0,0 l/m 8,9 km/h (2 Bft) O-NO 74 1 min 0,000 mm 0,7 UV-I 347 W/m 11,2 C 13,2 C 12,9 km/h (3 Bft) 100,00 %
22.05.2018 07:57 14,6 C 17,8 C 79 % 1011,1 hPa 0,0 l/m 8,4 km/h (2 Bft) NO 44 1 min 0,000 mm 0,7 UV-I 360 W/m 11,0 C 13,5 C 11,3 km/h (2 Bft) 100,00 %
22.05.2018 07:58 14,7 C 17,8 C 79 % 1011,1 hPa 0,0 l/m 8,4 km/h (2 Bft) O-NO 76 1 min 0,000 mm 0,8 UV-I 363 W/m 11,1 C 13,6 C 11,3 km/h (2 Bft) 100,00 %
22.05.2018 07:59 14,7 C 17,8 C 80 % 1011,1 hPa 0,0 l/m 10,3 km/h (2 Bft) O-NO 77 1 min 0,000 mm 0,8 UV-I 365 W/m 11,3 C 12,6 C 14,5 km/h (3 Bft) 100,00 %
22.05.2018 08:00 14,7 C 17,8 C 79 % 1011,1 hPa 0,0 l/m 13,4 km/h (3 Bft) O 85 1 min 0,000 mm 0,8 UV-I 367 W/m 11,1 C 11,4 C 16,1 km/h (3 Bft) 100,00 %
22.05.2018 08:01 14,7 C 17,8 C 79 % 1011,1 hPa 0,0 l/m 10,4 km/h (2 Bft) O 79 1 min 0,152 mm 0,8 UV-I 369 W/m 11,1 C 12,6 C 14,5 km/h (3 Bft) 93,33 %
22.05.2018 08:02 14,7 C 17,8 C 79 % 1011,2 hPa 0,0 l/m 7,4 km/h (2 Bft) O 84 1 min 0,000 mm 0,8 UV-I 373 W/m 11,1 C 14,1 C 11,3 km/h (2 Bft) 100,00 %
22.05.2018 08:03 14,7 C 17,8 C 79 % 1011,1 hPa 0,0 l/m 7,9 km/h (2 Bft) O-NO 73 1 min 0,000 mm 0,8 UV-I 376 W/m 11,1 C 13,8 C 14,5 km/h (3 Bft) 100,00 %
22.05.2018 08:04 14,8 C 17,8 C 79 % 1011,1 hPa 0,0 l/m 7,7 km/h (2 Bft) O 88 1 min 0,000 mm 0,8 UV-I 378 W/m 11,2 C 14,1 C 12,9 km/h (3 Bft) 100,00 %
22.05.2018 08:05 14,8 C 17,8 C 79 % 1011,1 hPa 0,0 l/m 9,7 km/h (2 Bft) O 90 1 min 0,000 mm 0,8 UV-I 379 W/m 11,2 C 13,0 C 12,9 km/h (3 Bft) 100,00 %
22.05.2018 08:06 14,9 C 17,8 C 80 % 1011,1 hPa 0,0 l/m 9,3 km/h (2 Bft) O 92 1 min 0,000 mm 0,8 UV-I 383 W/m 11,5 C 13,3 C 12,9 km/h (3 Bft) 100,00 %
22.05.2018 08:07 14,9 C 17,8 C 78 % 1011,2 hPa 0,0 l/m 7,6 km/h (2 Bft) O-NO 73 1 min 0,000 mm 0,8 UV-I 386 W/m 11,1 C 14,2 C 11,3 km/h (2 Bft) 100,00 %
22.05.2018 08:08 14,9 C 17,8 C 79 % 1011,1 hPa 0,0 l/m 8,6 km/h (2 Bft) NO 53 1 min 0,000 mm 0,9 UV-I 388 W/m 11,3 C 13,7 C 16,1 km/h (3 Bft) 100,00 %
22.05.2018 08:09 15,0 C 17,8 C 79 % 1011,1 hPa 0,0 l/m 12,0 km/h (2 Bft) O-NO 63 1 min 0,000 mm 0,9 UV-I 388 W/m 11,4 C 12,3 C 14,5 km/h (3 Bft) 100,00 %
22.05.2018 08:10 15,1 C 17,8 C 78 % 1011,1 hPa 0,0 l/m 11,2 km/h (2 Bft) O 84 1 min 0,000 mm 0,9 UV-I 390 W/m 11,3 C 12,7 C 14,5 km/h (3 Bft) 100,00 %
22.05.2018 08:11 15,1 C 17,8 C 78 % 1011,1 hPa 0,0 l/m 11,8 km/h (2 Bft) O 83 1 min 0,000 mm 0,9 UV-I 392 W/m 11,3 C 12,5 C 14,5 km/h (3 Bft) 100,00 %
22.05.2018 08:12 15,1 C 17,8 C 78 % 1011,1 hPa 0,0 l/m 10,2 km/h (2 Bft) O-NO 66 1 min 0,000 mm 0,9 UV-I 395 W/m 11,3 C 13,1 C 14,5 km/h (3 Bft) 100,00 %
22.05.2018 08:14 15,1 C 17,8 C 78 % 1011,2 hPa 0,0 l/m 10,4 km/h (2 Bft) O 90 2 min 0,000 mm 0,9 UV-I 402 W/m 11,3 C 13,1 C 14,5 km/h (3 Bft) 98,21 %
22.05.2018 08:15 15,1 C 17,8 C 78 % 1011,2 hPa 0,0 l/m 9,8 km/h (2 Bft) O 80 1 min 0,000 mm 0,9 UV-I 407 W/m 11,3 C 13,3 C 12,9 km/h (3 Bft) 100,00 %
22.05.2018 08:16 15,1 C 17,8 C 77 % 1011,2 hPa 0,0 l/m 9,6 km/h (2 Bft) O 79 1 min 0,000 mm 1,0 UV-I 409 W/m 11,1 C 13,4 C 12,9 km/h (3 Bft) 100,00 %
22.05.2018 08:17 15,1 C 17,8 C 78 % 1011,2 hPa 0,0 l/m 7,7 km/h (2 Bft) O 82 1 min 0,000 mm 1,0 UV-I 413 W/m 11,3 C 14,4 C 11,3 km/h (2 Bft) 100,00 %
22.05.2018 08:19 15,2 C 17,8 C 77 % 1011,2 hPa 0,0 l/m 9,9 km/h (2 Bft) O-NO 78 2 min 0,000 mm 1,0 UV-I 418 W/m 11,2 C 13,4 C 14,5 km/h (3 Bft) 96,43 %
22.05.2018 08:20 15,3 C 17,8 C 78 % 1011,2 hPa 0,0 l/m 8,5 km/h (2 Bft) O-NO 76 1 min 0,000 mm 1,0 UV-I 423 W/m 11,5 C 14,2 C 12,9 km/h (3 Bft) 100,00 %
22.05.2018 08:21 15,3 C 17,8 C 78 % 1011,2 hPa 0,0 l/m 7,8 km/h (2 Bft) O-NO 63 1 min 0,000 mm 1,0 UV-I 425 W/m 11,5 C 14,5 C 11,3 km/h (2 Bft) 100,00 %
22.05.2018 08:22 15,3 C 17,8 C 78 % 1011,2 hPa 0,0 l/m 7,4 km/h (2 Bft) O-NO 63 1 min 0,000 mm 1,0 UV-I 419 W/m 11,5 C 14,7 C 11,3 km/h (2 Bft) 100,00 %
22.05.2018 08:23 15,4 C 17,8 C 78 % 1011,2 hPa 0,0 l/m 10,9 km/h (2 Bft) O-NO 67 1 min 0,000 mm 1,0 UV-I 417 W/m 11,6 C 13,2 C 12,9 km/h (3 Bft) 100,00 %
22.05.2018 08:24 15,5 C 17,8 C 79 % 1011,2 hPa 0,0 l/m 5,8 km/h (2 Bft) O 87 1 min 0,000 mm 1,0 UV-I 418 W/m 11,9 C 15,5 C 8,0 km/h (2 Bft) 100,00 %
22.05.2018 08:25 15,6 C 17,8 C 77 % 1011,2 hPa 0,0 l/m 5,2 km/h (1 Bft) O 101 1 min 0,000 mm 1,1 UV-I 423 W/m 11,6 C 15,6 C 6,4 km/h (2 Bft) 100,00 %
22.05.2018 08:26 15,6 C 17,8 C 77 % 1011,2 hPa 0,0 l/m 4,7 km/h (1 Bft) NO 46 1 min 0,000 mm 1,1 UV-I 432 W/m 11,6 C 15,6 C 6,4 km/h (2 Bft) 100,00 %
22.05.2018 08:27 15,6 C 17,8 C 77 % 1011,2 hPa 0,0 l/m 6,7 km/h (2 Bft) O 80 1 min 0,000 mm 1,1 UV-I 433 W/m 11,6 C 15,4 C 11,3 km/h (2 Bft) 100,00 %
22.05.2018 08:28 15,6 C 17,8 C 76 % 1011,2 hPa 0,0 l/m 5,1 km/h (1 Bft) O-NO 63 1 min 0,000 mm 1,1 UV-I 428 W/m 11,4 C 15,6 C 8,0 km/h (2 Bft) 100,00 %
22.05.2018 08:29 15,7 C 17,8 C 77 % 1011,2 hPa 0,0 l/m 6,2 km/h (2 Bft) O-NO 59 1 min 0,000 mm 1,1 UV-I 406 W/m 11,7 C 15,7 C 8,0 km/h (2 Bft) 100,00 %
22.05.2018 08:30 15,8 C 17,8 C 77 % 1011,2 hPa 0,0 l/m 7,1 km/h (2 Bft) O-NO 72 1 min 0,000 mm 1,1 UV-I 404 W/m 11,8 C 15,4 C 9,7 km/h (2 Bft) 100,00 %
22.05.2018 08:31 15,8 C 17,8 C 77 % 1011,2 hPa 0,0 l/m 8,8 km/h (2 Bft) NO 54 1 min 0,000 mm 1,1 UV-I 440 W/m 11,8 C 14,5 C 12,9 km/h (3 Bft) 100,00 %
22.05.2018 08:32 15,9 C 17,8 C 78 % 1011,2 hPa 0,0 l/m 7,7 km/h (2 Bft) O-NO 61 1 min 0,000 mm 1,2 UV-I 446 W/m 12,1 C 15,2 C 9,7 km/h (2 Bft) 100,00 %
22.05.2018 08:33 15,9 C 17,8 C 77 % 1011,2 hPa 0,0 l/m 6,4 km/h (2 Bft) O-NO 59 1 min 0,000 mm 1,2 UV-I 447 W/m 11,9 C 15,9 C 9,7 km/h (2 Bft) 100,00 %
22.05.2018 08:34 15,9 C 17,8 C 78 % 1011,2 hPa 0,0 l/m 8,0 km/h (2 Bft) O-NO 65 1 min 0,000 mm 1,2 UV-I 450 W/m 12,1 C 15,0 C 9,7 km/h (2 Bft) 100,00 %
22.05.2018 08:35 15,9 C 17,8 C 78 % 1011,2 hPa 0,0 l/m 5,9 km/h (2 Bft) O 79 1 min 0,000 mm 1,2 UV-I 441 W/m 12,1 C 15,9 C 8,0 km/h (2 Bft) 100,00 %
22.05.2018 08:36 16,0 C 17,8 C 78 % 1011,3 hPa 0,0 l/m 6,9 km/h (2 Bft) O 85 1 min 0,000 mm 1,2 UV-I 455 W/m 12,2 C 15,7 C 11,3 km/h (2 Bft) 96,55 %
22.05.2018 08:37 16,0 C 17,8 C 75 % 1011,3 hPa 0,0 l/m 5,8 km/h (2 Bft) O-NO 64 1 min 0,000 mm 1,2 UV-I 467 W/m 11,6 C 16,0 C 8,0 km/h (2 Bft) 92,59 %
22.05.2018 08:38 16,1 C 17,8 C 78 % 1011,2 hPa 0,0 l/m 7,9 km/h (2 Bft) O 81 1 min 0,000 mm 1,2 UV-I 468 W/m 12,3 C 15,3 C 11,3 km/h (2 Bft) 92,86 %
22.05.2018 08:39 16,2 C 17,8 C 77 % 1011,2 hPa 0,0 l/m 7,5 km/h (2 Bft) O-NO 65 1 min 0,000 mm 1,3 UV-I 468 W/m 12,2 C 15,6 C 11,3 km/h (2 Bft) 96,30 %
22.05.2018 08:40 16,2 C 17,8 C 75 % 1011,3 hPa 0,0 l/m 8,2 km/h (2 Bft) O-NO 63 1 min 0,000 mm 1,3 UV-I 469 W/m 11,8 C 15,3 C 12,9 km/h (3 Bft) 100,00 %
22.05.2018 08:41 16,3 C 17,8 C 76 % 1011,3 hPa 0,0 l/m 7,3 km/h (2 Bft) O-NO 71 1 min 0,000 mm 1,3 UV-I 474 W/m 12,1 C 15,8 C 12,9 km/h (3 Bft) 91,67 %
22.05.2018 08:42 16,3 C 17,8 C 75 % 1011,3 hPa 0,0 l/m 6,2 km/h (2 Bft) O-NO 68 1 min 0,000 mm 1,3 UV-I 478 W/m 11,9 C 16,3 C 8,0 km/h (2 Bft) 100,00 %
22.05.2018 08:43 16,3 C 17,8 C 76 % 1011,3 hPa 0,0 l/m 5,8 km/h (2 Bft) NO 52 1 min 0,000 mm 1,3 UV-I 468 W/m 12,1 C 16,3 C 8,0 km/h (2 Bft) 96,30 %
22.05.2018 08:44 16,3 C 17,8 C 76 % 1011,2 hPa 0,0 l/m 6,9 km/h (2 Bft) O-NO 75 1 min 0,000 mm 1,3 UV-I 475 W/m 12,1 C 16,0 C 9,7 km/h (2 Bft) 91,30 %
22.05.2018 08:45 16,4 C 17,8 C 76 % 1011,2 hPa 0,0 l/m 7,4 km/h (2 Bft) NO 53 1 min 0,000 mm 1,3 UV-I 479 W/m 12,2 C 15,9 C 12,9 km/h (3 Bft) 96,30 %
22.05.2018 08:46 16,4 C 17,8 C 76 % 1011,3 hPa 0,0 l/m 8,0 km/h (2 Bft) O-NO 60 1 min 0,000 mm 1,3 UV-I 490 W/m 12,2 C 15,6 C 9,7 km/h (2 Bft) 95,65 %
22.05.2018 08:47 16,4 C 18,3 C 75 % 1011,2 hPa 0,0 l/m 5,2 km/h (1 Bft) NO 46 1 min 0,000 mm 1,4 UV-I 495 W/m 12,0 C 16,4 C 8,0 km/h (2 Bft) 100,00 %
22.05.2018 08:48 16,5 C 17,8 C 76 % 1011,2 hPa 0,0 l/m 7,8 km/h (2 Bft) NO 44 1 min 0,000 mm 1,4 UV-I 497 W/m 12,3 C 15,8 C 9,7 km/h (2 Bft) 96,15 %
22.05.2018 08:49 16,6 C 18,3 C 77 % 1011,2 hPa 0,0 l/m 6,6 km/h (2 Bft) NO 49 1 min 0,000 mm 1,4 UV-I 501 W/m 12,5 C 16,5 C 9,7 km/h (2 Bft) 98,19 %
22.05.2018 08:50 16,7 C 18,3 C 75 % 1011,2 hPa 0,0 l/m 9,5 km/h (2 Bft) N-NO 33 1 min 0,000 mm 1,4 UV-I 505 W/m 12,2 C 15,2 C 12,9 km/h (3 Bft) 97,62 %
22.05.2018 08:51 16,8 C 17,8 C 76 % 1011,2 hPa 0,0 l/m 7,3 km/h (2 Bft) O-SO 104 1 min 0,000 mm 1,4 UV-I 508 W/m 12,5 C 16,3 C 11,3 km/h (2 Bft) 96,55 %
22.05.2018 08:52 16,7 C 17,8 C 73 % 1011,2 hPa 0,0 l/m 8,6 km/h (2 Bft) O 88 1 min 0,000 mm 1,4 UV-I 510 W/m 11,8 C 15,6 C 14,5 km/h (3 Bft) 100,00 %
22.05.2018 08:53 16,7 C 17,8 C 73 % 1011,2 hPa 0,0 l/m 9,7 km/h (2 Bft) O-NO 75 1 min 0,000 mm 1,5 UV-I 510 W/m 11,8 C 15,1 C 12,9 km/h (3 Bft) 100,00 %
22.05.2018 08:54 16,7 C 17,8 C 74 % 1011,3 hPa 0,0 l/m 8,7 km/h (2 Bft) O 82 1 min 0,000 mm 1,5 UV-I 507 W/m 12,0 C 15,6 C 12,9 km/h (3 Bft) 96,30 %
22.05.2018 08:55 16,6 C 18,3 C 74 % 1011,2 hPa 0,0 l/m 3,3 km/h (1 Bft) O 99 1 min 0,000 mm 1,5 UV-I 514 W/m 11,9 C 16,6 C 4,8 km/h (1 Bft) 95,65 %
22.05.2018 08:56 16,6 C 18,3 C 73 % 1011,3 hPa 0,0 l/m 4,7 km/h (1 Bft) O-SO 109 1 min 0,000 mm 1,5 UV-I 520 W/m 11,7 C 16,6 C 6,4 km/h (2 Bft) 100,00 %
22.05.2018 08:57 16,6 C 18,3 C 73 % 1011,3 hPa 0,0 l/m 8,7 km/h (2 Bft) O-NO 67 1 min 0,000 mm 1,5 UV-I 522 W/m 11,7 C 15,5 C 12,9 km/h (3 Bft) 95,65 %
22.05.2018 08:58 16,6 C 18,3 C 72 % 1011,3 hPa 0,0 l/m 8,4 km/h (2 Bft) O-SO 103 1 min 0,000 mm 1,6 UV-I 525 W/m 11,5 C 15,6 C 11,3 km/h (2 Bft) 100,00 %
22.05.2018 08:59 16,6 C 18,3 C 73 % 1011,2 hPa 0,0 l/m 5,1 km/h (1 Bft) O-NO 64 1 min 0,000 mm 1,6 UV-I 529 W/m 11,7 C 16,6 C 9,7 km/h (2 Bft) 96,15 %
22.05.2018 09:00 16,6 C 18,3 C 74 % 1011,2 hPa 0,0 l/m 8,0 km/h (2 Bft) O 79 1 min 0,254 mm 1,6 UV-I 529 W/m 11,9 C 15,8 C 11,3 km/h (2 Bft) 100,00 %
22.05.2018 09:02 16,8 C 18,3 C 74 % 1011,2 hPa 0,0 l/m 8,2 km/h (2 Bft) O-NO 63 2 min 0,000 mm 1,6 UV-I 531 W/m 12,1 C 15,9 C 11,3 km/h (2 Bft) 97,73 %
22.05.2018 09:03 16,8 C 18,3 C 73 % 1011,2 hPa 0,0 l/m 6,8 km/h (2 Bft) O 95 1 min 0,000 mm 1,6 UV-I 532 W/m 11,9 C 16,6 C 8,0 km/h (2 Bft) 96,15 %
22.05.2018 09:04 16,8 C 18,3 C 73 % 1011,2 hPa 0,0 l/m 7,8 km/h (2 Bft) O-SO 106 1 min 0,000 mm 1,7 UV-I 535 W/m 11,9 C 16,1 C 9,7 km/h (2 Bft) 100,00 %
22.05.2018 09:05 16,8 C 18,3 C 73 % 1011,2 hPa 0,0 l/m 8,0 km/h (2 Bft) O 82 1 min 0,000 mm 1,7 UV-I 534 W/m 11,9 C 16,0 C 11,3 km/h (2 Bft) 100,00 %
22.05.2018 09:06 16,8 C 18,3 C 72 % 1011,2 hPa 0,0 l/m 7,7 km/h (2 Bft) O-NO 74 1 min 0,000 mm 1,7 UV-I 540 W/m 11,7 C 16,1 C 11,3 km/h (2 Bft) 95,83 %
22.05.2018 09:07 16,8 C 18,3 C 72 % 1011,2 hPa 0,0 l/m 6,8 km/h (2 Bft) O-SO 105 1 min 0,000 mm 1,7 UV-I 547 W/m 11,7 C 16,6 C 11,3 km/h (2 Bft) 100,00 %
22.05.2018 09:08 16,8 C 18,3 C 73 % 1011,2 hPa 0,0 l/m 3,7 km/h (1 Bft) O 96 1 min 0,000 mm 1,7 UV-I 545 W/m 11,9 C 16,8 C 6,4 km/h (2 Bft) 100,00 %
22.05.2018 09:09 16,9 C 18,3 C 73 % 1011,2 hPa 0,0 l/m 5,8 km/h (2 Bft) O 101 1 min 0,000 mm 1,7 UV-I 537 W/m 12,0 C 16,9 C 9,7 km/h (2 Bft) 100,00 %
22.05.2018 09:10 16,9 C 18,3 C 73 % 1011,2 hPa 0,0 l/m 6,6 km/h (2 Bft) NO 47 1 min 0,000 mm 1,7 UV-I 532 W/m 12,0 C 16,8 C 11,3 km/h (2 Bft) 100,00 %
22.05.2018 09:11 16,9 C 18,3 C 73 % 1011,3 hPa 0,0 l/m 6,7 km/h (2 Bft) NO 53 1 min 0,000 mm 1,8 UV-I 542 W/m 12,0 C 16,8 C 8,0 km/h (2 Bft) 100,00 %
22.05.2018 09:12 17,1 C 18,3 C 75 % 1011,3 hPa 0,0 l/m 3,4 km/h (1 Bft) NO 53 1 min 0,000 mm 1,8 UV-I 557 W/m 12,6 C 17,1 C 6,4 km/h (2 Bft) 100,00 %
22.05.2018 09:13 17,1 C 18,3 C 74 % 1011,3 hPa 0,0 l/m 4,2 km/h (1 Bft) NO 48 1 min 0,000 mm 1,8 UV-I 561 W/m 12,4 C 17,1 C 6,4 km/h (2 Bft) 100,00 %
22.05.2018 09:14 17,1 C 18,3 C 74 % 1011,2 hPa 0,0 l/m 0,9 km/h (0 Bft) O-NO 76 1 min 0,000 mm 1,9 UV-I 560 W/m 12,4 C 17,1 C 3,2 km/h (1 Bft) 100,00 %
22.05.2018 09:15 17,1 C 18,3 C 73 % 1011,3 hPa 0,0 l/m 4,0 km/h (1 Bft) O 94 1 min 0,000 mm 1,9 UV-I 558 W/m 12,2 C 17,1 C 6,4 km/h (2 Bft) 100,00 %
22.05.2018 09:16 17,2 C 18,3 C 72 % 1011,3 hPa 0,0 l/m 3,8 km/h (1 Bft) O 92 1 min 0,000 mm 1,9 UV-I 560 W/m 12,1 C 17,2 C 9,7 km/h (2 Bft) 100,00 %
22.05.2018 09:17 17,2 C 18,3 C 72 % 1011,2 hPa 0,0 l/m 8,9 km/h (2 Bft) SO 134 1 min 0,000 mm 1,9 UV-I 569 W/m 12,1 C 16,0 C 11,3 km/h (2 Bft) 100,00 %
22.05.2018 09:18 17,2 C 18,3 C 72 % 1011,2 hPa 0,0 l/m 4,3 km/h (1 Bft) O-NO 71 1 min 0,000 mm 2,0 UV-I 577 W/m 12,1 C 17,2 C 6,4 km/h (2 Bft) 100,00 %
22.05.2018 09:19 17,3 C 18,3 C 74 % 1011,2 hPa 0,0 l/m 7,1 km/h (2 Bft) O 99 1 min 0,000 mm 2,0 UV-I 582 W/m 12,6 C 17,0 C 11,3 km/h (2 Bft) 100,00 %
22.05.2018 09:20 17,4 C 18,3 C 73 % 1011,2 hPa 0,0 l/m 8,6 km/h (2 Bft) O 100 1 min 0,000 mm 2,0 UV-I 583 W/m 12,5 C 16,4 C 11,3 km/h (2 Bft) 100,00 %
22.05.2018 09:21 17,4 C 18,3 C 71 % 1011,2 hPa 0,0 l/m 4,2 km/h (1 Bft) O 101 1 min 0,000 mm 2,0 UV-I 586 W/m 12,1 C 17,4 C 9,7 km/h (2 Bft) 100,00 %
22.05.2018 09:22 17,4 C 18,3 C 71 % 1011,2 hPa 0,0 l/m 7,2 km/h (2 Bft) O-NO 78 1 min 0,000 mm 2,0 UV-I 585 W/m 12,1 C 17,0 C 9,7 km/h (2 Bft) 95,65 %
22.05.2018 09:23 17,5 C 18,3 C 72 % 1011,2 hPa 0,0 l/m 5,9 km/h (2 Bft) O-NO 69 1 min 0,000 mm 2,0 UV-I 585 W/m 12,4 C 17,5 C 6,4 km/h (2 Bft) 100,00 %
22.05.2018 09:24 17,6 C 18,3 C 72 % 1011,2 hPa 0,0 l/m 7,3 km/h (2 Bft) O 84 1 min 0,000 mm 2,0 UV-I 587 W/m 12,5 C 17,2 C 11,3 km/h (2 Bft) 95,65 %
22.05.2018 09:25 17,7 C 18,3 C 73 % 1011,2 hPa 0,0 l/m 6,3 km/h (2 Bft) O-SO 107 1 min 0,000 mm 2,1 UV-I 592 W/m 12,8 C 17,7 C 11,3 km/h (2 Bft) 95,83 %
22.05.2018 09:26 17,7 C 18,3 C 71 % 1011,2 hPa 0,0 l/m 7,4 km/h (2 Bft) O-SO 112 1 min 0,000 mm 2,1 UV-I 582 W/m 12,4 C 17,2 C 9,7 km/h (2 Bft) 100,00 %
22.05.2018 09:27 17,7 C 18,3 C 71 % 1011,2 hPa 0,0 l/m 4,9 km/h (1 Bft) O-SO 115 1 min 0,000 mm 2,1 UV-I 580 W/m 12,4 C 17,7 C 6,4 km/h (2 Bft) 96,88 %
22.05.2018 09:28 17,7 C 18,3 C 71 % 1011,2 hPa 0,0 l/m 4,8 km/h (1 Bft) O-SO 107 1 min 0,000 mm 2,1 UV-I 591 W/m 12,4 C 17,7 C 9,7 km/h (2 Bft) 100,00 %
22.05.2018 09:29 17,8 C 18,3 C 71 % 1011,2 hPa 0,0 l/m 7,3 km/h (2 Bft) O-NO 67 1 min 0,000 mm 2,1 UV-I 592 W/m 12,5 C 17,4 C 11,3 km/h (2 Bft) 96,15 %
22.05.2018 09:30 17,9 C 18,3 C 70 % 1011,2 hPa 0,0 l/m 8,0 km/h (2 Bft) O-SO 104 1 min 0,000 mm 2,1 UV-I 594 W/m 12,3 C 17,1 C 9,7 km/h (2 Bft) 100,00 %
22.05.2018 09:31 17,9 C 18,3 C 69 % 1011,2 hPa 0,0 l/m 8,7 km/h (2 Bft) O 95 1 min 0,000 mm 2,2 UV-I 603 W/m 12,1 C 16,8 C 14,5 km/h (3 Bft) 96,30 %
22.05.2018 09:32 17,9 C 18,3 C 69 % 1011,2 hPa 0,0 l/m 5,2 km/h (1 Bft) O-NO 65 1 min 0,000 mm 2,2 UV-I 609 W/m 12,1 C 17,9 C 6,4 km/h (2 Bft) 100,00 %
22.05.2018 09:33 17,9 C 18,3 C 70 % 1011,2 hPa 0,0 l/m 3,5 km/h (1 Bft) O-NO 71 1 min 0,000 mm 2,2 UV-I 612 W/m 12,3 C 17,9 C 4,8 km/h (1 Bft) 96,15 %
22.05.2018 09:34 18,0 C 18,3 C 70 % 1011,2 hPa 0,0 l/m 7,4 km/h (2 Bft) O 96 1 min 0,000 mm 2,2 UV-I 614 W/m 12,4 C 17,5 C 11,3 km/h (2 Bft) 100,00 %
22.05.2018 09:35 18,0 C 18,3 C 69 % 1011,1 hPa 0,0 l/m 5,3 km/h (1 Bft) O 95 1 min 0,000 mm 2,2 UV-I 620 W/m 12,2 C 18,0 C 9,7 km/h (2 Bft) 95,65 %
22.05.2018 09:36 18,1 C 18,3 C 71 % 1011,1 hPa 0,0 l/m 3,8 km/h (1 Bft) O-SO 102 1 min 0,000 mm 2,2 UV-I 604 W/m 12,8 C 18,1 C 6,4 km/h (2 Bft) 100,00 %
22.05.2018 09:37 18,1 C 18,3 C 70 % 1011,2 hPa 0,0 l/m 4,1 km/h (1 Bft) O-SO 121 1 min 0,000 mm 2,2 UV-I 604 W/m 12,5 C 18,1 C 8,0 km/h (2 Bft) 91,30 %
22.05.2018 09:38 18,1 C 18,3 C 69 % 1011,2 hPa 0,0 l/m 5,0 km/h (1 Bft) O-SO 106 1 min 0,000 mm 2,2 UV-I 598 W/m 12,3 C 18,1 C 8,0 km/h (2 Bft) 95,83 %
22.05.2018 09:39 18,2 C 18,3 C 69 % 1011,2 hPa 0,0 l/m 7,5 km/h (2 Bft) O 92 1 min 0,000 mm 2,2 UV-I 591 W/m 12,4 C 17,7 C 11,3 km/h (2 Bft) 96,15 %
22.05.2018 09:40 18,2 C 18,3 C 68 % 1011,2 hPa 0,0 l/m 4,4 km/h (1 Bft) O-SO 106 1 min 0,000 mm 2,2 UV-I 577 W/m 12,2 C 18,2 C 6,4 km/h (2 Bft) 92,59 %
22.05.2018 09:41 18,2 C 18,3 C 69 % 1011,2 hPa 0,0 l/m 6,9 km/h (2 Bft) O-NO 57 1 min 0,000 mm 2,3 UV-I 596 W/m 12,4 C 18,0 C 9,7 km/h (2 Bft) 100,00 %
22.05.2018 09:42 18,2 C 18,3 C 69 % 1011,2 hPa 0,0 l/m 4,2 km/h (1 Bft) NO 36 1 min 0,000 mm 2,3 UV-I 585 W/m 12,4 C 18,2 C 6,4 km/h (2 Bft) 94,44 %
22.05.2018 09:43 18,3 C 18,3 C 72 % 1011,2 hPa 0,0 l/m 8,7 km/h (2 Bft) O-NO 68 1 min 0,000 mm 2,3 UV-I 584 W/m 13,2 C 17,3 C 14,5 km/h (3 Bft) 100,00 %
22.05.2018 09:44 18,5 C 18,3 C 71 % 1011,1 hPa 0,0 l/m 9,2 km/h (2 Bft) N-NO 17 1 min 0,000 mm 2,3 UV-I 586 W/m 13,1 C 17,3 C 12,9 km/h (3 Bft) 96,67 %
22.05.2018 09:45 18,6 C 18,3 C 70 % 1011,2 hPa 0,0 l/m 8,3 km/h (2 Bft) NO 44 1 min 0,000 mm 2,3 UV-I 585 W/m 13,0 C 17,8 C 11,3 km/h (2 Bft) 100,00 %
22.05.2018 09:46 18,6 C 18,3 C 70 % 1011,2 hPa 0,0 l/m 8,1 km/h (2 Bft) O-NO 61 1 min 0,000 mm 2,3 UV-I 588 W/m 13,0 C 17,8 C 12,9 km/h (3 Bft) 93,33 %
22.05.2018 09:47 18,6 C 18,3 C 67 % 1011,1 hPa 0,0 l/m 8,1 km/h (2 Bft) NO 50 1 min 0,000 mm 2,4 UV-I 591 W/m 12,3 C 17,8 C 11,3 km/h (2 Bft) 100,00 %
22.05.2018 09:48 18,6 C 18,3 C 70 % 1011,2 hPa 0,0 l/m 8,0 km/h (2 Bft) N-NO 32 1 min 0,000 mm 2,4 UV-I 594 W/m 13,0 C 17,9 C 11,3 km/h (2 Bft) 97,56 %
22.05.2018 09:49 18,7 C 18,3 C 69 % 1011,2 hPa 0,0 l/m 8,9 km/h (2 Bft) NO 34 1 min 0,000 mm 2,4 UV-I 603 W/m 12,9 C 17,6 C 12,9 km/h (3 Bft) 100,00 %
22.05.2018 09:50 18,7 C 18,3 C 68 % 1011,1 hPa 0,0 l/m 7,8 km/h (2 Bft) O-NO 65 1 min 0,000 mm 2,4 UV-I 603 W/m 12,7 C 18,1 C 9,7 km/h (2 Bft) 96,88 %
22.05.2018 09:51 18,6 C 18,3 C 67 % 1011,2 hPa 0,0 l/m 3,9 km/h (1 Bft) O-SO 102 1 min 0,000 mm 2,4 UV-I 614 W/m 12,3 C 18,6 C 4,8 km/h (1 Bft) 96,30 %
22.05.2018 09:52 18,7 C 18,3 C 68 % 1011,2 hPa 0,0 l/m 7,0 km/h (2 Bft) O-NO 57 1 min 0,000 mm 2,5 UV-I 623 W/m 12,7 C 18,4 C 9,7 km/h (2 Bft) 100,00 %
22.05.2018 09:53 18,7 C 18,3 C 68 % 1011,2 hPa 0,0 l/m 5,2 km/h (1 Bft) NO 51 1 min 0,000 mm 2,5 UV-I 641 W/m 12,7 C 18,7 C 8,0 km/h (2 Bft) 95,83 %
22.05.2018 09:54 18,9 C 18,3 C 69 % 1011,1 hPa 0,0 l/m 3,7 km/h (1 Bft) O-SO 119 1 min 0,000 mm 2,5 UV-I 644 W/m 13,1 C 18,9 C 6,4 km/h (2 Bft) 95,65 %
22.05.2018 09:55 19,1 C 18,3 C 67 % 1011,2 hPa 0,0 l/m 5,1 km/h (1 Bft) O-NO 62 1 min 0,000 mm 2,6 UV-I 643 W/m 12,8 C 19,1 C 6,4 km/h (2 Bft) 95,83 %
22.05.2018 09:56 19,1 C 18,3 C 66 % 1011,2 hPa 0,0 l/m 6,7 km/h (2 Bft) NO 36 1 min 0,000 mm 2,6 UV-I 651 W/m 12,6 C 19,0 C 9,7 km/h (2 Bft) 100,00 %
22.05.2018 09:57 19,1 C 18,3 C 68 % 1011,2 hPa 0,0 l/m 7,4 km/h (2 Bft) NO 42 1 min 0,000 mm 2,6 UV-I 655 W/m 13,1 C 18,7 C 9,7 km/h (2 Bft) 91,67 %
22.05.2018 09:58 19,1 C 18,3 C 70 % 1011,1 hPa 0,0 l/m 5,9 km/h (2 Bft) O 79 1 min 0,000 mm 2,6 UV-I 647 W/m 13,5 C 19,1 C 8,0 km/h (2 Bft) 100,00 %
22.05.2018 09:59 19,1 C 18,3 C 67 % 1011,1 hPa 0,0 l/m 3,8 km/h (1 Bft) NO 37 1 min 0,000 mm 2,6 UV-I 653 W/m 12,8 C 19,1 C 4,8 km/h (1 Bft) 95,83 %
22.05.2018 10:00 19,2 C 18,3 C 67 % 1011,2 hPa 0,0 l/m 4,7 km/h (1 Bft) O-NO 70 1 min 0,000 mm 2,7 UV-I 660 W/m 12,9 C 19,2 C 8,0 km/h (2 Bft) 100,00 %
22.05.2018 10:01 19,3 C 18,3 C 69 % 1011,1 hPa 0,0 l/m 9,1 km/h (2 Bft) O-NO 65 1 min 0,356 mm 2,7 UV-I 674 W/m 13,5 C 18,2 C 12,9 km/h (3 Bft) 96,55 %
22.05.2018 10:02 19,4 C 18,3 C 67 % 1011,2 hPa 0,0 l/m 9,3 km/h (2 Bft) O-NO 58 1 min 0,000 mm 2,7 UV-I 679 W/m 13,1 C 18,2 C 14,5 km/h (3 Bft) 95,83 %
22.05.2018 10:03 19,4 C 18,3 C 67 % 1011,2 hPa 0,0 l/m 7,6 km/h (2 Bft) O 90 1 min 0,000 mm 2,7 UV-I 680 W/m 13,1 C 18,9 C 11,3 km/h (2 Bft) 100,00 %
22.05.2018 10:04 19,3 C 18,3 C 66 % 1011,2 hPa 0,0 l/m 8,3 km/h (2 Bft) O 88 1 min 0,000 mm 2,8 UV-I 680 W/m 12,8 C 18,5 C 11,3 km/h (2 Bft) 96,30 %
22.05.2018 10:05 19,3 C 18,3 C 66 % 1011,2 hPa 0,0 l/m 5,6 km/h (1 Bft) O 86 1 min 0,000 mm 2,8 UV-I 684 W/m 12,8 C 19,3 C 8,0 km/h (2 Bft) 96,15 %
22.05.2018 10:06 19,4 C 18,3 C 67 % 1011,2 hPa 0,0 l/m 7,4 km/h (2 Bft) O-NO 74 1 min 0,000 mm 2,8 UV-I 687 W/m 13,1 C 19,0 C 8,0 km/h (2 Bft) 93,33 %
22.05.2018 10:07 19,4 C 18,3 C 68 % 1011,2 hPa 0,0 l/m 6,4 km/h (2 Bft) O-NO 75 1 min 0,000 mm 2,8 UV-I 686 W/m 13,3 C 19,4 C 11,3 km/h (2 Bft) 100,00 %
22.05.2018 10:08 19,4 C 18,3 C 66 % 1011,2 hPa 0,0 l/m 5,5 km/h (1 Bft) NO 38 1 min 0,000 mm 2,8 UV-I 688 W/m 12,9 C 19,4 C 8,0 km/h (2 Bft) 95,83 %
22.05.2018 10:09 19,4 C 18,3 C 67 % 1011,2 hPa 0,0 l/m 4,8 km/h (1 Bft) N-NO 24 1 min 0,000 mm 2,9 UV-I 693 W/m 13,1 C 19,4 C 8,0 km/h (2 Bft) 100,00 %
22.05.2018 10:10 19,5 C 18,3 C 68 % 1011,2 hPa 0,0 l/m 5,2 km/h (1 Bft) O 100 1 min 0,000 mm 2,9 UV-I 688 W/m 13,4 C 19,5 C 11,3 km/h (2 Bft) 95,83 %
22.05.2018 10:11 19,6 C 18,3 C 66 % 1011,2 hPa 0,0 l/m 10,8 km/h (2 Bft) O-NO 65 1 min 0,000 mm 2,9 UV-I 693 W/m 13,1 C 17,9 C 14,5 km/h (3 Bft) 100,00 %
22.05.2018 10:12 19,6 C 18,3 C 65 % 1011,3 hPa 0,0 l/m 7,3 km/h (2 Bft) O-NO 77 1 min 0,000 mm 2,9 UV-I 683 W/m 12,8 C 19,2 C 8,0 km/h (2 Bft) 96,30 %
22.05.2018 10:13 19,6 C 18,3 C 66 % 1011,3 hPa 0,0 l/m 2,7 km/h (1 Bft) O-NO 78 1 min 0,000 mm 2,9 UV-I 681 W/m 13,1 C 19,6 C 6,4 km/h (2 Bft) 92,31 %
22.05.2018 10:14 19,5 C 18,3 C 65 % 1011,2 hPa 0,0 l/m 8,9 km/h (2 Bft) O-SO 104 1 min 0,000 mm 2,9 UV-I 689 W/m 12,7 C 18,5 C 12,9 km/h (3 Bft) 100,00 %
22.05.2018 10:15 19,6 C 18,3 C 64 % 1011,2 hPa 0,0 l/m 7,5 km/h (2 Bft) O-SO 105 1 min 0,000 mm 3,0 UV-I 696 W/m 12,6 C 19,1 C 11,3 km/h (2 Bft) 92,31 %
22.05.2018 10:16 19,4 C 18,3 C 63 % 1011,2 hPa 0,0 l/m 4,1 km/h (1 Bft) O-SO 108 1 min 0,000 mm 3,0 UV-I 700 W/m 12,2 C 19,4 C 6,4 km/h (2 Bft) 100,00 %
22.05.2018 10:17 19,4 C 18,3 C 64 % 1011,2 hPa 0,0 l/m 6,0 km/h (2 Bft) O 101 1 min 0,000 mm 3,0 UV-I 698 W/m 12,4 C 19,4 C 11,3 km/h (2 Bft) 95,00 %
22.05.2018 10:18 19,3 C 18,3 C 64 % 1011,2 hPa 0,0 l/m 7,6 km/h (2 Bft) O-SO 112 1 min 0,000 mm 3,0 UV-I 706 W/m 12,3 C 18,8 C 12,9 km/h (3 Bft) 93,33 %
22.05.2018 10:19 19,3 C 18,3 C 63 % 1011,3 hPa 0,0 l/m 7,5 km/h (2 Bft) O 100 1 min 0,000 mm 3,0 UV-I 708 W/m 12,1 C 18,8 C 12,9 km/h (3 Bft) 97,37 %
22.05.2018 10:20 19,4 C 18,3 C 63 % 1011,2 hPa 0,0 l/m 6,5 km/h (2 Bft) O 101 1 min 0,000 mm 3,1 UV-I 706 W/m 12,2 C 19,4 C 11,3 km/h (2 Bft) 100,00 %
22.05.2018 10:21 19,5 C 18,3 C 64 % 1011,2 hPa 0,0 l/m 2,7 km/h (1 Bft) O 101 1 min 0,000 mm 3,1 UV-I 708 W/m 12,5 C 19,5 C 4,8 km/h (1 Bft) 92,31 %
22.05.2018 10:22 19,6 C 18,3 C 64 % 1011,2 hPa 0,0 l/m 1,4 km/h (1 Bft) O-NO 59 1 min 0,000 mm 3,1 UV-I 710 W/m 12,6 C 19,6 C 6,4 km/h (2 Bft) 93,33 %
22.05.2018 10:23 19,7 C 18,3 C 68 % 1011,2 hPa 0,0 l/m 11,1 km/h (2 Bft) O 82 1 min 0,000 mm 3,1 UV-I 717 W/m 13,6 C 18,0 C 14,5 km/h (3 Bft) 100,00 %
22.05.2018 10:24 19,9 C 18,3 C 66 % 1011,2 hPa 0,0 l/m 6,0 km/h (2 Bft) O-NO 76 1 min 0,000 mm 3,1 UV-I 709 W/m 13,4 C 19,9 C 11,3 km/h (2 Bft) 96,55 %
22.05.2018 10:25 19,8 C 18,3 C 65 % 1011,2 hPa 0,0 l/m 5,4 km/h (1 Bft) O-SO 116 1 min 0,000 mm 3,1 UV-I 706 W/m 13,0 C 19,8 C 9,7 km/h (2 Bft) 93,33 %
22.05.2018 10:26 19,8 C 18,3 C 63 % 1011,2 hPa 0,0 l/m 5,4 km/h (1 Bft) O-NO 61 1 min 0,000 mm 3,1 UV-I 713 W/m 12,5 C 19,8 C 12,9 km/h (3 Bft) 95,12 %
22.05.2018 10:27 19,9 C 18,3 C 64 % 1011,2 hPa 0,0 l/m 6,4 km/h (2 Bft) NO 44 1 min 0,000 mm 3,2 UV-I 721 W/m 12,9 C 19,9 C 9,7 km/h (2 Bft) 93,33 %
22.05.2018 10:28 19,8 C 18,3 C 68 % 1011,2 hPa 0,0 l/m 6,2 km/h (2 Bft) O 96 1 min 0,000 mm 3,2 UV-I 733 W/m 13,7 C 19,8 C 8,0 km/h (2 Bft) 96,55 %
22.05.2018 10:29 19,9 C 18,3 C 65 % 1011,2 hPa 0,0 l/m 6,0 km/h (2 Bft) O-SO 105 1 min 0,000 mm 3,2 UV-I 731 W/m 13,1 C 19,9 C 11,3 km/h (2 Bft) 96,30 %
22.05.2018 10:30 19,9 C 18,3 C 63 % 1011,2 hPa 0,0 l/m 7,2 km/h (2 Bft) O 80 1 min 0,000 mm 3,2 UV-I 722 W/m 12,6 C 19,6 C 12,9 km/h (3 Bft) 96,15 %
22.05.2018 10:31 19,9 C 18,3 C 64 % 1011,3 hPa 0,0 l/m 7,1 km/h (2 Bft) O 83 1 min 0,000 mm 3,1 UV-I 697 W/m 12,9 C 19,6 C 11,3 km/h (2 Bft) 100,00 %
22.05.2018 10:32 19,9 C 18,3 C 62 % 1011,3 hPa 0,0 l/m 7,1 km/h (2 Bft) O-SO 122 1 min 0,000 mm 3,1 UV-I 688 W/m 12,4 C 19,6 C 11,3 km/h (2 Bft) 91,30 %
22.05.2018 10:33 19,9 C 18,3 C 61 % 1011,2 hPa 0,0 l/m 6,7 km/h (2 Bft) NO 44 1 min 0,000 mm 3,2 UV-I 671 W/m 12,2 C 19,8 C 11,3 km/h (2 Bft) 100,00 %
22.05.2018 10:34 19,9 C 18,3 C 66 % 1011,2 hPa 0,0 l/m 7,4 km/h (2 Bft) NO 39 1 min 0,000 mm 3,2 UV-I 701 W/m 13,4 C 19,5 C 8,0 km/h (2 Bft) 92,31 %
22.05.2018 10:35 20,1 C 18,3 C 67 % 1011,2 hPa 0,0 l/m 9,5 km/h (2 Bft) O 81 1 min 0,000 mm 3,2 UV-I 708 W/m 13,8 C 18,9 C 12,9 km/h (3 Bft) 100,00 %
22.05.2018 10:36 20,2 C 18,3 C 65 % 1011,2 hPa 0,0 l/m 6,7 km/h (2 Bft) NO 40 1 min 0,000 mm 3,2 UV-I 702 W/m 13,4 C 20,1 C 9,7 km/h (2 Bft) 94,12 %
22.05.2018 10:37 20,1 C 18,3 C 64 % 1011,2 hPa 0,0 l/m 5,5 km/h (1 Bft) O 81 1 min 0,000 mm 3,3 UV-I 705 W/m 13,1 C 20,1 C 8,0 km/h (2 Bft) 100,00 %
22.05.2018 10:38 20,1 C 18,3 C 65 % 1011,2 hPa 0,0 l/m 4,8 km/h (1 Bft) O 85 1 min 0,000 mm 3,3 UV-I 712 W/m 13,3 C 20,1 C 6,4 km/h (2 Bft) 95,65 %
22.05.2018 10:39 20,0 C 18,3 C 65 % 1011,2 hPa 0,0 l/m 8,9 km/h (2 Bft) O-NO 60 1 min 0,000 mm 3,3 UV-I 719 W/m 13,2 C 19,0 C 14,5 km/h (3 Bft) 95,83 %
22.05.2018 10:40 20,0 C 18,3 C 65 % 1011,2 hPa 0,0 l/m 11,3 km/h (2 Bft) NO 51 1 min 0,000 mm 3,3 UV-I 716 W/m 13,2 C 18,2 C 16,1 km/h (3 Bft) 100,00 %
22.05.2018 10:41 20,1 C 18,3 C 66 % 1011,2 hPa 0,0 l/m 7,3 km/h (2 Bft) NO 40 1 min 0,000 mm 3,3 UV-I 717 W/m 13,5 C 19,7 C 9,7 km/h (2 Bft) 95,83 %
22.05.2018 10:42 20,3 C 18,3 C 66 % 1011,2 hPa 0,0 l/m 10,5 km/h (2 Bft) O 84 1 min 0,000 mm 3,4 UV-I 724 W/m 13,7 C 18,8 C 14,5 km/h (3 Bft) 100,00 %
22.05.2018 10:43 20,4 C 18,3 C 64 % 1011,2 hPa 0,0 l/m 9,9 km/h (2 Bft) O 84 1 min 0,000 mm 3,4 UV-I 727 W/m 13,4 C 19,1 C 12,9 km/h (3 Bft) 96,15 %
22.05.2018 10:44 20,4 C 18,3 C 61 % 1011,2 hPa 0,0 l/m 7,2 km/h (2 Bft) O 80 1 min 0,000 mm 3,4 UV-I 731 W/m 12,6 C 20,1 C 11,3 km/h (2 Bft) 96,15 %
22.05.2018 10:45 20,3 C 18,3 C 63 % 1011,2 hPa 0,0 l/m 3,7 km/h (1 Bft) NO 48 1 min 0,000 mm 3,5 UV-I 736 W/m 13,0 C 20,3 C 8,0 km/h (2 Bft) 100,00 %
22.05.2018 10:46 20,3 C 18,3 C 64 % 1011,2 hPa 0,0 l/m 10,4 km/h (2 Bft) NO 54 1 min 0,000 mm 3,5 UV-I 738 W/m 13,3 C 18,8 C 14,5 km/h (3 Bft) 96,30 %
22.05.2018 10:47 20,3 C 18,3 C 64 % 1011,2 hPa 0,0 l/m 8,4 km/h (2 Bft) O 84 1 min 0,000 mm 3,5 UV-I 748 W/m 13,3 C 19,5 C 11,3 km/h (2 Bft) 100,00 %
22.05.2018 10:48 20,3 C 18,3 C 62 % 1011,1 hPa 0,0 l/m 6,8 km/h (2 Bft) N-NO 26 1 min 0,000 mm 3,5 UV-I 750 W/m 12,8 C 20,1 C 9,7 km/h (2 Bft) 100,00 %
22.05.2018 10:49 20,5 C 18,3 C 62 % 1011,1 hPa 0,0 l/m 6,7 km/h (2 Bft) NO 44 1 min 0,000 mm 3,5 UV-I 744 W/m 13,0 C 20,4 C 8,0 km/h (2 Bft) 96,88 %
22.05.2018 10:50 20,6 C 18,3 C 65 % 1011,1 hPa 0,0 l/m 6,4 km/h (2 Bft) NO 40 1 min 0,000 mm 3,5 UV-I 743 W/m 13,8 C 20,6 C 9,7 km/h (2 Bft) 95,83 %
22.05.2018 10:51 20,7 C 18,3 C 64 % 1011,1 hPa 0,0 l/m 5,2 km/h (1 Bft) O-NO 59 1 min 0,000 mm 3,5 UV-I 742 W/m 13,6 C 20,7 C 11,3 km/h (2 Bft) 96,15 %
22.05.2018 10:52 20,8 C 18,3 C 64 % 1011,1 hPa 0,0 l/m 10,6 km/h (2 Bft) O-NO 63 1 min 0,000 mm 3,5 UV-I 730 W/m 13,7 C 19,3 C 14,5 km/h (3 Bft) 100,00 %
22.05.2018 10:53 20,9 C 18,3 C 66 % 1011,1 hPa 0,0 l/m 8,9 km/h (2 Bft) NO 48 1 min 0,000 mm 3,4 UV-I 757 W/m 14,3 C 20,0 C 14,5 km/h (3 Bft) 96,55 %
22.05.2018 10:54 20,9 C 18,3 C 61 % 1011,1 hPa 0,0 l/m 5,4 km/h (1 Bft) O-NO 59 1 min 0,000 mm 3,6 UV-I 755 W/m 13,1 C 20,9 C 9,7 km/h (2 Bft) 95,83 %
22.05.2018 10:55 20,9 C 18,3 C 62 % 1011,1 hPa 0,0 l/m 8,8 km/h (2 Bft) O-NO 63 1 min 0,000 mm 3,6 UV-I 745 W/m 13,3 C 20,0 C 11,3 km/h (2 Bft) 100,00 %
22.05.2018 10:56 21,0 C 18,3 C 62 % 1011,1 hPa 0,0 l/m 9,5 km/h (2 Bft) NO 47 1 min 0,000 mm 3,5 UV-I 734 W/m 13,4 C 19,9 C 14,5 km/h (3 Bft) 100,00 %
22.05.2018 10:57 21,1 C 18,3 C 64 % 1011,1 hPa 0,0 l/m 8,0 km/h (2 Bft) O-NO 69 1 min 0,000 mm 3,6 UV-I 751 W/m 14,0 C 20,5 C 11,3 km/h (2 Bft) 91,30 %
22.05.2018 10:58 21,2 C 18,3 C 62 % 1011,1 hPa 0,0 l/m 9,2 km/h (2 Bft) NO 55 1 min 0,000 mm 3,7 UV-I 772 W/m 13,6 C 20,2 C 14,5 km/h (3 Bft) 100,00 %
22.05.2018 10:59 21,1 C 18,3 C 60 % 1011,1 hPa 0,0 l/m 6,9 km/h (2 Bft) NO 40 1 min 0,000 mm 3,7 UV-I 776 W/m 13,0 C 20,9 C 9,7 km/h (2 Bft) 100,00 %
22.05.2018 11:00 21,2 C 18,3 C 62 % 1011,1 hPa 0,0 l/m 4,0 km/h (1 Bft) NO 35 1 min 0,457 mm 3,7 UV-I 757 W/m 13,6 C 21,2 C 4,8 km/h (1 Bft) 100,00 %
22.05.2018 11:02 21,2 C 18,3 C 59 % 1011,1 hPa 0,0 l/m 9,9 km/h (2 Bft) O-NO 65 2 min 0,000 mm 3,6 UV-I 709 W/m 12,9 C 20,0 C 12,9 km/h (3 Bft) 100,00 %
22.05.2018 11:03 21,2 C 18,3 C 61 % 1011,1 hPa 0,0 l/m 8,0 km/h (2 Bft) O-NO 69 1 min 0,000 mm 3,7 UV-I 738 W/m 13,4 C 20,6 C 9,7 km/h (2 Bft) 100,00 %
22.05.2018 11:04 21,2 C 18,3 C 61 % 1011,1 hPa 0,0 l/m 8,3 km/h (2 Bft) O 84 1 min 0,000 mm 3,7 UV-I 744 W/m 13,4 C 20,5 C 11,3 km/h (2 Bft) 100,00 %
22.05.2018 11:05 21,2 C 18,3 C 60 % 1011,2 hPa 0,0 l/m 6,9 km/h (2 Bft) O 90 1 min 0,000 mm 3,7 UV-I 769 W/m 13,1 C 21,0 C 9,7 km/h (2 Bft) 100,00 %
22.05.2018 11:06 21,2 C 18,3 C 60 % 1011,1 hPa 0,0 l/m 7,6 km/h (2 Bft) O 90 1 min 0,000 mm 3,8 UV-I 784 W/m 13,1 C 20,8 C 12,9 km/h (3 Bft) 100,00 %
22.05.2018 11:07 21,2 C 18,3 C 57 % 1011,1 hPa 0,0 l/m 8,1 km/h (2 Bft) O 101 1 min 0,000 mm 3,8 UV-I 765 W/m 12,3 C 20,6 C 11,3 km/h (2 Bft) 100,00 %
22.05.2018 11:08 21,2 C 18,3 C 56 % 1011,1 hPa 0,0 l/m 11,8 km/h (2 Bft) O-NO 68 1 min 0,000 mm 3,9 UV-I 785 W/m 12,1 C 19,5 C 14,5 km/h (3 Bft) 100,00 %
22.05.2018 11:09 21,3 C 18,3 C 59 % 1011,1 hPa 0,0 l/m 9,5 km/h (2 Bft) NO 40 1 min 0,000 mm 3,9 UV-I 800 W/m 13,0 C 20,2 C 14,5 km/h (3 Bft) 100,00 %
22.05.2018 11:10 21,4 C 18,3 C 58 % 1011,1 hPa 0,0 l/m 8,5 km/h (2 Bft) O-NO 58 1 min 0,000 mm 3,9 UV-I 801 W/m 12,8 C 20,7 C 11,3 km/h (2 Bft) 100,00 %
22.05.2018 11:11 21,6 C 18,3 C 59 % 1011,1 hPa 0,0 l/m 11,4 km/h (2 Bft) O-NO 68 1 min 0,000 mm 3,9 UV-I 795 W/m 13,2 C 20,0 C 14,5 km/h (3 Bft) 100,00 %
22.05.2018 11:13 21,5 C 18,3 C 55 % 1011,1 hPa 0,0 l/m 6,4 km/h (2 Bft) O 97 2 min 0,000 mm 3,9 UV-I 766 W/m 12,1 C 21,5 C 12,9 km/h (3 Bft) 100,00 %
22.05.2018 11:14 21,4 C 18,3 C 57 % 1011,1 hPa 0,0 l/m 5,6 km/h (1 Bft) O-NO 72 1 min 0,000 mm 3,8 UV-I 717 W/m 12,5 C 21,4 C 16,1 km/h (3 Bft) 100,00 %
22.05.2018 11:15 21,3 C 18,3 C 57 % 1011,1 hPa 0,0 l/m 12,6 km/h (3 Bft) O-NO 72 1 min 0,000 mm 3,8 UV-I 744 W/m 12,4 C 19,4 C 14,5 km/h (3 Bft) 100,00 %
22.05.2018 11:16 21,3 C 18,3 C 58 % 1011,1 hPa 0,0 l/m 10,2 km/h (2 Bft) O-SO 103 1 min 0,000 mm 3,9 UV-I 754 W/m 12,7 C 20,0 C 14,5 km/h (3 Bft) 100,00 %
22.05.2018 11:17 21,3 C 18,3 C 56 % 1011,1 hPa 0,0 l/m 7,8 km/h (2 Bft) O-NO 74 1 min 0,000 mm 3,9 UV-I 761 W/m 12,2 C 20,8 C 14,5 km/h (3 Bft) 100,00 %
22.05.2018 11:18 21,3 C 18,3 C 56 % 1011,1 hPa 0,0 l/m 5,6 km/h (1 Bft) O-SO 123 1 min 0,000 mm 4,0 UV-I 797 W/m 12,2 C 21,3 C 8,0 km/h (2 Bft) 100,00 %
22.05.2018 11:19 21,3 C 18,3 C 55 % 1011,1 hPa 0,0 l/m 6,2 km/h (2 Bft) O 92 1 min 0,000 mm 4,1 UV-I 798 W/m 11,9 C 21,3 C 12,9 km/h (3 Bft) 100,00 %
22.05.2018 11:20 21,4 C 18,3 C 58 % 1011,0 hPa 0,0 l/m 7,2 km/h (2 Bft) O-NO 66 1 min 0,000 mm 4,1 UV-I 821 W/m 12,8 C 21,1 C 9,7 km/h (2 Bft) 100,00 %
22.05.2018 11:21 21,4 C 18,3 C 58 % 1011,1 hPa 0,0 l/m 3,7 km/h (1 Bft) O-NO 68 1 min 0,000 mm 4,1 UV-I 826 W/m 12,8 C 21,4 C 6,4 km/h (2 Bft) 100,00 %
22.05.2018 11:22 21,5 C 18,3 C 60 % 1011,0 hPa 0,0 l/m 7,6 km/h (2 Bft) N-NO 28 1 min 0,000 mm 4,1 UV-I 817 W/m 13,4 C 21,1 C 9,7 km/h (2 Bft) 100,00 %
22.05.2018 11:23 21,7 C 18,3 C 63 % 1011,0 hPa 0,0 l/m 9,2 km/h (2 Bft) N-NO 26 1 min 0,000 mm 4,2 UV-I 822 W/m 14,3 C 20,8 C 12,9 km/h (3 Bft) 100,00 %
22.05.2018 11:24 21,9 C 18,3 C 61 % 1011,0 hPa 0,0 l/m 8,2 km/h (2 Bft) O-NO 73 1 min 0,000 mm 4,2 UV-I 831 W/m 14,0 C 21,3 C 12,9 km/h (3 Bft) 100,00 %
22.05.2018 11:25 22,1 C 18,3 C 63 % 1011,0 hPa 0,0 l/m 6,4 km/h (2 Bft) O-NO 63 1 min 0,000 mm 4,2 UV-I 829 W/m 14,7 C 22,1 C 8,0 km/h (2 Bft) 100,00 %
22.05.2018 11:26 22,1 C 18,3 C 58 % 1011,0 hPa 0,0 l/m 9,9 km/h (2 Bft) O-NO 59 1 min 0,000 mm 4,2 UV-I 825 W/m 13,4 C 21,0 C 14,5 km/h (3 Bft) 100,00 %
22.05.2018 11:27 22,1 C 18,3 C 56 % 1011,0 hPa 0,0 l/m 10,7 km/h (2 Bft) O 86 1 min 0,000 mm 4,2 UV-I 833 W/m 12,9 C 20,8 C 16,1 km/h (3 Bft) 100,00 %
22.05.2018 11:28 22,1 C 18,3 C 55 % 1011,0 hPa 0,0 l/m 8,6 km/h (2 Bft) NO 56 1 min 0,000 mm 4,3 UV-I 840 W/m 12,6 C 21,4 C 14,5 km/h (3 Bft) 100,00 %
22.05.2018 11:29 22,1 C 18,3 C 56 % 1011,0 hPa 0,0 l/m 8,0 km/h (2 Bft) O 94 1 min 0,000 mm 4,3 UV-I 852 W/m 12,9 C 21,6 C 11,3 km/h (2 Bft) 98,06 %
22.05.2018 11:30 21,9 C 18,3 C 55 % 1011,0 hPa 0,0 l/m 5,4 km/h (1 Bft) O-SO 107 1 min 0,000 mm 4,3 UV-I 854 W/m 12,4 C 21,9 C 9,7 km/h (2 Bft) 97,56 %
22.05.2018 11:31 21,9 C 18,3 C 57 % 1011,0 hPa 0,0 l/m 5,8 km/h (2 Bft) O-SO 123 1 min 0,000 mm 4,4 UV-I 855 W/m 13,0 C 21,9 C 9,7 km/h (2 Bft) 100,00 %
22.05.2018 11:32 21,9 C 18,3 C 56 % 1011,0 hPa 0,0 l/m 6,5 km/h (2 Bft) O-SO 108 1 min 0,000 mm 4,4 UV-I 840 W/m 12,7 C 21,9 C 11,3 km/h (2 Bft) 100,00 %
22.05.2018 11:33 22,0 C 18,3 C 57 % 1011,0 hPa 0,0 l/m 10,3 km/h (2 Bft) O-SO 109 1 min 0,000 mm 4,4 UV-I 869 W/m 13,1 C 20,8 C 14,5 km/h (3 Bft) 100,00 %
22.05.2018 11:34 22,1 C 18,3 C 57 % 1011,0 hPa 0,0 l/m 12,2 km/h (2 Bft) O-SO 105 1 min 0,000 mm 4,5 UV-I 878 W/m 13,2 C 20,4 C 14,5 km/h (3 Bft) 100,00 %
22.05.2018 11:35 22,2 C 18,3 C 56 % 1011,0 hPa 0,0 l/m 7,6 km/h (2 Bft) SO 127 1 min 0,000 mm 4,5 UV-I 884 W/m 13,0 C 21,8 C 11,3 km/h (2 Bft) 100,00 %
22.05.2018 11:36 22,2 C 18,3 C 54 % 1010,9 hPa 0,0 l/m 4,7 km/h (1 Bft) O 92 1 min 0,000 mm 4,5 UV-I 893 W/m 12,4 C 22,2 C 9,7 km/h (2 Bft) 100,00 %
22.05.2018 11:37 22,3 C 18,3 C 55 % 1011,0 hPa 0,0 l/m 6,5 km/h (2 Bft) O 100 1 min 0,000 mm 4,6 UV-I 906 W/m 12,8 C 22,3 C 9,7 km/h (2 Bft) 100,00 %
22.05.2018 11:38 22,4 C 18,3 C 55 % 1011,0 hPa 0,0 l/m 12,4 km/h (3 Bft) O-SO 104 1 min 0,000 mm 4,6 UV-I 913 W/m 12,9 C 20,7 C 16,1 km/h (3 Bft) 100,00 %
22.05.2018 11:39 22,5 C 18,3 C 52 % 1011,0 hPa 0,0 l/m 9,7 km/h (2 Bft) NO 56 1 min 0,000 mm 4,7 UV-I 918 W/m 12,1 C 21,5 C 12,9 km/h (3 Bft) 100,00 %
22.05.2018 11:40 22,5 C 18,3 C 55 % 1011,0 hPa 0,0 l/m 7,9 km/h (2 Bft) O-NO 76 1 min 0,000 mm 4,7 UV-I 920 W/m 13,0 C 22,0 C 11,3 km/h (2 Bft) 100,00 %
22.05.2018 11:41 22,5 C 18,3 C 56 % 1011,0 hPa 0,0 l/m 7,5 km/h (2 Bft) NO 34 1 min 0,000 mm 4,7 UV-I 928 W/m 13,3 C 22,1 C 11,3 km/h (2 Bft) 100,00 %
22.05.2018 11:42 22,6 C 18,9 C 56 % 1011,0 hPa 0,0 l/m 6,4 km/h (2 Bft) O-NO 74 1 min 0,000 mm 4,7 UV-I 930 W/m 13,4 C 22,6 C 9,7 km/h (2 Bft) 100,00 %
22.05.2018 11:43 22,7 C 18,3 C 58 % 1011,0 hPa 0,0 l/m 12,8 km/h (3 Bft) O-SO 103 1 min 0,000 mm 4,8 UV-I 932 W/m 14,0 C 21,0 C 17,7 km/h (3 Bft) 100,00 %
22.05.2018 11:44 22,7 C 18,9 C 53 % 1010,9 hPa 0,0 l/m 10,1 km/h (2 Bft) SO 126 1 min 0,000 mm 4,7 UV-I 930 W/m 12,6 C 21,6 C 14,5 km/h (3 Bft) 100,00 %
22.05.2018 11:45 22,8 C 18,3 C 55 % 1011,0 hPa 0,0 l/m 9,2 km/h (2 Bft) NO 49 1 min 0,000 mm 4,7 UV-I 924 W/m 13,3 C 21,9 C 14,5 km/h (3 Bft) 100,00 %
22.05.2018 11:46 22,9 C 18,3 C 57 % 1011,0 hPa 0,0 l/m 5,9 km/h (2 Bft) O-NO 57 1 min 0,000 mm 4,7 UV-I 919 W/m 13,9 C 22,9 C 8,0 km/h (2 Bft) 100,00 %
22.05.2018 11:47 23,1 C 18,9 C 55 % 1010,9 hPa 0,0 l/m 9,1 km/h (2 Bft) O-NO 70 1 min 0,000 mm 4,7 UV-I 921 W/m 13,6 C 22,3 C 12,9 km/h (3 Bft) 100,00 %
22.05.2018 11:48 23,2 C 18,9 C 55 % 1010,9 hPa 0,0 l/m 7,1 km/h (2 Bft) NO 34 1 min 0,000 mm 4,7 UV-I 915 W/m 13,6 C 23,0 C 9,7 km/h (2 Bft) 100,00 %
22.05.2018 11:49 23,2 C 18,9 C 54 % 1010,9 hPa 0,0 l/m 12,5 km/h (3 Bft) O-NO 67 1 min 0,000 mm 4,6 UV-I 907 W/m 13,4 C 21,6 C 19,3 km/h (3 Bft) 100,00 %
22.05.2018 11:50 23,1 C 18,9 C 55 % 1010,9 hPa 0,0 l/m 12,3 km/h (3 Bft) NO 48 1 min 0,000 mm 4,5 UV-I 862 W/m 13,6 C 21,5 C 16,1 km/h (3 Bft) 100,00 %
22.05.2018 11:51 23,1 C 18,9 C 57 % 1010,9 hPa 0,0 l/m 15,2 km/h (3 Bft) NO 38 1 min 0,000 mm 4,6 UV-I 878 W/m 14,1 C 21,0 C 17,7 km/h (3 Bft) 100,00 %
22.05.2018 11:53 22,8 C 18,9 C 55 % 1010,9 hPa 0,0 l/m 9,5 km/h (2 Bft) NO 49 2 min 0,000 mm 4,6 UV-I 872 W/m 13,3 C 21,9 C 16,1 km/h (3 Bft) 98,00 %
22.05.2018 11:54 22,6 C 18,9 C 57 % 1010,9 hPa 0,0 l/m 11,0 km/h (2 Bft) N-NO 29 1 min 0,000 mm 4,5 UV-I 860 W/m 13,6 C 21,3 C 14,5 km/h (3 Bft) 100,00 %
22.05.2018 11:55 22,5 C 18,9 C 58 % 1010,8 hPa 0,0 l/m 10,6 km/h (2 Bft) O-NO 62 1 min 0,000 mm 4,6 UV-I 872 W/m 13,8 C 21,2 C 14,5 km/h (3 Bft) 100,00 %
22.05.2018 11:56 22,6 C 18,9 C 59 % 1010,9 hPa 0,0 l/m 12,5 km/h (3 Bft) NO 49 1 min 0,000 mm 4,6 UV-I 883 W/m 14,2 C 20,9 C 17,7 km/h (3 Bft) 100,00 %
22.05.2018 11:58 22,8 C 18,9 C 57 % 1010,8 hPa 0,0 l/m 17,0 km/h (3 Bft) NO 40 2 min 0,000 mm 4,7 UV-I 911 W/m 13,8 C 20,3 C 22,5 km/h (4 Bft) 98,28 %
22.05.2018 11:59 22,9 C 18,9 C 59 % 1010,8 hPa 0,0 l/m 14,1 km/h (3 Bft) NO 46 1 min 0,000 mm 4,7 UV-I 908 W/m 14,5 C 20,9 C 16,1 km/h (3 Bft) 98,17 %
22.05.2018 12:00 22,8 C 18,9 C 56 % 1010,9 hPa 0,0 l/m 11,8 km/h (2 Bft) NO 41 1 min 0,559 mm 4,4 UV-I 900 W/m 13,6 C 21,3 C 16,1 km/h (3 Bft) 95,24 %
22.05.2018 12:02 22,8 C 18,9 C 57 % 1010,8 hPa 0,0 l/m 9,1 km/h (2 Bft) NO 40 2 min 0,000 mm 3,9 UV-I 820 W/m 13,8 C 22,0 C 14,5 km/h (3 Bft) 96,00 %
22.05.2018 12:03 22,8 C 18,9 C 59 % 1010,8 hPa 0,0 l/m 9,0 km/h (2 Bft) O-NO 68 1 min 0,000 mm 3,6 UV-I 740 W/m 14,4 C 22,0 C 11,3 km/h (2 Bft) 95,65 %
22.05.2018 12:04 22,9 C 18,9 C 54 % 1010,8 hPa 0,0 l/m 9,1 km/h (2 Bft) O-NO 70 1 min 0,000 mm 4,1 UV-I 740 W/m 13,1 C 22,1 C 16,1 km/h (3 Bft) 100,00 %
22.05.2018 12:05 22,9 C 18,9 C 49 % 1010,8 hPa 0,0 l/m 11,0 km/h (2 Bft) O 92 1 min 0,000 mm 4,4 UV-I 800 W/m 11,6 C 21,6 C 14,5 km/h (3 Bft) 100,00 %
22.05.2018 12:06 22,9 C 18,9 C 52 % 1010,8 hPa 0,0 l/m 9,9 km/h (2 Bft) O-NO 67 1 min 0,000 mm 4,6 UV-I 895 W/m 12,5 C 21,9 C 12,9 km/h (3 Bft) 100,00 %
22.05.2018 12:07 23,1 C 18,9 C 52 % 1010,8 hPa 0,0 l/m 9,4 km/h (2 Bft) O 98 1 min 0,000 mm 4,7 UV-I 890 W/m 12,7 C 22,2 C 14,5 km/h (3 Bft) 100,00 %
22.05.2018 12:08 23,2 C 18,9 C 54 % 1010,8 hPa 0,0 l/m 7,9 km/h (2 Bft) N-NO 20 1 min 0,000 mm 4,6 UV-I 827 W/m 13,4 C 22,7 C 12,9 km/h (3 Bft) 100,00 %
22.05.2018 12:09 23,3 C 18,9 C 56 % 1010,8 hPa 0,0 l/m 12,3 km/h (3 Bft) O-NO 68 1 min 0,000 mm 4,6 UV-I 856 W/m 14,0 C 21,8 C 16,1 km/h (3 Bft) 100,00 %
22.05.2018 12:10 23,3 C 18,9 C 54 % 1010,8 hPa 0,0 l/m 11,9 km/h (2 Bft) O-NO 73 1 min 0,000 mm 4,5 UV-I 844 W/m 13,5 C 21,9 C 14,5 km/h (3 Bft) 96,30 %
22.05.2018 12:11 23,4 C 18,9 C 51 % 1010,8 hPa 0,0 l/m 12,2 km/h (2 Bft) N-NO 28 1 min 0,000 mm 4,4 UV-I 827 W/m 12,7 C 21,9 C 16,1 km/h (3 Bft) 98,16 %
22.05.2018 12:12 23,4 C 18,9 C 49 % 1010,8 hPa 0,0 l/m 11,6 km/h (2 Bft) N-NO 31 1 min 0,000 mm 4,5 UV-I 854 W/m 12,1 C 22,0 C 14,5 km/h (3 Bft) 100,00 %
22.05.2018 12:13 23,5 C 18,9 C 48 % 1010,8 hPa 0,0 l/m 8,2 km/h (2 Bft) O-NO 58 1 min 0,000 mm 4,4 UV-I 838 W/m 11,8 C 23,0 C 11,3 km/h (2 Bft) 96,15 %
22.05.2018 12:14 23,5 C 18,9 C 48 % 1010,8 hPa 0,0 l/m 14,5 km/h (3 Bft) O 86 1 min 0,000 mm 4,1 UV-I 772 W/m 11,8 C 21,6 C 19,3 km/h (3 Bft) 100,00 %
22.05.2018 12:15 23,5 C 18,9 C 44 % 1010,8 hPa 0,0 l/m 11,8 km/h (2 Bft) O-NO 69 1 min 0,000 mm 4,4 UV-I 851 W/m 10,5 C 22,1 C 14,5 km/h (3 Bft) 96,30 %
22.05.2018 12:16 23,4 C 18,9 C 46 % 1010,8 hPa 0,0 l/m 11,1 km/h (2 Bft) O 81 1 min 0,000 mm 4,7 UV-I 886 W/m 11,1 C 22,1 C 16,1 km/h (3 Bft) 96,15 %
22.05.2018 12:17 23,4 C 18,9 C 50 % 1010,8 hPa 0,0 l/m 13,1 km/h (3 Bft) O 87 1 min 0,000 mm 4,8 UV-I 909 W/m 12,4 C 21,7 C 16,1 km/h (3 Bft) 100,00 %
22.05.2018 12:18 23,5 C 18,9 C 46 % 1010,8 hPa 0,0 l/m 10,3 km/h (2 Bft) O-NO 60 1 min 0,000 mm 4,6 UV-I 847 W/m 11,2 C 22,4 C 14,5 km/h (3 Bft) 95,65 %
22.05.2018 12:19 23,5 C 18,9 C 45 % 1010,7 hPa 0,0 l/m 12,3 km/h (3 Bft) O-NO 65 1 min 0,000 mm 4,1 UV-I 778 W/m 10,9 C 22,0 C 20,9 km/h (4 Bft) 100,00 %
22.05.2018 12:20 23,4 C 18,9 C 43 % 1010,8 hPa 0,0 l/m 15,2 km/h (3 Bft) O-NO 72 1 min 0,000 mm 3,8 UV-I 770 W/m 10,1 C 21,3 C 17,7 km/h (3 Bft) 95,65 %
22.05.2018 12:21 23,3 C 18,9 C 44 % 1010,8 hPa 0,0 l/m 13,5 km/h (3 Bft) O 82 1 min 0,000 mm 3,5 UV-I 497 W/m 10,4 C 21,5 C 16,1 km/h (3 Bft) 100,00 %
22.05.2018 12:22 23,2 C 18,9 C 44 % 1010,8 hPa 0,0 l/m 8,8 km/h (2 Bft) O 89 1 min 0,000 mm 3,6 UV-I 497 W/m 10,3 C 22,5 C 14,5 km/h (3 Bft) 96,55 %
22.05.2018 12:23 23,2 C 18,9 C 46 % 1010,7 hPa 0,0 l/m 9,0 km/h (2 Bft) O-NO 78 1 min 0,000 mm 4,6 UV-I 497 W/m 10,9 C 22,4 C 14,5 km/h (3 Bft) 96,30 %
22.05.2018 12:24 23,2 C 18,9 C 46 % 1010,7 hPa 0,0 l/m 8,6 km/h (2 Bft) NO 42 1 min 0,000 mm 4,3 UV-I 497 W/m 10,9 C 22,5 C 11,3 km/h (2 Bft) 100,00 %
22.05.2018 12:25 23,2 C 18,9 C 47 % 1010,7 hPa 0,0 l/m 6,7 km/h (2 Bft) O-SO 123 1 min 0,000 mm 3,9 UV-I 697 W/m 11,3 C 23,1 C 11,3 km/h (2 Bft) 93,33 %
22.05.2018 12:26 23,3 C 18,9 C 45 % 1010,7 hPa 0,0 l/m 12,5 km/h (3 Bft) O-SO 107 1 min 0,000 mm 4,1 UV-I 781 W/m 10,7 C 21,7 C 16,1 km/h (3 Bft) 100,00 %
22.05.2018 12:27 23,3 C 18,9 C 44 % 1010,7 hPa 0,0 l/m 12,7 km/h (3 Bft) O-NO 59 1 min 0,000 mm 4,5 UV-I 808 W/m 10,4 C 21,7 C 19,3 km/h (3 Bft) 91,67 %
22.05.2018 12:28 23,4 C 18,9 C 47 % 1010,7 hPa 0,0 l/m 15,0 km/h (3 Bft) O-NO 74 1 min 0,000 mm 4,6 UV-I 850 W/m 11,4 C 21,4 C 19,3 km/h (3 Bft) 100,00 %
22.05.2018 12:29 23,4 C 18,9 C 46 % 1010,7 hPa 0,0 l/m 9,7 km/h (2 Bft) O-NO 58 1 min 0,000 mm 4,7 UV-I 868 W/m 11,1 C 22,5 C 14,5 km/h (3 Bft) 96,67 %
22.05.2018 12:30 23,4 C 18,9 C 44 % 1010,7 hPa 0,0 l/m 10,7 km/h (2 Bft) O-NO 69 1 min 0,000 mm 4,7 UV-I 859 W/m 10,4 C 22,2 C 12,9 km/h (3 Bft) 95,65 %
22.05.2018 12:31 23,5 C 18,9 C 48 % 1010,7 hPa 0,0 l/m 11,2 km/h (2 Bft) O 81 1 min 0,000 mm 4,8 UV-I 880 W/m 11,8 C 22,2 C 17,7 km/h (3 Bft) 100,00 %
22.05.2018 12:32 23,6 C 18,9 C 50 % 1010,6 hPa 0,0 l/m 15,1 km/h (3 Bft) NO 52 1 min 0,000 mm 4,9 UV-I 884 W/m 12,6 C 21,6 C 19,3 km/h (3 Bft) 100,00 %
22.05.2018 12:33 23,7 C 18,9 C 47 % 1010,6 hPa 0,0 l/m 14,1 km/h (3 Bft) O-NO 75 1 min 0,000 mm 4,8 UV-I 867 W/m 11,7 C 21,9 C 16,1 km/h (3 Bft) 96,55 %
22.05.2018 12:34 23,7 C 18,9 C 44 % 1010,6 hPa 0,0 l/m 11,9 km/h (2 Bft) NO 44 1 min 0,000 mm 4,7 UV-I 844 W/m 10,7 C 22,3 C 16,1 km/h (3 Bft) 92,31 %
22.05.2018 12:35 23,8 C 18,9 C 47 % 1010,6 hPa 0,0 l/m 14,6 km/h (3 Bft) O 94 1 min 0,000 mm 4,7 UV-I 856 W/m 11,8 C 21,9 C 19,3 km/h (3 Bft) 100,00 %
22.05.2018 12:36 23,8 C 18,9 C 46 % 1010,6 hPa 0,0 l/m 12,8 km/h (3 Bft) O 90 1 min 0,000 mm 4,9 UV-I 871 W/m 11,5 C 22,2 C 16,1 km/h (3 Bft) 93,33 %
22.05.2018 12:37 23,7 C 18,9 C 45 % 1010,6 hPa 0,0 l/m 16,0 km/h (3 Bft) O-NO 74 1 min 0,000 mm 4,9 UV-I 898 W/m 11,1 C 21,6 C 17,7 km/h (3 Bft) 100,00 %
22.05.2018 12:38 23,7 C 18,9 C 47 % 1010,6 hPa 0,0 l/m 15,2 km/h (3 Bft) O-NO 59 1 min 0,000 mm 4,9 UV-I 889 W/m 11,7 C 21,7 C 20,9 km/h (4 Bft) 96,30 %
22.05.2018 12:39 23,7 C 18,9 C 48 % 1010,6 hPa 0,0 l/m 16,6 km/h (3 Bft) O-NO 71 1 min 0,000 mm 4,9 UV-I 877 W/m 12,0 C 21,5 C 19,3 km/h (3 Bft) 95,65 %
22.05.2018 12:40 23,7 C 18,9 C 50 % 1010,6 hPa 0,0 l/m 14,2 km/h (3 Bft) O-NO 61 1 min 0,000 mm 4,9 UV-I 889 W/m 12,6 C 21,9 C 16,1 km/h (3 Bft) 100,00 %
22.05.2018 12:41 23,6 C 18,9 C 51 % 1010,6 hPa 0,0 l/m 8,9 km/h (2 Bft) O-NO 58 1 min 0,000 mm 5,0 UV-I 909 W/m 12,9 C 22,9 C 12,9 km/h (3 Bft) 96,55 %
22.05.2018 12:43 23,7 C 18,9 C 46 % 1010,6 hPa 0,0 l/m 12,6 km/h (3 Bft) O-NO 67 2 min 0,000 mm 5,0 UV-I 909 W/m 11,4 C 22,2 C 17,7 km/h (3 Bft) 94,00 %
22.05.2018 12:44 23,7 C 18,9 C 47 % 1010,6 hPa 0,0 l/m 10,4 km/h (2 Bft) O 83 1 min 0,000 mm 5,0 UV-I 910 W/m 11,7 C 22,6 C 14,5 km/h (3 Bft) 100,00 %
22.05.2018 12:45 23,8 C 18,9 C 47 % 1010,6 hPa 0,0 l/m 7,1 km/h (2 Bft) NO 55 1 min 0,000 mm 4,9 UV-I 892 W/m 11,8 C 23,6 C 9,7 km/h (2 Bft) 100,00 %
22.05.2018 12:46 23,9 C 18,9 C 47 % 1010,6 hPa 0,0 l/m 12,1 km/h (2 Bft) O 88 1 min 0,000 mm 4,9 UV-I 882 W/m 11,9 C 22,5 C 19,3 km/h (3 Bft) 95,83 %
22.05.2018 12:48 24,0 C 18,9 C 47 % 1010,6 hPa 0,0 l/m 8,4 km/h (2 Bft) O-NO 57 2 min 0,000 mm 4,9 UV-I 869 W/m 12,0 C 23,4 C 14,5 km/h (3 Bft) 100,00 %
22.05.2018 12:49 24,1 C 18,9 C 49 % 1010,6 hPa 0,0 l/m 7,5 km/h (2 Bft) O 83 1 min 0,000 mm 4,9 UV-I 882 W/m 12,7 C 23,8 C 11,3 km/h (2 Bft) 100,00 %
22.05.2018 12:50 24,1 C 18,9 C 45 % 1010,6 hPa 0,0 l/m 14,1 km/h (3 Bft) O 97 1 min 0,000 mm 4,9 UV-I 877 W/m 11,4 C 22,4 C 19,3 km/h (3 Bft) 95,65 %
22.05.2018 12:51 24,1 C 18,9 C 43 % 1010,6 hPa 0,0 l/m 12,4 km/h (3 Bft) O-SO 104 1 min 0,000 mm 4,9 UV-I 887 W/m 10,7 C 22,7 C 16,1 km/h (3 Bft) 100,00 %
22.05.2018 12:52 24,1 C 18,9 C 43 % 1010,6 hPa 0,0 l/m 15,2 km/h (3 Bft) O 98 1 min 0,000 mm 4,9 UV-I 883 W/m 10,7 C 22,2 C 20,9 km/h (4 Bft) 100,00 %
22.05.2018 12:53 24,2 C 18,9 C 42 % 1010,6 hPa 0,0 l/m 11,8 km/h (2 Bft) O-NO 65 1 min 0,000 mm 5,0 UV-I 890 W/m 10,5 C 22,9 C 16,1 km/h (3 Bft) 100,00 %
22.05.2018 12:54 24,1 C 18,9 C 44 % 1010,6 hPa 0,0 l/m 10,7 km/h (2 Bft) O-NO 77 1 min 0,000 mm 4,9 UV-I 897 W/m 11,1 C 23,0 C 16,1 km/h (3 Bft) 95,65 %
22.05.2018 12:55 24,1 C 18,9 C 44 % 1010,6 hPa 0,0 l/m 13,5 km/h (3 Bft) O 82 1 min 0,000 mm 4,9 UV-I 891 W/m 11,1 C 22,5 C 20,9 km/h (4 Bft) 100,00 %
22.05.2018 12:56 24,2 C 18,9 C 44 % 1010,6 hPa 0,0 l/m 12,2 km/h (2 Bft) O 81 1 min 0,000 mm 4,9 UV-I 868 W/m 11,2 C 22,8 C 17,7 km/h (3 Bft) 100,00 %
22.05.2018 12:57 24,1 C 18,9 C 42 % 1010,6 hPa 0,0 l/m 11,7 km/h (2 Bft) O 90 1 min 0,000 mm 4,9 UV-I 876 W/m 10,4 C 22,8 C 14,5 km/h (3 Bft) 100,00 %
22.05.2018 12:58 24,1 C 18,9 C 44 % 1010,5 hPa 0,0 l/m 9,5 km/h (2 Bft) O 90 1 min 0,000 mm 4,9 UV-I 867 W/m 11,1 C 23,3 C 16,1 km/h (3 Bft) 95,65 %
22.05.2018 12:59 24,1 C 18,9 C 42 % 1010,6 hPa 0,0 l/m 5,8 km/h (2 Bft) O-SO 117 1 min 0,000 mm 4,9 UV-I 860 W/m 10,4 C 24,1 C 11,3 km/h (2 Bft) 100,00 %
22.05.2018 13:00 24,2 C 18,9 C 46 % 1010,6 hPa 0,0 l/m 4,4 km/h (1 Bft) O-NO 71 1 min 0,000 mm 4,8 UV-I 848 W/m 11,8 C 24,2 C 6,4 km/h (2 Bft) 100,00 %
22.05.2018 13:02 24,4 C 19,4 C 46 % 1010,6 hPa 0,0 l/m 6,8 km/h (2 Bft) O 91 2 min 0,610 mm 4,8 UV-I 861 W/m 12,0 C 24,3 C 14,5 km/h (3 Bft) 100,00 %
22.05.2018 13:03 24,5 C 19,4 C 46 % 1010,5 hPa 0,0 l/m 17,6 km/h (3 Bft) O-NO 69 1 min 0,000 mm 4,9 UV-I 882 W/m 12,1 C 22,3 C 22,5 km/h (4 Bft) 100,00 %
22.05.2018 13:04 24,4 C 19,4 C 44 % 1010,6 hPa 0,0 l/m 13,2 km/h (3 Bft) O-SO 104 1 min 0,000 mm 4,9 UV-I 873 W/m 11,3 C 22,9 C 17,7 km/h (3 Bft) 100,00 %
22.05.2018 13:05 24,3 C 19,4 C 43 % 1010,5 hPa 0,0 l/m 13,3 km/h (3 Bft) O 96 1 min 0,000 mm 4,9 UV-I 872 W/m 10,9 C 22,7 C 16,1 km/h (3 Bft) 100,00 %
22.05.2018 13:06 24,2 C 19,4 C 44 % 1010,5 hPa 0,0 l/m 5,4 km/h (1 Bft) O-NO 62 1 min 0,000 mm 4,9 UV-I 889 W/m 11,2 C 24,2 C 11,3 km/h (2 Bft) 100,00 %
22.05.2018 13:07 24,0 C 19,4 C 47 % 1010,5 hPa 0,0 l/m 5,6 km/h (1 Bft) NO 38 1 min 0,000 mm 4,9 UV-I 889 W/m 12,0 C 24,0 C 8,0 km/h (2 Bft) 100,00 %
22.05.2018 13:08 24,0 C 19,4 C 46 % 1010,5 hPa 0,0 l/m 10,3 km/h (2 Bft) NO 39 1 min 0,000 mm 4,9 UV-I 885 W/m 11,7 C 23,0 C 14,5 km/h (3 Bft) 100,00 %
22.05.2018 13:09 24,2 C 19,4 C 49 % 1010,4 hPa 0,0 l/m 15,5 km/h (3 Bft) N-NO 29 1 min 0,000 mm 4,9 UV-I 880 W/m 12,8 C 22,3 C 20,9 km/h (4 Bft) 100,00 %
22.05.2018 13:10 24,3 C 19,4 C 50 % 1010,4 hPa 0,0 l/m 14,4 km/h (3 Bft) NO 48 1 min 0,000 mm 4,7 UV-I 852 W/m 13,2 C 22,6 C 19,3 km/h (3 Bft) 96,15 %
22.05.2018 13:11 24,3 C 19,4 C 48 % 1010,4 hPa 0,0 l/m 17,9 km/h (3 Bft) N-NO 28 1 min 0,000 mm 4,6 UV-I 782 W/m 12,6 C 22,0 C 20,9 km/h (4 Bft) 100,00 %
22.05.2018 13:12 24,3 C 19,4 C 50 % 1010,4 hPa 0,0 l/m 17,3 km/h (3 Bft) NO 37 1 min 0,000 mm 4,6 UV-I 772 W/m 13,2 C 22,1 C 19,3 km/h (3 Bft) 96,67 %
22.05.2018 13:13 24,3 C 19,4 C 49 % 1010,4 hPa 0,0 l/m 14,4 km/h (3 Bft) O-NO 74 1 min 0,000 mm 4,5 UV-I 793 W/m 12,9 C 22,6 C 19,3 km/h (3 Bft) 100,00 %
22.05.2018 13:14 24,3 C 19,4 C 47 % 1010,4 hPa 0,0 l/m 8,9 km/h (2 Bft) O-NO 62 1 min 0,000 mm 4,6 UV-I 810 W/m 12,3 C 23,6 C 11,3 km/h (2 Bft) 100,00 %
22.05.2018 13:15 24,4 C 19,4 C 48 % 1010,4 hPa 0,0 l/m 13,8 km/h (3 Bft) O-NO 69 1 min 0,000 mm 4,6 UV-I 821 W/m 12,7 C 22,8 C 19,3 km/h (3 Bft) 100,00 %
22.05.2018 13:16 24,5 C 19,4 C 45 % 1010,4 hPa 0,0 l/m 15,6 km/h (3 Bft) O 86 1 min 0,000 mm 4,6 UV-I 839 W/m 11,8 C 22,6 C 17,7 km/h (3 Bft) 100,00 %
22.05.2018 13:17 24,4 C 19,4 C 42 % 1010,4 hPa 0,0 l/m 10,6 km/h (2 Bft) O 94 1 min 0,000 mm 4,2 UV-I 754 W/m 10,6 C 23,4 C 12,9 km/h (3 Bft) 100,00 %
22.05.2018 13:18 24,3 C 19,4 C 41 % 1010,4 hPa 0,0 l/m 5,5 km/h (1 Bft) O-NO 78 1 min 0,000 mm 3,9 UV-I 745 W/m 10,2 C 24,3 C 9,7 km/h (2 Bft) 100,00 %
22.05.2018 13:19 24,2 C 19,4 C 42 % 1010,4 hPa 0,0 l/m 7,4 km/h (2 Bft) NO 36 1 min 0,000 mm 4,5 UV-I 747 W/m 10,5 C 23,9 C 11,3 km/h (2 Bft) 100,00 %
22.05.2018 13:20 24,2 C 19,4 C 45 % 1010,3 hPa 0,0 l/m 13,9 km/h (3 Bft) NO 46 1 min 0,000 mm 4,4 UV-I 766 W/m 11,5 C 22,5 C 16,1 km/h (3 Bft) 100,00 %
22.05.2018 13:21 24,2 C 19,4 C 46 % 1010,3 hPa 0,0 l/m 11,1 km/h (2 Bft) O-NO 59 1 min 0,000 mm 4,4 UV-I 778 W/m 11,8 C 23,0 C 17,7 km/h (3 Bft) 92,86 %
22.05.2018 13:22 24,3 C 19,4 C 49 % 1010,4 hPa 0,0 l/m 15,8 km/h (3 Bft) O-NO 78 1 min 0,000 mm 4,4 UV-I 783 W/m 12,9 C 22,3 C 19,3 km/h (3 Bft) 100,00 %
22.05.2018 13:23 24,4 C 19,4 C 45 % 1010,4 hPa 0,0 l/m 9,3 km/h (2 Bft) NO 48 1 min 0,000 mm 4,4 UV-I 783 W/m 11,7 C 23,7 C 14,5 km/h (3 Bft) 100,00 %
22.05.2018 13:24 24,5 C 19,4 C 46 % 1010,3 hPa 0,0 l/m 10,3 km/h (2 Bft) O-NO 66 1 min 0,000 mm 4,4 UV-I 783 W/m 12,1 C 23,5 C 16,1 km/h (3 Bft) 100,00 %
22.05.2018 13:25 24,6 C 19,4 C 48 % 1010,2 hPa 0,0 l/m 15,1 km/h (3 Bft) O-NO 69 1 min 0,000 mm 4,5 UV-I 808 W/m 12,8 C 22,8 C 19,3 km/h (3 Bft) 100,00 %
22.05.2018 13:26 24,6 C 19,4 C 44 % 1010,2 hPa 0,0 l/m 12,6 km/h (3 Bft) O-NO 74 1 min 0,000 mm 4,4 UV-I 785 W/m 11,5 C 23,2 C 17,7 km/h (3 Bft) 100,00 %
22.05.2018 13:28 24,6 C 19,4 C 42 % 1010,2 hPa 0,0 l/m 12,8 km/h (3 Bft) O-NO 78 2 min 0,000 mm 4,5 UV-I 786 W/m 10,8 C 23,2 C 22,5 km/h (4 Bft) 100,00 %
22.05.2018 13:29 24,6 C 19,4 C 41 % 1010,3 hPa 0,0 l/m 17,1 km/h (3 Bft) O-NO 63 1 min 0,000 mm 4,8 UV-I 788 W/m 10,5 C 22,5 C 19,3 km/h (3 Bft) 100,00 %
22.05.2018 13:30 24,7 C 19,4 C 42 % 1010,2 hPa 0,0 l/m 15,6 km/h (3 Bft) O 82 1 min 0,000 mm 4,8 UV-I 871 W/m 10,9 C 22,9 C 19,3 km/h (3 Bft) 100,00 %
22.05.2018 13:31 24,7 C 19,4 C 40 % 1010,3 hPa 0,0 l/m 11,9 km/h (2 Bft) O-NO 69 1 min 0,000 mm 4,8 UV-I 893 W/m 10,2 C 23,5 C 17,7 km/h (3 Bft) 95,65 %
22.05.2018 13:32 24,8 C 19,4 C 42 % 1010,3 hPa 0,0 l/m 12,3 km/h (3 Bft) O 100 1 min 0,000 mm 4,8 UV-I 885 W/m 11,0 C 23,5 C 16,1 km/h (3 Bft) 96,30 %
22.05.2018 13:33 24,9 C 19,4 C 41 % 1010,2 hPa 0,0 l/m 7,9 km/h (2 Bft) NO 50 1 min 0,000 mm 4,8 UV-I 873 W/m 10,7 C 24,5 C 9,7 km/h (2 Bft) 91,67 %
22.05.2018 13:34 25,0 C 19,4 C 44 % 1010,2 hPa 0,0 l/m 7,4 km/h (2 Bft) O-NO 60 1 min 0,000 mm 4,8 UV-I 878 W/m 11,9 C 24,7 C 9,7 km/h (2 Bft) 93,75 %
22.05.2018 13:35 25,1 C 19,4 C 40 % 1010,2 hPa 0,0 l/m 13,1 km/h (3 Bft) O-NO 70 1 min 0,000 mm 4,7 UV-I 874 W/m 10,5 C 23,7 C 19,3 km/h (3 Bft) 100,00 %
22.05.2018 13:36 25,1 C 19,4 C 39 % 1010,2 hPa 0,0 l/m 10,6 km/h (2 Bft) NO 34 1 min 0,000 mm 4,7 UV-I 855 W/m 10,2 C 24,2 C 16,1 km/h (3 Bft) 100,00 %
22.05.2018 13:37 25,1 C 19,4 C 42 % 1010,2 hPa 0,0 l/m 10,1 km/h (2 Bft) O 101 1 min 0,000 mm 4,6 UV-I 832 W/m 11,3 C 24,3 C 14,5 km/h (3 Bft) 97,44 %
22.05.2018 13:38 24,9 C 19,4 C 40 % 1010,2 hPa 0,0 l/m 11,9 km/h (2 Bft) O-NO 76 1 min 0,000 mm 4,6 UV-I 847 W/m 10,4 C 23,7 C 16,1 km/h (3 Bft) 96,15 %
22.05.2018 13:39 24,9 C 19,4 C 41 % 1010,2 hPa 0,0 l/m 9,6 km/h (2 Bft) O-NO 65 1 min 0,000 mm 4,6 UV-I 849 W/m 10,7 C 24,1 C 12,9 km/h (3 Bft) 100,00 %
22.05.2018 13:40 25,0 C 19,4 C 42 % 1010,2 hPa 0,0 l/m 5,8 km/h (2 Bft) NO 44 1 min 0,000 mm 4,6 UV-I 863 W/m 11,2 C 25,0 C 8,0 km/h (2 Bft) 90,91 %
22.05.2018 13:41 24,9 C 19,4 C 43 % 1010,1 hPa 0,0 l/m 7,7 km/h (2 Bft) NO 40 1 min 0,000 mm 4,5 UV-I 867 W/m 11,4 C 24,6 C 12,9 km/h (3 Bft) 100,00 %
22.05.2018 13:42 24,9 C 19,4 C 45 % 1010,1 hPa 0,0 l/m 12,9 km/h (3 Bft) O-NO 70 1 min 0,000 mm 4,5 UV-I 836 W/m 12,1 C 23,5 C 22,5 km/h (4 Bft) 96,15 %
22.05.2018 13:43 24,8 C 19,4 C 40 % 1010,1 hPa 0,0 l/m 12,2 km/h (2 Bft) O-NO 73 1 min 0,000 mm 4,5 UV-I 855 W/m 10,3 C 23,5 C 17,7 km/h (3 Bft) 96,30 %
22.05.2018 13:44 24,9 C 19,4 C 41 % 1010,1 hPa 0,0 l/m 10,6 km/h (2 Bft) NO 46 1 min 0,000 mm 4,5 UV-I 834 W/m 10,7 C 23,9 C 16,1 km/h (3 Bft) 100,00 %
22.05.2018 13:45 25,0 C 19,4 C 43 % 1010,2 hPa 0,0 l/m 11,2 km/h (2 Bft) O-NO 75 1 min 0,000 mm 4,4 UV-I 835 W/m 11,5 C 23,9 C 16,1 km/h (3 Bft) 96,30 %
22.05.2018 13:46 25,1 C 19,4 C 40 % 1010,2 hPa 0,0 l/m 5,6 km/h (1 Bft) O 89 1 min 0,000 mm 4,5 UV-I 870 W/m 10,5 C 25,1 C 11,3 km/h (2 Bft) 100,00 %
22.05.2018 13:47 25,1 C 19,4 C 40 % 1010,1 hPa 0,0 l/m 7,0 km/h (2 Bft) O-SO 103 1 min 0,000 mm 4,1 UV-I 882 W/m 10,5 C 25,0 C 12,9 km/h (3 Bft) 95,83 %
22.05.2018 13:48 25,0 C 19,4 C 40 % 1010,1 hPa 0,0 l/m 7,2 km/h (2 Bft) O-NO 76 1 min 0,000 mm 3,5 UV-I 564 W/m 10,4 C 24,8 C 14,5 km/h (3 Bft) 100,00 %
22.05.2018 13:49 25,0 C 19,4 C 42 % 1010,1 hPa 0,0 l/m 9,9 km/h (2 Bft) O 80 1 min 0,000 mm 3,3 UV-I 564 W/m 11,2 C 24,2 C 20,9 km/h (4 Bft) 95,83 %
22.05.2018 13:50 25,0 C 19,4 C 40 % 1010,2 hPa 0,0 l/m 9,8 km/h (2 Bft) NO 51 1 min 0,000 mm 3,4 UV-I 578 W/m 10,4 C 24,2 C 16,1 km/h (3 Bft) 100,00 %
22.05.2018 13:51 25,0 C 19,4 C 44 % 1010,1 hPa 0,0 l/m 14,7 km/h (3 Bft) NO 44 1 min 0,000 mm 3,5 UV-I 597 W/m 11,9 C 23,4 C 20,9 km/h (4 Bft) 95,65 %
22.05.2018 13:52 24,9 C 19,4 C 43 % 1010,1 hPa 0,0 l/m 15,9 km/h (3 Bft) NO 50 1 min 0,000 mm 3,4 UV-I 543 W/m 11,4 C 23,1 C 20,9 km/h (4 Bft) 100,00 %
22.05.2018 13:53 24,8 C 19,4 C 43 % 1010,1 hPa 0,0 l/m 8,2 km/h (2 Bft) O-NO 71 1 min 0,000 mm 3,6 UV-I 588 W/m 11,4 C 24,3 C 12,9 km/h (3 Bft) 96,15 %
22.05.2018 13:54 24,7 C 19,4 C 45 % 1010,2 hPa 0,0 l/m 13,6 km/h (3 Bft) O-NO 66 1 min 0,000 mm 3,9 UV-I 591 W/m 12,0 C 23,2 C 17,7 km/h (3 Bft) 95,83 %
22.05.2018 13:55 24,6 C 19,4 C 43 % 1010,2 hPa 0,0 l/m 11,6 km/h (2 Bft) O-NO 68 1 min 0,000 mm 3,6 UV-I 591 W/m 11,2 C 23,4 C 22,5 km/h (4 Bft) 100,00 %
22.05.2018 13:56 24,6 C 19,4 C 44 % 1010,2 hPa 0,0 l/m 14,7 km/h (3 Bft) NO 51 1 min 0,000 mm 3,3 UV-I 564 W/m 11,5 C 22,9 C 19,3 km/h (3 Bft) 100,00 %
22.05.2018 13:57 24,5 C 19,4 C 45 % 1010,2 hPa 0,0 l/m 9,7 km/h (2 Bft) NO 38 1 min 0,000 mm 3,3 UV-I 518 W/m 11,8 C 23,7 C 12,9 km/h (3 Bft) 96,15 %
22.05.2018 13:58 24,4 C 19,4 C 44 % 1010,2 hPa 0,0 l/m 9,9 km/h (2 Bft) O-NO 73 1 min 0,000 mm 3,1 UV-I 496 W/m 11,3 C 23,5 C 14,5 km/h (3 Bft) 96,30 %
22.05.2018 13:59 24,3 C 19,4 C 41 % 1010,2 hPa 0,0 l/m 8,4 km/h (2 Bft) O-NO 69 0 min 0,000 mm 3,1 UV-I 466 W/m 10,2 C 23,8 C 12,9 km/h (3 Bft) 100,00 %
22.05.2018 14:00 24,3 C 19,4 C 43 % 1010,2 hPa 0,0 l/m 6,6 km/h (2 Bft) NO 44 0 min 0,000 mm 3,0 UV-I 452 W/m 10,9 C 24,3 C 9,7 km/h (2 Bft) 95,83 %
22.05.2018 14:01 24,3 C 19,4 C 45 % 1010,2 hPa 0,0 l/m 5,8 km/h (2 Bft) O-NO 59 0 min 0,584 mm 3,0 UV-I 431 W/m 11,6 C 24,3 C 8,0 km/h (2 Bft) 90,91 %
22.05.2018 14:02 24,3 C 19,4 C 46 % 1010,1 hPa 0,0 l/m 7,9 km/h (2 Bft) O-NO 59 0 min 0,000 mm 2,9 UV-I 431 W/m 11,9 C 23,9 C 16,1 km/h (3 Bft) 95,83 %
22.05.2018 14:03 24,3 C 19,4 C 45 % 1010,1 hPa 0,0 l/m 9,6 km/h (2 Bft) O-NO 78 0 min 0,000 mm 2,9 UV-I 433 W/m 11,6 C 23,5 C 17,7 km/h (3 Bft) 100,00 %
22.05.2018 14:04 24,4 C 19,4 C 44 % 1010,1 hPa 0,0 l/m 12,6 km/h (3 Bft) O 86 0 min 0,000 mm 2,9 UV-I 434 W/m 11,3 C 23,0 C 16,1 km/h (3 Bft) 95,83 %
22.05.2018 14:05 24,4 C 19,4 C 42 % 1010,2 hPa 0,0 l/m 14,1 km/h (3 Bft) O-SO 102 0 min 0,000 mm 2,9 UV-I 429 W/m 10,6 C 22,7 C 19,3 km/h (3 Bft) 100,00 %
22.05.2018 14:06 24,4 C 19,4 C 42 % 1010,1 hPa 0,0 l/m 10,7 km/h (2 Bft) O-NO 57 0 min 0,000 mm 2,9 UV-I 430 W/m 10,6 C 23,4 C 16,1 km/h (3 Bft) 96,15 %
22.05.2018 14:07 24,4 C 19,4 C 42 % 1010,1 hPa 0,0 l/m 12,6 km/h (3 Bft) O-NO 78 0 min 0,000 mm 3,0 UV-I 438 W/m 10,6 C 23,0 C 19,3 km/h (3 Bft) 92,31 %
22.05.2018 14:08 24,3 C 19,4 C 44 % 1010,1 hPa 0,0 l/m 9,8 km/h (2 Bft) O-NO 74 0 min 0,000 mm 3,1 UV-I 450 W/m 11,3 C 23,4 C 14,5 km/h (3 Bft) 100,00 %
22.05.2018 14:09 24,3 C 19,4 C 44 % 1010,1 hPa 0,0 l/m 7,1 km/h (2 Bft) O 90 0 min 0,000 mm 3,2 UV-I 450 W/m 11,3 C 24,1 C 12,9 km/h (3 Bft) 93,33 %
22.05.2018 14:10 24,4 C 19,4 C 43 % 1010,1 hPa 0,0 l/m 6,6 km/h (2 Bft) O 88 1 min 0,000 mm 3,4 UV-I 551 W/m 11,0 C 24,4 C 9,7 km/h (2 Bft) 100,00 %
22.05.2018 14:11 24,4 C 19,4 C 44 % 1010,1 hPa 0,0 l/m 10,8 km/h (2 Bft) O-NO 67 1 min 0,000 mm 3,4 UV-I 534 W/m 11,3 C 23,3 C 19,3 km/h (3 Bft) 88,89 %
22.05.2018 14:12 24,5 C 19,4 C 44 % 1010,1 hPa 0,0 l/m 10,8 km/h (2 Bft) O-NO 74 1 min 0,000 mm 3,4 UV-I 634 W/m 11,4 C 23,4 C 14,5 km/h (3 Bft) 96,15 %
22.05.2018 14:13 24,6 C 19,4 C 43 % 1010,1 hPa 0,0 l/m 14,2 km/h (3 Bft) O-NO 78 1 min 0,000 mm 3,5 UV-I 669 W/m 11,2 C 22,9 C 16,1 km/h (3 Bft) 95,83 %
22.05.2018 14:14 24,6 C 19,4 C 43 % 1010,0 hPa 0,0 l/m 12,8 km/h (3 Bft) O 90 1 min 0,000 mm 3,7 UV-I 647 W/m 11,2 C 23,2 C 16,1 km/h (3 Bft) 100,00 %
22.05.2018 14:15 24,6 C 19,4 C 46 % 1010,1 hPa 0,0 l/m 9,2 km/h (2 Bft) O-NO 75 1 min 0,000 mm 3,5 UV-I 597 W/m 12,2 C 23,9 C 14,5 km/h (3 Bft) 91,67 %
22.05.2018 14:16 24,7 C 19,4 C 45 % 1010,1 hPa 0,0 l/m 9,5 km/h (2 Bft) O 99 1 min 0,000 mm 3,5 UV-I 640 W/m 12,0 C 23,9 C 12,9 km/h (3 Bft) 92,31 %
22.05.2018 14:17 24,7 C 19,4 C 44 % 1010,0 hPa 0,0 l/m 7,1 km/h (2 Bft) O-NO 63 1 min 0,000 mm 3,6 UV-I 668 W/m 11,6 C 24,5 C 9,7 km/h (2 Bft) 95,83 %
22.05.2018 14:18 24,8 C 19,4 C 46 % 1010,0 hPa 0,0 l/m 12,6 km/h (3 Bft) NO 51 1 min 0,000 mm 3,6 UV-I 658 W/m 12,4 C 23,5 C 20,9 km/h (4 Bft) 95,65 %
22.05.2018 14:19 24,8 C 19,4 C 48 % 1010,0 hPa 0,0 l/m 15,1 km/h (3 Bft) NO 49 1 min 0,000 mm 3,4 UV-I 630 W/m 13,0 C 23,1 C 17,7 km/h (3 Bft) 92,59 %
22.05.2018 14:20 24,8 C 19,4 C 47 % 1010,0 hPa 0,0 l/m 15,2 km/h (3 Bft) O-NO 69 1 min 0,000 mm 3,5 UV-I 617 W/m 12,7 C 23,0 C 19,3 km/h (3 Bft) 88,24 %
22.05.2018 14:21 24,8 C 19,4 C 48 % 1010,0 hPa 0,0 l/m 12,6 km/h (3 Bft) O 90 1 min 0,000 mm 3,5 UV-I 635 W/m 13,0 C 23,5 C 17,7 km/h (3 Bft) 100,00 %
22.05.2018 14:23 24,8 C 19,4 C 43 % 1010,0 hPa 0,0 l/m 11,9 km/h (2 Bft) O-NO 69 2 min 0,000 mm 3,3 UV-I 592 W/m 11,4 C 23,6 C 16,1 km/h (3 Bft) 94,64 %
22.05.2018 14:24 24,8 C 19,4 C 45 % 1010,1 hPa 0,0 l/m 10,7 km/h (2 Bft) NO 48 1 min 0,000 mm 3,4 UV-I 585 W/m 12,0 C 23,8 C 16,1 km/h (3 Bft) 85,71 %
22.05.2018 14:25 24,7 C 19,4 C 45 % 1010,0 hPa 0,0 l/m 10,9 km/h (2 Bft) NO 44 1 min 0,000 mm 3,5 UV-I 628 W/m 12,0 C 23,6 C 14,5 km/h (3 Bft) 96,67 %
22.05.2018 14:26 24,6 C 19,4 C 46 % 1010,0 hPa 0,0 l/m 9,1 km/h (2 Bft) NO 44 1 min 0,000 mm 3,4 UV-I 623 W/m 12,2 C 23,9 C 12,9 km/h (3 Bft) 91,67 %
22.05.2018 14:27 24,6 C 19,4 C 50 % 1010,0 hPa 0,0 l/m 7,8 km/h (2 Bft) NO 40 1 min 0,000 mm 3,5 UV-I 560 W/m 13,5 C 24,2 C 9,7 km/h (2 Bft) 96,77 %
22.05.2018 14:28 24,6 C 19,4 C 50 % 1010,0 hPa 0,0 l/m 7,8 km/h (2 Bft) N-NO 23 1 min 0,000 mm 3,5 UV-I 624 W/m 13,5 C 24,2 C 9,7 km/h (2 Bft) 96,55 %
22.05.2018 14:29 24,7 C 19,4 C 53 % 1009,9 hPa 0,0 l/m 9,3 km/h (2 Bft) O-NO 75 1 min 0,000 mm 3,6 UV-I 683 W/m 14,5 C 24,0 C 14,5 km/h (3 Bft) 93,33 %
22.05.2018 14:30 24,8 C 19,4 C 48 % 1010,0 hPa 0,0 l/m 8,3 km/h (2 Bft) NO 53 1 min 0,000 mm 3,6 UV-I 654 W/m 13,0 C 24,3 C 12,9 km/h (3 Bft) 96,30 %
22.05.2018 14:31 25,0 C 19,4 C 47 % 1009,9 hPa 0,0 l/m 12,2 km/h (2 Bft) NO 44 1 min 0,000 mm 3,6 UV-I 700 W/m 12,9 C 23,8 C 16,1 km/h (3 Bft) 91,30 %
22.05.2018 14:32 25,1 C 19,4 C 50 % 1009,9 hPa 0,0 l/m 13,0 km/h (3 Bft) NO 45 1 min 0,000 mm 3,9 UV-I 735 W/m 13,9 C 23,7 C 17,7 km/h (3 Bft) 100,00 %
22.05.2018 14:33 25,2 C 19,4 C 53 % 1009,9 hPa 0,0 l/m 9,4 km/h (2 Bft) O-NO 64 1 min 0,000 mm 4,1 UV-I 838 W/m 14,9 C 24,5 C 14,5 km/h (3 Bft) 94,12 %
22.05.2018 14:34 25,3 C 19,4 C 47 % 1009,9 hPa 0,0 l/m 9,7 km/h (2 Bft) O-SO 115 1 min 0,000 mm 4,2 UV-I 845 W/m 13,2 C 24,6 C 14,5 km/h (3 Bft) 93,33 %
22.05.2018 14:35 25,5 C 19,4 C 43 % 1009,9 hPa 0,0 l/m 9,9 km/h (2 Bft) NO 55 1 min 0,000 mm 4,3 UV-I 931 W/m 12,0 C 24,7 C 14,5 km/h (3 Bft) 85,71 %
22.05.2018 14:36 25,6 C 19,4 C 46 % 1009,9 hPa 0,0 l/m 16,6 km/h (3 Bft) O-NO 57 1 min 0,000 mm 4,0 UV-I 917 W/m 13,1 C 23,8 C 19,3 km/h (3 Bft) 96,97 %
22.05.2018 14:37 25,6 C 19,4 C 47 % 1009,9 hPa 0,0 l/m 8,7 km/h (2 Bft) NO 44 1 min 0,000 mm 3,7 UV-I 911 W/m 13,4 C 25,1 C 12,9 km/h (3 Bft) 90,91 %
22.05.2018 14:38 25,6 C 19,4 C 44 % 1009,8 hPa 0,0 l/m 11,9 km/h (2 Bft) O-NO 60 1 min 0,000 mm 3,6 UV-I 911 W/m 12,4 C 24,5 C 19,3 km/h (3 Bft) 96,67 %
22.05.2018 14:39 25,6 C 19,4 C 43 % 1009,9 hPa 0,0 l/m 13,1 km/h (3 Bft) O-NO 69 1 min 0,000 mm 3,8 UV-I 807 W/m 12,1 C 24,3 C 16,1 km/h (3 Bft) 100,00 %
22.05.2018 14:40 25,6 C 19,4 C 44 % 1009,9 hPa 0,0 l/m 12,9 km/h (3 Bft) NO 45 1 min 0,000 mm 3,5 UV-I 774 W/m 12,4 C 24,3 C 17,7 km/h (3 Bft) 96,97 %
22.05.2018 14:41 25,5 C 19,4 C 44 % 1009,8 hPa 0,0 l/m 9,7 km/h (2 Bft) O 80 1 min 0,000 mm 3,4 UV-I 589 W/m 12,3 C 24,8 C 14,5 km/h (3 Bft) 100,00 %
22.05.2018 14:42 25,4 C 19,4 C 44 % 1009,8 hPa 0,0 l/m 9,0 km/h (2 Bft) O-NO 63 1 min 0,000 mm 3,6 UV-I 653 W/m 12,2 C 24,8 C 14,5 km/h (3 Bft) 100,00 %
22.05.2018 14:43 25,5 C 19,4 C 44 % 1009,8 hPa 0,0 l/m 9,6 km/h (2 Bft) O 79 1 min 0,000 mm 3,5 UV-I 754 W/m 12,3 C 24,8 C 14,5 km/h (3 Bft) 100,00 %
22.05.2018 14:44 25,5 C 19,4 C 43 % 1009,8 hPa 0,0 l/m 10,7 km/h (2 Bft) O-NO 59 1 min 0,000 mm 3,5 UV-I 721 W/m 12,0 C 24,6 C 16,1 km/h (3 Bft) 100,00 %
22.05.2018 14:45 25,3 C 19,4 C 43 % 1009,8 hPa 0,0 l/m 8,1 km/h (2 Bft) NO 46 1 min 0,000 mm 3,2 UV-I 599 W/m 11,8 C 24,9 C 14,5 km/h (3 Bft) 100,00 %
22.05.2018 14:46 25,3 C 19,4 C 47 % 1009,8 hPa 0,0 l/m 9,2 km/h (2 Bft) NO 51 1 min 0,000 mm 3,0 UV-I 535 W/m 13,2 C 24,7 C 12,9 km/h (3 Bft) 100,00 %
22.05.2018 14:47 25,2 C 19,4 C 49 % 1009,8 hPa 0,0 l/m 9,6 km/h (2 Bft) O-NO 60 1 min 0,000 mm 2,8 UV-I 469 W/m 13,7 C 24,5 C 16,1 km/h (3 Bft) 91,67 %
22.05.2018 14:48 25,2 C 19,4 C 48 % 1009,7 hPa 0,0 l/m 10,4 km/h (2 Bft) O-NO 66 0 min 0,000 mm 2,7 UV-I 443 W/m 13,4 C 24,3 C 14,5 km/h (3 Bft) 100,00 %
22.05.2018 14:49 25,1 C 19,4 C 46 % 1009,8 hPa 0,0 l/m 8,9 km/h (2 Bft) O-NO 73 1 min 0,000 mm 2,9 UV-I 446 W/m 12,7 C 24,5 C 14,5 km/h (3 Bft) 100,00 %
22.05.2018 14:50 25,1 C 19,4 C 45 % 1009,8 hPa 0,0 l/m 12,7 km/h (3 Bft) N-NO 33 1 min 0,000 mm 3,1 UV-I 521 W/m 12,3 C 23,8 C 16,1 km/h (3 Bft) 100,00 %
22.05.2018 14:51 25,1 C 19,4 C 46 % 1009,7 hPa 0,0 l/m 15,8 km/h (3 Bft) N-NO 19 1 min 0,000 mm 2,8 UV-I 498 W/m 12,7 C 23,3 C 22,5 km/h (4 Bft) 100,00 %
22.05.2018 14:53 24,9 C 19,4 C 46 % 1009,7 hPa 0,0 l/m 11,2 km/h (2 Bft) O-NO 78 0 min 0,000 mm 2,6 UV-I 426 W/m 12,5 C 23,8 C 17,7 km/h (3 Bft) 100,00 %
22.05.2018 14:54 24,9 C 19,4 C 49 % 1009,7 hPa 0,0 l/m 9,7 km/h (2 Bft) NO 56 0 min 0,000 mm 2,6 UV-I 427 W/m 13,4 C 24,1 C 14,5 km/h (3 Bft) 100,00 %
22.05.2018 14:55 24,9 C 19,4 C 46 % 1009,7 hPa 0,0 l/m 12,4 km/h (3 Bft) O 82 1 min 0,000 mm 2,6 UV-I 440 W/m 12,5 C 23,6 C 16,1 km/h (3 Bft) 100,00 %
22.05.2018 14:56 24,8 C 19,4 C 44 % 1009,7 hPa 0,0 l/m 14,3 km/h (3 Bft) O-NO 74 0 min 0,000 mm 2,6 UV-I 432 W/m 11,7 C 23,2 C 16,1 km/h (3 Bft) 100,00 %
22.05.2018 14:57 24,9 C 19,4 C 44 % 1009,7 hPa 0,0 l/m 14,7 km/h (3 Bft) O 86 0 min 0,000 mm 2,5 UV-I 420 W/m 11,8 C 23,2 C 19,3 km/h (3 Bft) 100,00 %
22.05.2018 14:58 24,9 C 19,4 C 44 % 1009,7 hPa 0,0 l/m 7,4 km/h (2 Bft) O 97 1 min 0,000 mm 2,6 UV-I 456 W/m 11,8 C 24,6 C 12,9 km/h (3 Bft) 100,00 %
22.05.2018 14:59 24,9 C 19,4 C 43 % 1009,7 hPa 0,0 l/m 11,3 km/h (2 Bft) O-SO 108 1 min 0,000 mm 2,6 UV-I 484 W/m 11,4 C 23,8 C 14,5 km/h (3 Bft) 100,00 %
22.05.2018 15:00 24,9 C 19,4 C 43 % 1009,7 hPa 0,0 l/m 13,3 km/h (3 Bft) O-SO 120 1 min 0,457 mm 2,6 UV-I 453 W/m 11,4 C 23,5 C 17,7 km/h (3 Bft) 100,00 %
22.05.2018 15:01 24,9 C 19,4 C 44 % 1009,7 hPa 0,0 l/m 15,1 km/h (3 Bft) O 92 1 min 0,000 mm 2,6 UV-I 473 W/m 11,8 C 23,2 C 19,3 km/h (3 Bft) 100,00 %
22.05.2018 15:02 24,9 C 19,4 C 42 % 1009,7 hPa 0,0 l/m 11,1 km/h (2 Bft) O 100 1 min 0,000 mm 2,8 UV-I 523 W/m 11,1 C 23,8 C 12,9 km/h (3 Bft) 100,00 %
22.05.2018 15:03 24,9 C 19,4 C 43 % 1009,7 hPa 0,0 l/m 10,5 km/h (2 Bft) O-NO 77 1 min 0,000 mm 2,7 UV-I 507 W/m 11,4 C 24,0 C 14,5 km/h (3 Bft) 100,00 %
22.05.2018 15:04 24,9 C 19,4 C 44 % 1009,6 hPa 0,0 l/m 12,1 km/h (2 Bft) O-NO 77 1 min 0,000 mm 2,7 UV-I 507 W/m 11,8 C 23,7 C 16,1 km/h (3 Bft) 100,00 %
22.05.2018 15:05 24,9 C 19,4 C 43 % 1009,7 hPa 0,0 l/m 9,3 km/h (2 Bft) O-NO 78 1 min 0,000 mm 2,7 UV-I 530 W/m 11,4 C 24,2 C 12,9 km/h (3 Bft) 93,33 %
22.05.2018 15:06 25,0 C 19,4 C 42 % 1009,7 hPa 0,0 l/m 10,1 km/h (2 Bft) O-NO 72 1 min 0,000 mm 2,8 UV-I 573 W/m 11,2 C 24,1 C 12,9 km/h (3 Bft) 100,00 %
22.05.2018 15:07 25,1 C 19,4 C 43 % 1009,6 hPa 0,0 l/m 11,5 km/h (2 Bft) NO 38 1 min 0,000 mm 2,8 UV-I 582 W/m 11,6 C 24,0 C 16,1 km/h (3 Bft) 100,00 %
22.05.2018 15:08 25,1 C 19,4 C 47 % 1009,6 hPa 0,0 l/m 13,4 km/h (3 Bft) NO 53 1 min 0,000 mm 2,8 UV-I 550 W/m 13,0 C 23,7 C 20,9 km/h (4 Bft) 100,00 %
22.05.2018 15:09 25,1 C 19,4 C 44 % 1009,6 hPa 0,0 l/m 18,7 km/h (3 Bft) O-NO 61 1 min 0,000 mm 2,5 UV-I 495 W/m 12,0 C 22,9 C 24,1 km/h (4 Bft) 100,00 %
22.05.2018 15:10 25,0 C 19,4 C 47 % 1009,7 hPa 0,0 l/m 15,0 km/h (3 Bft) O 88 1 min 0,000 mm 2,3 UV-I 447 W/m 12,9 C 23,3 C 19,3 km/h (3 Bft) 100,00 %
22.05.2018 15:11 24,9 C 20,0 C 42 % 1009,6 hPa 0,0 l/m 11,4 km/h (2 Bft) O 82 0 min 0,000 mm 2,2 UV-I 424 W/m 11,1 C 23,8 C 14,5 km/h (3 Bft) 100,00 %
22.05.2018 15:12 24,9 C 20,0 C 43 % 1009,6 hPa 0,0 l/m 6,7 km/h (2 Bft) O 85 0 min 0,000 mm 2,2 UV-I 415 W/m 11,4 C 24,8 C 9,7 km/h (2 Bft) 100,00 %
22.05.2018 15:13 24,9 C 20,0 C 44 % 1009,6 hPa 0,0 l/m 7,3 km/h (2 Bft) N-NO 30 0 min 0,000 mm 2,2 UV-I 409 W/m 11,8 C 24,7 C 11,3 km/h (2 Bft) 100,00 %
22.05.2018 15:14 24,8 C 20,0 C 46 % 1009,6 hPa 0,0 l/m 11,1 km/h (2 Bft) O-NO 61 0 min 0,000 mm 2,1 UV-I 396 W/m 12,4 C 23,7 C 16,1 km/h (3 Bft) 100,00 %
22.05.2018 15:15 24,8 C 20,0 C 45 % 1009,6 hPa 0,0 l/m 9,6 km/h (2 Bft) NO 36 0 min 0,000 mm 2,0 UV-I 381 W/m 12,0 C 24,0 C 14,5 km/h (3 Bft) 92,86 %
22.05.2018 15:16 24,7 C 20,0 C 46 % 1009,5 hPa 0,0 l/m 8,4 km/h (2 Bft) O-NO 61 0 min 0,000 mm 2,0 UV-I 373 W/m 12,3 C 24,2 C 11,3 km/h (2 Bft) 100,00 %
22.05.2018 15:17 24,6 C 20,0 C 47 % 1009,5 hPa 0,0 l/m 8,3 km/h (2 Bft) N-NO 22 0 min 0,000 mm 2,0 UV-I 371 W/m 12,5 C 24,1 C 12,9 km/h (3 Bft) 100,00 %
22.05.2018 15:18 24,5 C 20,0 C 48 % 1009,5 hPa 0,0 l/m 11,7 km/h (2 Bft) O-NO 57 0 min 0,000 mm 2,0 UV-I 372 W/m 12,8 C 23,3 C 16,1 km/h (3 Bft) 100,00 %
22.05.2018 15:19 24,6 C 20,0 C 44 % 1009,6 hPa 0,0 l/m 17,1 km/h (3 Bft) O 91 0 min 0,000 mm 2,0 UV-I 373 W/m 11,5 C 22,5 C 20,9 km/h (4 Bft) 100,00 %
22.05.2018 15:20 24,6 C 20,0 C 44 % 1009,6 hPa 0,0 l/m 16,3 km/h (3 Bft) O 100 0 min 0,000 mm 2,0 UV-I 375 W/m 11,5 C 22,6 C 20,9 km/h (4 Bft) 100,00 %
22.05.2018 15:21 24,6 C 20,0 C 44 % 1009,5 hPa 0,0 l/m 12,5 km/h (3 Bft) SO 127 0 min 0,000 mm 2,0 UV-I 380 W/m 11,5 C 23,2 C 20,9 km/h (4 Bft) 96,15 %
22.05.2018 15:22 24,6 C 20,0 C 44 % 1009,5 hPa 0,0 l/m 14,0 km/h (3 Bft) SO 133 0 min 0,000 mm 2,0 UV-I 392 W/m 11,5 C 23,0 C 19,3 km/h (3 Bft) 100,00 %
22.05.2018 15:23 24,6 C 20,0 C 44 % 1009,5 hPa 0,0 l/m 14,8 km/h (3 Bft) O-SO 103 0 min 0,000 mm 2,0 UV-I 395 W/m 11,5 C 22,9 C 20,9 km/h (4 Bft) 100,00 %
22.05.2018 15:24 24,7 C 20,0 C 43 % 1009,5 hPa 0,0 l/m 9,4 km/h (2 Bft) O 94 0 min 0,000 mm 2,0 UV-I 399 W/m 11,3 C 24,0 C 14,5 km/h (3 Bft) 100,00 %
22.05.2018 15:25 24,7 C 20,0 C 44 % 1009,5 hPa 0,0 l/m 7,7 km/h (2 Bft) O-NO 76 0 min 0,000 mm 2,1 UV-I 403 W/m 11,6 C 24,4 C 11,3 km/h (2 Bft) 100,00 %
22.05.2018 15:26 24,8 C 20,0 C 43 % 1009,5 hPa 0,0 l/m 13,3 km/h (3 Bft) O 93 0 min 0,000 mm 2,1 UV-I 413 W/m 11,4 C 23,3 C 17,7 km/h (3 Bft) 100,00 %
22.05.2018 15:27 24,8 C 20,0 C 43 % 1009,5 hPa 0,0 l/m 12,4 km/h (3 Bft) O-NO 78 1 min 0,000 mm 2,1 UV-I 461 W/m 11,4 C 23,5 C 16,1 km/h (3 Bft) 100,00 %
22.05.2018 15:28 24,8 C 20,0 C 42 % 1009,5 hPa 0,0 l/m 11,6 km/h (2 Bft) O 92 1 min 0,000 mm 2,1 UV-I 425 W/m 11,0 C 23,6 C 14,5 km/h (3 Bft) 100,00 %
22.05.2018 15:29 24,8 C 20,0 C 43 % 1009,5 hPa 0,0 l/m 11,5 km/h (2 Bft) O 93 1 min 0,000 mm 2,1 UV-I 434 W/m 11,4 C 23,6 C 14,5 km/h (3 Bft) 100,00 %
22.05.2018 15:30 24,8 C 20,0 C 43 % 1009,5 hPa 0,0 l/m 12,2 km/h (2 Bft) O 90 1 min 0,000 mm 2,2 UV-I 443 W/m 11,4 C 23,5 C 16,1 km/h (3 Bft) 100,00 %
22.05.2018 15:31 24,8 C 20,0 C 45 % 1009,5 hPa 0,0 l/m 9,6 km/h (2 Bft) NO 51 1 min 0,000 mm 2,2 UV-I 440 W/m 12,0 C 24,0 C 12,9 km/h (3 Bft) 95,83 %
22.05.2018 15:32 24,8 C 20,0 C 45 % 1009,5 hPa 0,0 l/m 11,7 km/h (2 Bft) O-NO 60 1 min 0,000 mm 2,2 UV-I 438 W/m 12,0 C 23,6 C 17,7 km/h (3 Bft) 100,00 %
22.05.2018 15:33 24,8 C 20,0 C 46 % 1009,5 hPa 0,0 l/m 16,8 km/h (3 Bft) NO 56 1 min 0,000 mm 2,2 UV-I 436 W/m 12,4 C 22,8 C 20,9 km/h (4 Bft) 100,00 %
22.05.2018 15:34 24,8 C 20,0 C 46 % 1009,5 hPa 0,0 l/m 14,8 km/h (3 Bft) NO 54 1 min 0,000 mm 2,2 UV-I 436 W/m 12,4 C 23,1 C 17,7 km/h (3 Bft) 100,00 %
22.05.2018 15:35 24,8 C 20,0 C 48 % 1009,5 hPa 0,0 l/m 12,1 km/h (2 Bft) O-NO 61 1 min 0,000 mm 2,2 UV-I 430 W/m 13,0 C 23,5 C 17,7 km/h (3 Bft) 100,00 %
22.05.2018 15:36 24,8 C 20,0 C 46 % 1009,5 hPa 0,0 l/m 13,1 km/h (3 Bft) O-NO 62 1 min 0,000 mm 2,2 UV-I 432 W/m 12,4 C 23,4 C 16,1 km/h (3 Bft) 100,00 %
22.05.2018 15:37 24,8 C 20,0 C 46 % 1009,5 hPa 0,0 l/m 13,8 km/h (3 Bft) O 89 1 min 0,000 mm 2,2 UV-I 429 W/m 12,4 C 23,3 C 19,3 km/h (3 Bft) 100,00 %
22.05.2018 15:38 24,8 C 20,0 C 46 % 1009,5 hPa 0,0 l/m 12,0 km/h (2 Bft) O 82 1 min 0,000 mm 2,2 UV-I 423 W/m 12,4 C 23,6 C 19,3 km/h (3 Bft) 96,15 %
22.05.2018 15:39 24,8 C 20,0 C 46 % 1009,5 hPa 0,0 l/m 12,2 km/h (2 Bft) O-SO 102 1 min 0,000 mm 2,2 UV-I 416 W/m 12,4 C 23,5 C 19,3 km/h (3 Bft) 100,00 %
22.05.2018 15:40 24,8 C 20,0 C 47 % 1009,5 hPa 0,0 l/m 12,6 km/h (3 Bft) O-SO 102 1 min 0,000 mm 2,2 UV-I 410 W/m 12,7 C 23,5 C 17,7 km/h (3 Bft) 100,00 %
22.05.2018 15:41 24,8 C 20,0 C 46 % 1009,5 hPa 0,0 l/m 14,2 km/h (3 Bft) O-SO 119 1 min 0,000 mm 2,2 UV-I 410 W/m 12,4 C 23,2 C 17,7 km/h (3 Bft) 100,00 %
22.05.2018 15:43 24,8 C 20,0 C 48 % 1009,3 hPa 0,0 l/m 13,7 km/h (3 Bft) O-SO 107 2 min 0,000 mm 2,4 UV-I 459 W/m 13,0 C 23,3 C 19,3 km/h (3 Bft) 100,00 %
22.05.2018 15:44 24,8 C 20,0 C 48 % 1009,3 hPa 0,0 l/m 15,8 km/h (3 Bft) O 85 1 min 0,000 mm 2,6 UV-I 468 W/m 13,0 C 22,9 C 17,7 km/h (3 Bft) 97,56 %
22.05.2018 15:45 24,9 C 20,0 C 48 % 1009,3 hPa 0,0 l/m 16,0 km/h (3 Bft) O-SO 105 1 min 0,000 mm 2,8 UV-I 485 W/m 13,1 C 23,0 C 20,9 km/h (4 Bft) 100,00 %
22.05.2018 15:46 25,0 C 20,0 C 48 % 1009,3 hPa 0,0 l/m 17,3 km/h (3 Bft) O 84 1 min 0,000 mm 2,6 UV-I 598 W/m 13,2 C 23,0 C 20,9 km/h (4 Bft) 100,00 %
22.05.2018 15:47 25,1 C 20,0 C 47 % 1009,3 hPa 0,0 l/m 15,9 km/h (3 Bft) O-NO 77 1 min 0,000 mm 2,6 UV-I 558 W/m 13,0 C 23,3 C 20,9 km/h (4 Bft) 100,00 %
22.05.2018 15:48 25,1 C 20,0 C 46 % 1009,3 hPa 0,0 l/m 16,3 km/h (3 Bft) O 84 1 min 0,000 mm 2,5 UV-I 534 W/m 12,7 C 23,2 C 20,9 km/h (4 Bft) 100,00 %
22.05.2018 15:49 25,1 C 20,0 C 45 % 1009,3 hPa 0,0 l/m 16,1 km/h (3 Bft) O 101 1 min 0,000 mm 2,5 UV-I 535 W/m 12,3 C 23,3 C 22,5 km/h (4 Bft) 96,15 %
22.05.2018 15:50 25,1 C 20,0 C 45 % 1009,2 hPa 0,0 l/m 13,8 km/h (3 Bft) O-NO 70 1 min 0,000 mm 2,5 UV-I 556 W/m 12,3 C 23,6 C 20,9 km/h (4 Bft) 100,00 %
22.05.2018 15:51 25,1 C 20,0 C 45 % 1009,2 hPa 0,0 l/m 14,6 km/h (3 Bft) O 82 1 min 0,000 mm 2,4 UV-I 483 W/m 12,3 C 23,5 C 20,9 km/h (4 Bft) 100,00 %
22.05.2018 15:52 25,1 C 20,0 C 47 % 1009,2 hPa 0,0 l/m 16,6 km/h (3 Bft) O-NO 70 1 min 0,000 mm 2,4 UV-I 556 W/m 13,0 C 23,2 C 19,3 km/h (3 Bft) 92,59 %
22.05.2018 15:53 25,0 C 20,0 C 46 % 1009,2 hPa 0,0 l/m 19,9 km/h (4 Bft) O-NO 78 1 min 0,000 mm 2,4 UV-I 554 W/m 12,6 C 22,7 C 24,1 km/h (4 Bft) 100,00 %
22.05.2018 15:54 25,1 C 20,0 C 47 % 1009,2 hPa 0,0 l/m 15,9 km/h (3 Bft) O-SO 107 1 min 0,000 mm 2,4 UV-I 522 W/m 13,0 C 23,3 C 24,1 km/h (4 Bft) 100,00 %
22.05.2018 15:55 25,1 C 20,0 C 47 % 1009,1 hPa 0,0 l/m 16,1 km/h (3 Bft) O-SO 111 1 min 0,000 mm 2,3 UV-I 497 W/m 13,0 C 23,3 C 24,1 km/h (4 Bft) 100,00 %
22.05.2018 15:56 25,1 C 20,0 C 46 % 1009,1 hPa 0,0 l/m 14,9 km/h (3 Bft) O 90 1 min 0,000 mm 2,2 UV-I 485 W/m 12,7 C 23,4 C 20,9 km/h (4 Bft) 100,00 %
22.05.2018 15:57 25,1 C 20,0 C 46 % 1009,1 hPa 0,0 l/m 19,4 km/h (3 Bft) O-SO 102 1 min 0,000 mm 2,2 UV-I 485 W/m 12,7 C 22,9 C 24,1 km/h (4 Bft) 100,00 %
22.05.2018 15:58 25,1 C 20,0 C 46 % 1009,2 hPa 0,0 l/m 19,8 km/h (3 Bft) O-SO 114 1 min 0,000 mm 2,2 UV-I 481 W/m 12,7 C 22,8 C 24,1 km/h (4 Bft) 100,00 %
22.05.2018 15:59 25,1 C 20,0 C 46 % 1009,1 hPa 0,0 l/m 16,8 km/h (3 Bft) O 82 1 min 0,000 mm 2,2 UV-I 488 W/m 12,7 C 23,2 C 22,5 km/h (4 Bft) 100,00 %
22.05.2018 16:00 25,1 C 20,0 C 47 % 1009,1 hPa 0,0 l/m 16,6 km/h (3 Bft) S-SO 147 1 min 0,000 mm 2,2 UV-I 507 W/m 13,0 C 23,2 C 22,5 km/h (4 Bft) 100,00 %
22.05.2018 16:02 25,1 C 20,0 C 48 % 1009,2 hPa 0,0 l/m 14,1 km/h (3 Bft) O 91 2 min 0,406 mm 2,2 UV-I 521 W/m 13,3 C 23,6 C 20,9 km/h (4 Bft) 100,00 %
22.05.2018 16:03 25,1 C 20,0 C 46 % 1009,2 hPa 0,0 l/m 15,3 km/h (3 Bft) O-SO 109 1 min 0,000 mm 2,2 UV-I 495 W/m 12,7 C 23,4 C 22,5 km/h (4 Bft) 100,00 %
22.05.2018 16:04 25,1 C 20,0 C 46 % 1009,2 hPa 0,0 l/m 16,1 km/h (3 Bft) O-NO 63 1 min 0,000 mm 2,1 UV-I 483 W/m 12,7 C 23,3 C 25,7 km/h (4 Bft) 100,00 %
22.05.2018 16:05 25,1 C 20,0 C 47 % 1009,2 hPa 0,0 l/m 17,8 km/h (3 Bft) NO 49 1 min 0,000 mm 2,1 UV-I 481 W/m 13,0 C 23,1 C 22,5 km/h (4 Bft) 100,00 %
22.05.2018 16:06 25,1 C 20,0 C 46 % 1009,2 hPa 0,0 l/m 14,8 km/h (3 Bft) NO 51 1 min 0,000 mm 2,0 UV-I 487 W/m 12,7 C 23,5 C 22,5 km/h (4 Bft) 98,15 %
22.05.2018 16:07 25,1 C 20,0 C 46 % 1009,3 hPa 0,0 l/m 18,6 km/h (3 Bft) O-SO 114 1 min 0,000 mm 2,0 UV-I 492 W/m 12,7 C 23,0 C 22,5 km/h (4 Bft) 97,87 %
22.05.2018 16:08 25,0 C 20,0 C 46 % 1009,3 hPa 0,0 l/m 18,0 km/h (3 Bft) O 80 1 min 0,000 mm 2,0 UV-I 504 W/m 12,6 C 22,9 C 24,1 km/h (4 Bft) 96,88 %
22.05.2018 16:09 25,0 C 20,0 C 46 % 1009,3 hPa 0,0 l/m 19,4 km/h (3 Bft) O-NO 71 1 min 0,000 mm 2,0 UV-I 510 W/m 12,6 C 22,7 C 25,7 km/h (4 Bft) 100,00 %
22.05.2018 16:10 25,0 C 20,0 C 46 % 1009,3 hPa 0,0 l/m 21,8 km/h (4 Bft) O-SO 105 1 min 0,000 mm 2,0 UV-I 555 W/m 12,6 C 22,5 C 30,6 km/h (5 Bft) 94,12 %
22.05.2018 16:11 25,1 C 20,0 C 48 % 1009,3 hPa 0,0 l/m 23,7 km/h (4 Bft) O-SO 107 1 min 0,000 mm 1,9 UV-I 580 W/m 13,3 C 22,4 C 29,0 km/h (5 Bft) 97,62 %
22.05.2018 16:12 25,1 C 20,0 C 46 % 1009,4 hPa 0,0 l/m 12,9 km/h (3 Bft) O-NO 72 1 min 0,000 mm 1,5 UV-I 580 W/m 12,7 C 23,8 C 22,5 km/h (4 Bft) 100,00 %
22.05.2018 16:13 25,0 C 20,0 C 47 % 1009,3 hPa 0,0 l/m 14,8 km/h (3 Bft) O 84 0 min 0,000 mm 1,2 UV-I 301 W/m 12,9 C 23,3 C 20,9 km/h (4 Bft) 96,97 %
22.05.2018 16:14 24,9 C 20,0 C 46 % 1009,3 hPa 0,0 l/m 19,6 km/h (3 Bft) O-SO 105 0 min 0,000 mm 1,1 UV-I 219 W/m 12,5 C 22,6 C 27,4 km/h (4 Bft) 100,00 %
22.05.2018 16:15 24,8 C 20,0 C 47 % 1009,3 hPa 0,0 l/m 19,8 km/h (3 Bft) O-NO 78 0 min 0,000 mm 1,1 UV-I 200 W/m 12,7 C 22,4 C 24,1 km/h (4 Bft) 96,30 %
22.05.2018 16:16 24,7 C 20,0 C 46 % 1009,3 hPa 0,0 l/m 19,5 km/h (3 Bft) O-SO 115 0 min 0,000 mm 1,0 UV-I 192 W/m 12,3 C 22,3 C 24,1 km/h (4 Bft) 95,65 %
22.05.2018 16:17 24,6 C 20,0 C 46 % 1009,4 hPa 0,0 l/m 18,6 km/h (3 Bft) O 86 0 min 0,000 mm 1,0 UV-I 183 W/m 12,2 C 22,3 C 24,1 km/h (4 Bft) 100,00 %
22.05.2018 16:18 24,5 C 20,0 C 47 % 1009,4 hPa 0,0 l/m 17,6 km/h (3 Bft) SO 126 0 min 0,000 mm 0,9 UV-I 175 W/m 12,4 C 22,3 C 27,4 km/h (4 Bft) 95,65 %
22.05.2018 16:19 24,4 C 20,0 C 48 % 1009,4 hPa 0,0 l/m 15,6 km/h (3 Bft) O-SO 110 0 min 0,000 mm 0,9 UV-I 171 W/m 12,7 C 22,5 C 19,3 km/h (3 Bft) 100,00 %
22.05.2018 16:20 24,4 C 20,0 C 48 % 1009,4 hPa 0,0 l/m 12,9 km/h (3 Bft) O-NO 62 0 min 0,000 mm 0,9 UV-I 167 W/m 12,7 C 22,9 C 19,3 km/h (3 Bft) 91,67 %
22.05.2018 16:21 24,3 C 20,0 C 49 % 1009,4 hPa 0,0 l/m 12,7 km/h (3 Bft) O 100 0 min 0,000 mm 0,8 UV-I 161 W/m 12,9 C 22,9 C 14,5 km/h (3 Bft) 100,00 %
22.05.2018 16:22 24,3 C 20,0 C 49 % 1009,5 hPa 0,0 l/m 13,2 km/h (3 Bft) O 100 0 min 0,000 mm 0,7 UV-I 154 W/m 12,9 C 22,8 C 19,3 km/h (3 Bft) 91,67 %
22.05.2018 16:23 24,2 C 20,0 C 49 % 1009,5 hPa 0,0 l/m 7,2 km/h (2 Bft) O-SO 117 0 min 0,000 mm 0,7 UV-I 149 W/m 12,8 C 24,0 C 11,3 km/h (2 Bft) 100,00 %
22.05.2018 16:24 24,2 C 20,0 C 50 % 1009,5 hPa 0,0 l/m 12,1 km/h (2 Bft) O 87 0 min 0,000 mm 0,7 UV-I 143 W/m 13,1 C 22,8 C 14,5 km/h (3 Bft) 95,24 %
22.05.2018 16:25 24,2 C 20,0 C 49 % 1009,5 hPa 0,0 l/m 11,2 km/h (2 Bft) O 101 0 min 0,000 mm 0,6 UV-I 138 W/m 12,8 C 23,0 C 14,5 km/h (3 Bft) 96,15 %
22.05.2018 16:26 24,2 C 20,0 C 49 % 1009,5 hPa 0,0 l/m 9,1 km/h (2 Bft) O 83 0 min 0,000 mm 0,6 UV-I 133 W/m 12,8 C 23,5 C 14,5 km/h (3 Bft) 100,00 %
22.05.2018 16:27 24,1 C 20,0 C 49 % 1009,5 hPa 0,0 l/m 16,0 km/h (3 Bft) O-NO 72 0 min 0,000 mm 0,6 UV-I 127 W/m 12,7 C 22,1 C 27,4 km/h (4 Bft) 95,65 %
22.05.2018 16:28 24,1 C 20,0 C 49 % 1009,5 hPa 0,0 l/m 22,6 km/h (4 Bft) O-SO 122 0 min 0,000 mm 0,5 UV-I 120 W/m 12,7 C 21,2 C 46,7 km/h (6 Bft) 100,00 %
22.05.2018 16:29 23,9 C 20,0 C 48 % 1009,7 hPa 0,0 l/m 39,6 km/h (6 Bft) O 91 0 min 0,000 mm 0,5 UV-I 111 W/m 12,2 C 19,5 C 54,7 km/h (7 Bft) 96,15 %
22.05.2018 16:30 23,8 C 20,0 C 49 % 1009,4 hPa 0,0 l/m 32,9 km/h (5 Bft) S-SO 167 0 min 0,000 mm 0,2 UV-I 101 W/m 12,4 C 19,8 C 51,5 km/h (7 Bft) 100,00 %
22.05.2018 16:31 23,6 C 20,0 C 48 % 1009,8 hPa 0,0 l/m 23,3 km/h (4 Bft) S-SO 167 0 min 0,000 mm 0,0 UV-I 91 W/m 11,9 C 20,4 C 30,6 km/h (5 Bft) 85,71 %
22.05.2018 16:32 23,2 C 20,0 C 48 % 1009,8 hPa 0,0 l/m 23,2 km/h (4 Bft) S 188 0 min 0,000 mm 0,0 UV-I 76 W/m 11,6 C 19,9 C 33,8 km/h (5 Bft) 96,97 %
22.05.2018 16:33 22,8 C 20,0 C 48 % 1009,9 hPa 0,0 l/m 27,2 km/h (4 Bft) S 177 0 min 0,000 mm 0,0 UV-I 71 W/m 11,2 C 18,9 C 45,1 km/h (6 Bft) 100,00 %
22.05.2018 16:34 22,5 C 20,0 C 49 % 1010,0 hPa 0,0 l/m 25,1 km/h (4 Bft) S-SO 161 0 min 0,000 mm 0,0 UV-I 69 W/m 11,2 C 18,8 C 35,4 km/h (5 Bft) 95,83 %
22.05.2018 16:35 22,3 C 20,0 C 50 % 1010,0 hPa 0,0 l/m 22,7 km/h (4 Bft) SO 136 0 min 0,000 mm 0,0 UV-I 66 W/m 11,4 C 18,8 C 29,0 km/h (5 Bft) 100,00 %
22.05.2018 16:36 22,1 C 20,0 C 51 % 1009,9 hPa 0,0 l/m 17,2 km/h (3 Bft) S-SO 168 0 min 0,000 mm 0,0 UV-I 65 W/m 11,5 C 19,4 C 20,9 km/h (4 Bft) 91,67 %
22.05.2018 16:37 21,9 C 20,0 C 51 % 1010,0 hPa 0,0 l/m 17,4 km/h (3 Bft) S 189 0 min 0,000 mm 0,0 UV-I 62 W/m 11,3 C 19,1 C 22,5 km/h (4 Bft) 96,15 %
22.05.2018 16:38 21,8 C 20,0 C 51 % 1010,0 hPa 0,0 l/m 16,7 km/h (3 Bft) S-SO 160 0 min 0,000 mm 0,0 UV-I 60 W/m 11,2 C 19,1 C 25,7 km/h (4 Bft) 100,00 %
22.05.2018 16:39 21,7 C 20,0 C 52 % 1010,0 hPa 0,0 l/m 16,0 km/h (3 Bft) S 185 0 min 0,000 mm 0,0 UV-I 57 W/m 11,4 C 19,1 C 25,7 km/h (4 Bft) 100,00 %
22.05.2018 16:40 21,5 C 20,0 C 52 % 1010,1 hPa 0,0 l/m 25,4 km/h (4 Bft) S-SW 196 0 min 0,000 mm 0,0 UV-I 54 W/m 11,2 C 17,4 C 30,6 km/h (5 Bft) 100,00 %
22.05.2018 16:41 21,4 C 20,0 C 53 % 1010,1 hPa 0,0 l/m 19,9 km/h (4 Bft) S-SO 161 0 min 0,000 mm 0,0 UV-I 50 W/m 11,4 C 18,0 C 27,4 km/h (4 Bft) 100,00 %
22.05.2018 16:42 21,2 C 20,0 C 54 % 1010,1 hPa 0,0 l/m 20,2 km/h (4 Bft) S 175 0 min 0,000 mm 0,0 UV-I 47 W/m 11,5 C 17,7 C 29,0 km/h (5 Bft) 100,00 %
22.05.2018 16:43 21,1 C 20,0 C 54 % 1010,1 hPa 0,0 l/m 15,3 km/h (3 Bft) S 172 0 min 0,000 mm 0,0 UV-I 42 W/m 11,4 C 18,5 C 22,5 km/h (4 Bft) 100,00 %
22.05.2018 16:44 21,1 C 20,0 C 55 % 1010,0 hPa 0,0 l/m 12,5 km/h (3 Bft) S 181 0 min 0,000 mm 0,0 UV-I 40 W/m 11,7 C 19,2 C 17,7 km/h (3 Bft) 96,88 %
22.05.2018 16:45 21,0 C 20,0 C 55 % 1010,1 hPa 0,0 l/m 16,4 km/h (3 Bft) S 182 0 min 0,000 mm 0,0 UV-I 38 W/m 11,6 C 18,2 C 24,1 km/h (4 Bft) 100,00 %
22.05.2018 16:46 20,9 C 20,0 C 55 % 1010,2 hPa 0,0 l/m 11,9 km/h (2 Bft) SO 136 0 min 0,000 mm 0,0 UV-I 36 W/m 11,5 C 19,1 C 19,3 km/h (3 Bft) 100,00 %
22.05.2018 16:48 20,8 C 20,0 C 57 % 1010,2 hPa 0,0 l/m 14,0 km/h (3 Bft) SO 139 0 min 0,000 mm 0,0 UV-I 35 W/m 12,0 C 18,4 C 20,9 km/h (4 Bft) 100,00 %
22.05.2018 16:49 20,7 C 20,0 C 58 % 1010,2 hPa 0,0 l/m 15,7 km/h (3 Bft) SO 143 0 min 0,000 mm 0,0 UV-I 35 W/m 12,1 C 17,9 C 22,5 km/h (4 Bft) 100,00 %
22.05.2018 16:50 20,6 C 20,0 C 59 % 1010,2 hPa 0,0 l/m 13,5 km/h (3 Bft) S 175 0 min 0,000 mm 0,0 UV-I 35 W/m 12,3 C 18,3 C 19,3 km/h (3 Bft) 100,00 %
22.05.2018 16:51 20,3 C 20,0 C 60 % 1010,2 hPa 0,0 l/m 15,6 km/h (3 Bft) S-SO 166 0 min 0,000 mm 0,0 UV-I 36 W/m 12,3 C 17,5 C 25,7 km/h (4 Bft) 100,00 %
22.05.2018 16:52 20,2 C 20,0 C 61 % 1010,2 hPa 0,0 l/m 18,1 km/h (3 Bft) SO 142 0 min 0,000 mm 0,0 UV-I 37 W/m 12,4 C 16,8 C 22,5 km/h (4 Bft) 100,00 %
22.05.2018 16:53 19,9 C 20,0 C 63 % 1010,3 hPa 0,0 l/m 10,9 km/h (2 Bft) S-SO 152 0 min 0,000 mm 0,0 UV-I 38 W/m 12,6 C 18,2 C 16,1 km/h (3 Bft) 100,00 %
22.05.2018 16:54 19,8 C 20,0 C 63 % 1010,3 hPa 0,0 l/m 8,1 km/h (2 Bft) SO 140 0 min 0,000 mm 0,0 UV-I 40 W/m 12,5 C 19,1 C 12,9 km/h (3 Bft) 100,00 %
22.05.2018 16:55 19,6 C 20,0 C 64 % 1010,4 hPa 0,0 l/m 16,3 km/h (3 Bft) SO 143 0 min 0,000 mm 0,0 UV-I 42 W/m 12,6 C 16,5 C 19,3 km/h (3 Bft) 100,00 %
22.05.2018 16:56 19,5 C 20,0 C 64 % 1010,3 hPa 0,0 l/m 9,4 km/h (2 Bft) SO 141 0 min 0,000 mm 0,0 UV-I 45 W/m 12,5 C 18,3 C 14,5 km/h (3 Bft) 100,00 %
22.05.2018 16:57 19,4 C 20,0 C 66 % 1010,4 hPa 0,0 l/m 9,1 km/h (2 Bft) SO 132 0 min 0,000 mm 0,0 UV-I 46 W/m 12,9 C 18,3 C 14,5 km/h (3 Bft) 96,30 %
22.05.2018 16:58 19,3 C 20,0 C 67 % 1010,4 hPa 0,0 l/m 8,4 km/h (2 Bft) SO 142 0 min 0,000 mm 0,0 UV-I 48 W/m 13,0 C 18,5 C 12,9 km/h (3 Bft) 100,00 %
22.05.2018 16:59 19,2 C 20,0 C 68 % 1010,4 hPa 0,0 l/m 6,6 km/h (2 Bft) SO 141 0 min 0,000 mm 0,0 UV-I 52 W/m 13,1 C 19,1 C 11,3 km/h (2 Bft) 95,65 %
22.05.2018 17:00 19,2 C 20,0 C 68 % 1010,3 hPa 0,0 l/m 10,3 km/h (2 Bft) SO 132 0 min 0,000 mm 0,0 UV-I 54 W/m 13,1 C 17,7 C 12,9 km/h (3 Bft) 100,00 %
22.05.2018 17:02 18,9 C 20,0 C 68 % 1010,4 hPa 0,0 l/m 10,1 km/h (2 Bft) SO 132 0 min 0,229 mm 0,0 UV-I 59 W/m 12,9 C 17,4 C 12,9 km/h (3 Bft) 100,00 %
22.05.2018 17:03 18,9 C 20,0 C 69 % 1010,3 hPa 0,0 l/m 7,0 km/h (2 Bft) O-SO 109 0 min 0,000 mm 0,0 UV-I 64 W/m 13,1 C 18,6 C 11,3 km/h (2 Bft) 100,00 %
22.05.2018 17:04 18,9 C 20,0 C 69 % 1010,4 hPa 0,0 l/m 5,8 km/h (2 Bft) SO 124 0 min 0,000 mm 0,0 UV-I 67 W/m 13,1 C 18,9 C 9,7 km/h (2 Bft) 100,00 %
22.05.2018 17:05 18,8 C 20,0 C 70 % 1010,4 hPa 0,0 l/m 9,5 km/h (2 Bft) O 81 0 min 0,000 mm 0,0 UV-I 70 W/m 13,2 C 17,5 C 16,1 km/h (3 Bft) 100,00 %
22.05.2018 17:06 18,8 C 20,0 C 70 % 1010,3 hPa 0,0 l/m 7,2 km/h (2 Bft) O-SO 107 0 min 0,000 mm 0,0 UV-I 72 W/m 13,2 C 18,4 C 12,9 km/h (3 Bft) 100,00 %
22.05.2018 17:07 18,8 C 20,0 C 70 % 1010,3 hPa 0,0 l/m 5,2 km/h (1 Bft) O-SO 106 0 min 0,000 mm 0,0 UV-I 74 W/m 13,2 C 18,8 C 9,7 km/h (2 Bft) 100,00 %
22.05.2018 17:08 18,8 C 20,0 C 70 % 1010,3 hPa 0,0 l/m 9,0 km/h (2 Bft) O-SO 103 0 min 0,000 mm 0,0 UV-I 76 W/m 13,2 C 17,7 C 14,5 km/h (3 Bft) 100,00 %
22.05.2018 17:09 18,8 C 20,0 C 70 % 1010,3 hPa 0,0 l/m 11,6 km/h (2 Bft) O 90 0 min 0,000 mm 0,0 UV-I 76 W/m 13,2 C 16,8 C 16,1 km/h (3 Bft) 100,00 %
22.05.2018 17:10 18,8 C 20,0 C 69 % 1010,3 hPa 0,0 l/m 12,2 km/h (2 Bft) O-SO 113 0 min 0,000 mm 0,0 UV-I 78 W/m 13,0 C 16,6 C 16,1 km/h (3 Bft) 100,00 %
22.05.2018 17:11 18,8 C 20,0 C 69 % 1010,3 hPa 0,0 l/m 14,4 km/h (3 Bft) O-SO 109 0 min 0,000 mm 0,0 UV-I 79 W/m 13,0 C 16,0 C 19,3 km/h (3 Bft) 100,00 %
22.05.2018 17:12 18,8 C 20,0 C 69 % 1010,3 hPa 0,0 l/m 12,7 km/h (3 Bft) O-SO 121 0 min 0,000 mm 0,0 UV-I 81 W/m 13,0 C 16,4 C 16,1 km/h (3 Bft) 100,00 %
22.05.2018 17:13 18,8 C 20,0 C 69 % 1010,2 hPa 0,0 l/m 16,1 km/h (3 Bft) O-SO 119 0 min 0,000 mm 0,0 UV-I 83 W/m 13,0 C 15,5 C 20,9 km/h (4 Bft) 100,00 %
22.05.2018 17:14 18,9 C 20,0 C 69 % 1010,3 hPa 0,0 l/m 7,7 km/h (2 Bft) SO 141 0 min 0,000 mm 0,0 UV-I 84 W/m 13,1 C 18,3 C 12,9 km/h (3 Bft) 100,00 %
22.05.2018 17:15 18,9 C 20,0 C 69 % 1010,2 hPa 0,0 l/m 13,4 km/h (3 Bft) SO 139 0 min 0,000 mm 0,0 UV-I 87 W/m 13,1 C 16,3 C 14,5 km/h (3 Bft) 100,00 %
22.05.2018 17:16 19,0 C 20,0 C 68 % 1010,3 hPa 0,0 l/m 12,3 km/h (3 Bft) S-SO 159 0 min 0,000 mm 0,0 UV-I 88 W/m 13,0 C 16,8 C 16,1 km/h (3 Bft) 100,00 %
22.05.2018 17:17 19,0 C 20,0 C 68 % 1010,2 hPa 0,0 l/m 11,4 km/h (2 Bft) SO 143 0 min 0,000 mm 0,0 UV-I 89 W/m 13,0 C 17,1 C 16,1 km/h (3 Bft) 100,00 %
22.05.2018 17:18 19,1 C 20,0 C 68 % 1010,2 hPa 0,0 l/m 7,3 km/h (2 Bft) S-SO 156 0 min 0,000 mm 0,0 UV-I 90 W/m 13,1 C 18,7 C 11,3 km/h (2 Bft) 96,15 %
22.05.2018 17:19 19,2 C 20,0 C 68 % 1010,2 hPa 0,0 l/m 8,0 km/h (2 Bft) SO 133 0 min 0,000 mm 0,0 UV-I 90 W/m 13,1 C 18,5 C 11,3 km/h (2 Bft) 100,00 %
22.05.2018 17:20 19,2 C 20,0 C 68 % 1010,3 hPa 0,0 l/m 10,8 km/h (2 Bft) S-SO 152 0 min 0,000 mm 0,0 UV-I 88 W/m 13,1 C 17,5 C 14,5 km/h (3 Bft) 100,00 %
22.05.2018 17:21 19,2 C 20,0 C 67 % 1010,3 hPa 0,0 l/m 9,2 km/h (2 Bft) SO 146 0 min 0,000 mm 0,0 UV-I 87 W/m 12,9 C 18,0 C 12,9 km/h (3 Bft) 100,00 %
22.05.2018 17:22 19,3 C 20,0 C 68 % 1010,3 hPa 0,0 l/m 6,6 km/h (2 Bft) SO 127 0 min 0,000 mm 0,0 UV-I 86 W/m 13,2 C 19,2 C 11,3 km/h (2 Bft) 95,65 %
22.05.2018 17:23 19,3 C 20,0 C 68 % 1010,3 hPa 0,0 l/m 5,5 km/h (1 Bft) S-SO 157 0 min 0,000 mm 0,0 UV-I 85 W/m 13,2 C 19,3 C 9,7 km/h (2 Bft) 100,00 %
22.05.2018 17:24 19,3 C 20,0 C 68 % 1010,3 hPa 0,0 l/m 4,2 km/h (1 Bft) S-SO 148 0 min 0,000 mm 0,0 UV-I 83 W/m 13,2 C 19,3 C 6,4 km/h (2 Bft) 98,19 %
22.05.2018 17:25 19,4 C 20,0 C 68 % 1010,3 hPa 0,0 l/m 6,3 km/h (2 Bft) S-SO 158 0 min 0,000 mm 0,0 UV-I 83 W/m 13,3 C 19,4 C 9,7 km/h (2 Bft) 100,00 %
22.05.2018 17:26 19,4 C 20,0 C 68 % 1010,2 hPa 0,0 l/m 6,6 km/h (2 Bft) SO 146 0 min 0,000 mm 0,0 UV-I 81 W/m 13,3 C 19,3 C 11,3 km/h (2 Bft) 100,00 %
22.05.2018 17:27 19,4 C 20,0 C 68 % 1010,3 hPa 0,0 l/m 8,5 km/h (2 Bft) S-SO 155 0 min 0,000 mm 0,0 UV-I 80 W/m 13,3 C 18,5 C 11,3 km/h (2 Bft) 100,00 %
22.05.2018 17:28 19,3 C 20,0 C 68 % 1010,2 hPa 0,0 l/m 4,5 km/h (1 Bft) S-SO 162 0 min 0,000 mm 0,0 UV-I 79 W/m 13,2 C 19,3 C 8,0 km/h (2 Bft) 100,00 %
22.05.2018 17:29 19,4 C 20,0 C 68 % 1010,2 hPa 0,0 l/m 7,4 km/h (2 Bft) S-SO 153 0 min 0,000 mm 0,0 UV-I 79 W/m 13,3 C 19,0 C 9,7 km/h (2 Bft) 100,00 %
22.05.2018 17:30 19,3 C 20,0 C 68 % 1010,2 hPa 0,0 l/m 6,1 km/h (2 Bft) S-SO 161 0 min 0,000 mm 0,0 UV-I 79 W/m 13,2 C 19,3 C 8,0 km/h (2 Bft) 92,31 %
22.05.2018 17:31 19,3 C 20,0 C 68 % 1010,2 hPa 0,0 l/m 5,6 km/h (1 Bft) SO 128 0 min 0,000 mm 0,0 UV-I 79 W/m 13,2 C 19,3 C 8,0 km/h (2 Bft) 100,00 %
22.05.2018 17:32 19,3 C 20,0 C 69 % 1010,2 hPa 0,0 l/m 7,5 km/h (2 Bft) S-SO 150 0 min 0,000 mm 0,0 UV-I 82 W/m 13,5 C 18,8 C 9,7 km/h (2 Bft) 95,65 %
22.05.2018 17:33 19,3 C 20,0 C 69 % 1010,2 hPa 0,0 l/m 6,7 km/h (2 Bft) S-SO 154 0 min 0,000 mm 0,0 UV-I 83 W/m 13,5 C 19,2 C 11,3 km/h (2 Bft) 100,00 %
22.05.2018 17:34 19,3 C 20,0 C 69 % 1010,1 hPa 0,0 l/m 7,3 km/h (2 Bft) SO 142 0 min 0,000 mm 0,0 UV-I 84 W/m 13,5 C 18,9 C 11,3 km/h (2 Bft) 96,15 %
22.05.2018 17:35 19,3 C 20,0 C 69 % 1010,1 hPa 0,0 l/m 8,0 km/h (2 Bft) SO 144 0 min 0,000 mm 0,0 UV-I 84 W/m 13,5 C 18,6 C 11,3 km/h (2 Bft) 100,00 %
22.05.2018 17:36 19,3 C 20,0 C 70 % 1010,1 hPa 0,0 l/m 8,3 km/h (2 Bft) S-SO 150 0 min 0,000 mm 0,0 UV-I 84 W/m 13,7 C 18,5 C 12,9 km/h (3 Bft) 93,75 %
22.05.2018 17:37 19,3 C 20,0 C 70 % 1010,1 hPa 0,0 l/m 11,7 km/h (2 Bft) SO 125 0 min 0,000 mm 0,0 UV-I 83 W/m 13,7 C 17,3 C 16,1 km/h (3 Bft) 100,00 %
22.05.2018 17:38 19,3 C 20,0 C 69 % 1010,1 hPa 0,0 l/m 10,9 km/h (2 Bft) S-SO 151 0 min 0,000 mm 0,0 UV-I 82 W/m 13,5 C 17,6 C 14,5 km/h (3 Bft) 93,33 %
22.05.2018 17:39 19,2 C 20,0 C 70 % 1010,0 hPa 0,0 l/m 11,2 km/h (2 Bft) S-SO 155 0 min 0,000 mm 0,0 UV-I 81 W/m 13,6 C 17,4 C 12,9 km/h (3 Bft) 100,00 %
22.05.2018 17:40 19,2 C 20,0 C 70 % 1010,0 hPa 0,0 l/m 10,4 km/h (2 Bft) SO 135 0 min 0,000 mm 0,0 UV-I 81 W/m 13,6 C 17,6 C 12,9 km/h (3 Bft) 96,30 %
22.05.2018 17:41 19,2 C 20,0 C 70 % 1010,0 hPa 0,0 l/m 9,8 km/h (2 Bft) SO 132 0 min 0,000 mm 0,0 UV-I 79 W/m 13,6 C 17,8 C 12,9 km/h (3 Bft) 100,00 %
22.05.2018 17:42 19,2 C 20,0 C 70 % 1010,0 hPa 0,0 l/m 10,5 km/h (2 Bft) S-SO 152 0 min 0,000 mm 0,0 UV-I 79 W/m 13,6 C 17,6 C 14,5 km/h (3 Bft) 96,67 %
22.05.2018 17:43 19,2 C 20,0 C 70 % 1010,0 hPa 0,0 l/m 11,6 km/h (2 Bft) SO 135 0 min 0,000 mm 0,0 UV-I 77 W/m 13,6 C 17,2 C 14,5 km/h (3 Bft) 100,00 %
22.05.2018 17:44 19,2 C 20,0 C 70 % 1010,0 hPa 0,0 l/m 9,5 km/h (2 Bft) SO 142 0 min 0,000 mm 0,0 UV-I 76 W/m 13,6 C 17,9 C 14,5 km/h (3 Bft) 96,30 %
22.05.2018 17:45 19,2 C 20,0 C 70 % 1010,0 hPa 0,0 l/m 13,9 km/h (3 Bft) SO 130 0 min 0,000 mm 0,0 UV-I 76 W/m 13,6 C 16,6 C 19,3 km/h (3 Bft) 96,15 %
22.05.2018 17:46 19,2 C 20,0 C 71 % 1010,0 hPa 0,0 l/m 9,5 km/h (2 Bft) SO 144 0 min 0,000 mm 0,0 UV-I 75 W/m 13,8 C 17,9 C 14,5 km/h (3 Bft) 100,00 %
22.05.2018 17:48 19,2 C 20,0 C 71 % 1010,0 hPa 0,0 l/m 10,8 km/h (2 Bft) SO 146 0 min 0,000 mm 0,0 UV-I 73 W/m 13,8 C 17,5 C 16,1 km/h (3 Bft) 98,11 %
22.05.2018 17:49 19,2 C 20,0 C 71 % 1010,0 hPa 0,0 l/m 7,9 km/h (2 Bft) SO 134 0 min 0,000 mm 0,0 UV-I 72 W/m 13,8 C 18,6 C 12,9 km/h (3 Bft) 95,65 %
22.05.2018 17:50 19,1 C 20,0 C 71 % 1010,0 hPa 0,0 l/m 9,1 km/h (2 Bft) S-SO 162 0 min 0,000 mm 0,0 UV-I 72 W/m 13,7 C 18,0 C 11,3 km/h (2 Bft) 96,67 %
22.05.2018 17:51 19,1 C 20,0 C 71 % 1010,0 hPa 0,0 l/m 9,1 km/h (2 Bft) SO 132 0 min 0,000 mm 0,0 UV-I 71 W/m 13,7 C 18,0 C 14,5 km/h (3 Bft) 100,00 %
22.05.2018 17:52 19,1 C 20,0 C 71 % 1009,9 hPa 0,0 l/m 7,3 km/h (2 Bft) SO 140 0 min 0,000 mm 0,0 UV-I 70 W/m 13,7 C 18,7 C 14,5 km/h (3 Bft) 100,00 %
22.05.2018 17:53 19,2 C 20,0 C 71 % 1009,9 hPa 0,0 l/m 6,6 km/h (2 Bft) SO 143 0 min 0,000 mm 0,0 UV-I 70 W/m 13,8 C 19,1 C 9,7 km/h (2 Bft) 93,33 %
22.05.2018 17:54 19,2 C 20,0 C 71 % 1009,9 hPa 0,0 l/m 11,7 km/h (2 Bft) SO 138 0 min 0,000 mm 0,0 UV-I 70 W/m 13,8 C 17,2 C 16,1 km/h (3 Bft) 95,12 %
22.05.2018 17:55 19,2 C 20,0 C 71 % 1009,9 hPa 0,0 l/m 9,6 km/h (2 Bft) S-SO 150 0 min 0,000 mm 0,0 UV-I 69 W/m 13,8 C 17,9 C 14,5 km/h (3 Bft) 100,00 %
22.05.2018 17:56 19,2 C 20,0 C 71 % 1009,9 hPa 0,0 l/m 10,7 km/h (2 Bft) SO 128 0 min 0,000 mm 0,0 UV-I 69 W/m 13,8 C 17,5 C 14,5 km/h (3 Bft) 98,17 %
22.05.2018 17:58 19,1 C 20,0 C 71 % 1010,0 hPa 0,0 l/m 10,6 km/h (2 Bft) SO 124 0 min 0,000 mm 0,0 UV-I 67 W/m 13,7 C 17,4 C 14,5 km/h (3 Bft) 97,06 %
22.05.2018 17:59 19,1 C 20,0 C 72 % 1010,0 hPa 0,0 l/m 10,3 km/h (2 Bft) O-SO 115 0 min 0,000 mm 0,0 UV-I 67 W/m 13,9 C 17,5 C 14,5 km/h (3 Bft) 95,83 %
22.05.2018 18:00 19,1 C 20,0 C 72 % 1010,0 hPa 0,0 l/m 9,0 km/h (2 Bft) SO 142 0 min 0,000 mm 0,0 UV-I 67 W/m 13,9 C 18,0 C 12,9 km/h (3 Bft) 92,31 %
22.05.2018 18:02 19,1 C 20,0 C 72 % 1010,0 hPa 0,0 l/m 10,1 km/h (2 Bft) O-SO 115 0 min 0,076 mm 0,0 UV-I 67 W/m 13,9 C 17,6 C 12,9 km/h (3 Bft) 92,68 %
22.05.2018 18:03 19,1 C 20,0 C 72 % 1009,9 hPa 0,0 l/m 9,7 km/h (2 Bft) O-SO 119 0 min 0,000 mm 0,0 UV-I 67 W/m 13,9 C 17,8 C 11,3 km/h (2 Bft) 96,30 %
22.05.2018 18:04 19,1 C 20,0 C 73 % 1010,0 hPa 0,0 l/m 8,7 km/h (2 Bft) SO 127 0 min 0,000 mm 0,0 UV-I 67 W/m 14,1 C 18,1 C 12,9 km/h (3 Bft) 95,65 %
22.05.2018 18:05 19,1 C 20,0 C 72 % 1010,0 hPa 0,0 l/m 5,8 km/h (2 Bft) SO 128 0 min 0,000 mm 0,0 UV-I 65 W/m 13,9 C 19,1 C 8,0 km/h (2 Bft) 95,83 %
22.05.2018 18:06 19,1 C 20,0 C 72 % 1009,9 hPa 0,0 l/m 6,3 km/h (2 Bft) SO 129 0 min 0,000 mm 0,0 UV-I 65 W/m 13,9 C 19,1 C 8,0 km/h (2 Bft) 94,12 %
22.05.2018 18:07 19,2 C 20,0 C 73 % 1009,9 hPa 0,0 l/m 6,4 km/h (2 Bft) SO 136 0 min 0,000 mm 0,0 UV-I 65 W/m 14,2 C 19,2 C 8,0 km/h (2 Bft) 95,83 %
22.05.2018 18:08 19,2 C 20,0 C 72 % 1009,9 hPa 0,0 l/m 5,4 km/h (1 Bft) SO 144 0 min 0,000 mm 0,0 UV-I 65 W/m 14,0 C 19,2 C 6,4 km/h (2 Bft) 96,15 %
22.05.2018 18:09 19,2 C 20,0 C 73 % 1009,9 hPa 0,0 l/m 2,9 km/h (1 Bft) O-SO 120 0 min 0,000 mm 0,0 UV-I 65 W/m 14,2 C 19,2 C 4,8 km/h (1 Bft) 92,59 %
22.05.2018 18:10 19,2 C 20,0 C 73 % 1009,9 hPa 0,0 l/m 5,8 km/h (2 Bft) SO 132 0 min 0,000 mm 0,0 UV-I 65 W/m 14,2 C 19,2 C 8,0 km/h (2 Bft) 100,00 %
22.05.2018 18:11 19,2 C 20,0 C 72 % 1009,9 hPa 0,0 l/m 5,6 km/h (1 Bft) SO 134 0 min 0,000 mm 0,0 UV-I 65 W/m 14,0 C 19,2 C 8,0 km/h (2 Bft) 86,96 %
22.05.2018 18:12 19,2 C 20,0 C 72 % 1009,9 hPa 0,0 l/m 6,9 km/h (2 Bft) SO 138 0 min 0,000 mm 0,0 UV-I 65 W/m 14,0 C 19,0 C 11,3 km/h (2 Bft) 100,00 %
22.05.2018 18:13 19,2 C 20,0 C 73 % 1009,9 hPa 0,0 l/m 8,0 km/h (2 Bft) SO 134 0 min 0,000 mm 0,0 UV-I 65 W/m 14,2 C 18,5 C 11,3 km/h (2 Bft) 92,31 %
22.05.2018 18:14 19,2 C 20,0 C 73 % 1009,9 hPa 0,0 l/m 7,2 km/h (2 Bft) SO 132 0 min 0,000 mm 0,0 UV-I 65 W/m 14,2 C 18,9 C 9,7 km/h (2 Bft) 96,67 %
22.05.2018 18:15 19,2 C 20,0 C 72 % 1009,9 hPa 0,0 l/m 6,4 km/h (2 Bft) SO 146 0 min 0,000 mm 0,0 UV-I 66 W/m 14,0 C 19,2 C 11,3 km/h (2 Bft) 95,65 %
22.05.2018 18:16 19,2 C 20,0 C 72 % 1009,9 hPa 0,0 l/m 9,7 km/h (2 Bft) S-SO 165 0 min 0,000 mm 0,0 UV-I 67 W/m 14,0 C 17,9 C 12,9 km/h (3 Bft) 91,67 %
22.05.2018 18:17 19,2 C 20,0 C 72 % 1009,9 hPa 0,0 l/m 7,4 km/h (2 Bft) SO 139 0 min 0,000 mm 0,0 UV-I 67 W/m 14,0 C 18,8 C 9,7 km/h (2 Bft) 100,00 %
22.05.2018 18:18 19,2 C 20,0 C 73 % 1009,8 hPa 0,0 l/m 4,8 km/h (1 Bft) SO 137 0 min 0,000 mm 0,0 UV-I 69 W/m 14,2 C 19,2 C 6,4 km/h (2 Bft) 91,67 %
22.05.2018 18:19 19,2 C 20,0 C 73 % 1009,8 hPa 0,0 l/m 7,0 km/h (2 Bft) SO 140 0 min 0,000 mm 0,0 UV-I 69 W/m 14,2 C 18,9 C 8,0 km/h (2 Bft) 100,00 %
22.05.2018 18:20 19,2 C 20,0 C 73 % 1009,8 hPa 0,0 l/m 6,3 km/h (2 Bft) SO 144 0 min 0,000 mm 0,0 UV-I 69 W/m 14,2 C 19,2 C 6,4 km/h (2 Bft) 92,59 %
22.05.2018 18:21 19,2 C 20,0 C 73 % 1009,8 hPa 0,0 l/m 8,2 km/h (2 Bft) SO 131 0 min 0,000 mm 0,0 UV-I 69 W/m 14,2 C 18,4 C 12,9 km/h (3 Bft) 100,00 %
22.05.2018 18:22 19,2 C 20,0 C 73 % 1009,8 hPa 0,0 l/m 6,8 km/h (2 Bft) SO 143 0 min 0,000 mm 0,0 UV-I 70 W/m 14,2 C 19,0 C 8,0 km/h (2 Bft) 95,24 %
22.05.2018 18:23 19,2 C 20,0 C 73 % 1009,8 hPa 0,0 l/m 8,8 km/h (2 Bft) SO 140 0 min 0,000 mm 0,0 UV-I 70 W/m 14,2 C 18,2 C 11,3 km/h (2 Bft) 100,00 %
22.05.2018 18:24 19,2 C 20,0 C 73 % 1009,8 hPa 0,0 l/m 10,5 km/h (2 Bft) SO 129 0 min 0,000 mm 0,0 UV-I 71 W/m 14,2 C 17,6 C 14,5 km/h (3 Bft) 93,33 %
22.05.2018 18:25 19,1 C 20,0 C 73 % 1009,8 hPa 0,0 l/m 8,9 km/h (2 Bft) S-SO 158 0 min 0,000 mm 0,0 UV-I 73 W/m 14,1 C 18,0 C 12,9 km/h (3 Bft) 96,15 %
22.05.2018 18:26 19,1 C 20,0 C 73 % 1009,7 hPa 0,0 l/m 9,1 km/h (2 Bft) S-SO 150 0 min 0,000 mm 0,0 UV-I 74 W/m 14,1 C 18,0 C 12,9 km/h (3 Bft) 100,00 %
22.05.2018 18:27 19,1 C 20,0 C 73 % 1009,8 hPa 0,0 l/m 9,4 km/h (2 Bft) SO 144 0 min 0,000 mm 0,0 UV-I 74 W/m 14,1 C 17,9 C 12,9 km/h (3 Bft) 96,15 %
22.05.2018 18:28 19,1 C 20,0 C 73 % 1009,7 hPa 0,0 l/m 6,8 km/h (2 Bft) O-SO 121 0 min 0,000 mm 0,0 UV-I 74 W/m 14,1 C 18,9 C 11,3 km/h (2 Bft) 96,30 %
22.05.2018 18:29 19,1 C 20,0 C 73 % 1009,7 hPa 0,0 l/m 9,9 km/h (2 Bft) SO 130 0 min 0,000 mm 0,0 UV-I 74 W/m 14,1 C 17,7 C 12,9 km/h (3 Bft) 91,30 %
22.05.2018 18:30 19,1 C 20,0 C 73 % 1009,7 hPa 0,0 l/m 8,6 km/h (2 Bft) O-SO 119 0 min 0,000 mm 0,0 UV-I 72 W/m 14,1 C 18,2 C 11,3 km/h (2 Bft) 100,00 %
22.05.2018 18:31 19,1 C 20,0 C 73 % 1009,7 hPa 0,0 l/m 10,5 km/h (2 Bft) S-SO 149 0 min 0,000 mm 0,0 UV-I 70 W/m 14,1 C 17,5 C 12,9 km/h (3 Bft) 92,31 %
22.05.2018 18:32 19,1 C 20,0 C 73 % 1009,6 hPa 0,0 l/m 7,3 km/h (2 Bft) S-SO 151 0 min 0,000 mm 0,0 UV-I 69 W/m 14,1 C 18,7 C 9,7 km/h (2 Bft) 100,00 %
22.05.2018 18:33 19,1 C 20,0 C 73 % 1009,6 hPa 0,0 l/m 7,8 km/h (2 Bft) S-SO 163 0 min 0,000 mm 0,0 UV-I 68 W/m 14,1 C 18,5 C 12,9 km/h (3 Bft) 91,67 %
22.05.2018 18:34 19,1 C 20,0 C 73 % 1009,6 hPa 0,0 l/m 7,5 km/h (2 Bft) S-SO 153 0 min 0,000 mm 0,0 UV-I 65 W/m 14,1 C 18,6 C 11,3 km/h (2 Bft) 100,00 %
22.05.2018 18:35 19,1 C 20,0 C 73 % 1009,6 hPa 0,0 l/m 5,1 km/h (1 Bft) S-SO 159 0 min 0,000 mm 0,0 UV-I 63 W/m 14,1 C 19,1 C 9,7 km/h (2 Bft) 96,30 %
22.05.2018 18:36 19,1 C 20,0 C 73 % 1009,6 hPa 0,0 l/m 6,3 km/h (2 Bft) S-SO 165 0 min 0,000 mm 0,0 UV-I 63 W/m 14,1 C 19,1 C 9,7 km/h (2 Bft) 93,10 %
22.05.2018 18:37 19,1 C 20,0 C 74 % 1009,6 hPa 0,0 l/m 6,9 km/h (2 Bft) S-SW 205 0 min 0,000 mm 0,0 UV-I 62 W/m 14,4 C 18,9 C 8,0 km/h (2 Bft) 100,00 %
22.05.2018 18:38 19,1 C 20,0 C 74 % 1009,7 hPa 0,0 l/m 7,8 km/h (2 Bft) S-SW 209 0 min 0,000 mm 0,0 UV-I 61 W/m 14,4 C 18,5 C 9,7 km/h (2 Bft) 100,00 %
22.05.2018 18:39 19,1 C 20,0 C 74 % 1009,7 hPa 0,0 l/m 9,1 km/h (2 Bft) S-SW 213 0 min 0,000 mm 0,0 UV-I 60 W/m 14,4 C 18,0 C 12,9 km/h (3 Bft) 100,00 %
22.05.2018 18:40 19,0 C 20,0 C 75 % 1009,8 hPa 0,0 l/m 5,8 km/h (2 Bft) S 178 0 min 0,000 mm 0,0 UV-I 58 W/m 14,5 C 19,0 C 8,0 km/h (2 Bft) 95,65 %
22.05.2018 18:41 18,9 C 20,0 C 75 % 1009,8 hPa 0,0 l/m 5,8 km/h (2 Bft) S 186 0 min 0,000 mm 0,0 UV-I 58 W/m 14,4 C 18,9 C 8,0 km/h (2 Bft) 100,00 %
22.05.2018 18:42 18,9 C 20,0 C 75 % 1009,8 hPa 0,0 l/m 4,1 km/h (1 Bft) S 187 0 min 0,000 mm 0,0 UV-I 56 W/m 14,4 C 18,9 C 8,0 km/h (2 Bft) 95,65 %
22.05.2018 18:43 18,9 C 20,0 C 75 % 1009,8 hPa 0,0 l/m 5,8 km/h (2 Bft) S-SO 150 0 min 0,000 mm 0,0 UV-I 56 W/m 14,4 C 18,9 C 8,0 km/h (2 Bft) 100,00 %
22.05.2018 18:44 18,9 C 20,0 C 76 % 1009,7 hPa 0,0 l/m 5,5 km/h (1 Bft) S-SO 151 0 min 0,000 mm 0,0 UV-I 55 W/m 14,6 C 18,9 C 6,4 km/h (2 Bft) 100,00 %
22.05.2018 18:45 18,9 C 20,0 C 75 % 1009,7 hPa 0,0 l/m 6,3 km/h (2 Bft) S 169 0 min 0,000 mm 0,0 UV-I 54 W/m 14,4 C 18,9 C 8,0 km/h (2 Bft) 100,00 %
22.05.2018 18:46 18,9 C 20,0 C 75 % 1009,7 hPa 0,0 l/m 6,4 km/h (2 Bft) S 176 0 min 0,000 mm 0,0 UV-I 53 W/m 14,4 C 18,9 C 8,0 km/h (2 Bft) 100,00 %
22.05.2018 18:48 18,8 C 20,0 C 75 % 1009,8 hPa 0,0 l/m 5,4 km/h (1 Bft) S-SW 209 0 min 0,000 mm 0,0 UV-I 52 W/m 14,3 C 18,8 C 8,0 km/h (2 Bft) 100,00 %
22.05.2018 18:49 18,9 C 20,0 C 75 % 1009,8 hPa 0,0 l/m 5,6 km/h (1 Bft) S 173 0 min 0,000 mm 0,0 UV-I 50 W/m 14,4 C 18,9 C 8,0 km/h (2 Bft) 100,00 %
22.05.2018 18:50 18,9 C 20,0 C 75 % 1009,8 hPa 0,0 l/m 7,9 km/h (2 Bft) S 174 0 min 0,000 mm 0,0 UV-I 49 W/m 14,4 C 18,2 C 11,3 km/h (2 Bft) 100,00 %
22.05.2018 18:51 18,9 C 20,0 C 75 % 1009,8 hPa 0,0 l/m 7,9 km/h (2 Bft) S 178 0 min 0,000 mm 0,0 UV-I 49 W/m 14,4 C 18,2 C 9,7 km/h (2 Bft) 100,00 %
22.05.2018 18:52 18,9 C 20,0 C 75 % 1009,8 hPa 0,0 l/m 4,8 km/h (1 Bft) S 177 0 min 0,000 mm 0,0 UV-I 49 W/m 14,4 C 18,9 C 6,4 km/h (2 Bft) 100,00 %
22.05.2018 18:53 18,9 C 20,0 C 75 % 1009,8 hPa 0,0 l/m 3,1 km/h (1 Bft) S 176 0 min 0,000 mm 0,0 UV-I 49 W/m 14,4 C 18,9 C 4,8 km/h (1 Bft) 95,65 %
22.05.2018 18:54 18,9 C 20,0 C 75 % 1009,9 hPa 0,0 l/m 3,4 km/h (1 Bft) S 176 0 min 0,000 mm 0,0 UV-I 50 W/m 14,4 C 18,9 C 4,8 km/h (1 Bft) 100,00 %
22.05.2018 18:55 18,9 C 20,0 C 75 % 1009,9 hPa 0,0 l/m 3,3 km/h (1 Bft) S 176 0 min 0,000 mm 0,0 UV-I 51 W/m 14,4 C 18,9 C 4,8 km/h (1 Bft) 100,00 %
22.05.2018 18:56 18,8 C 20,0 C 76 % 1009,8 hPa 0,0 l/m 2,9 km/h (1 Bft) S 176 0 min 0,000 mm 0,0 UV-I 51 W/m 14,5 C 18,8 C 4,8 km/h (1 Bft) 100,00 %
22.05.2018 18:57 18,8 C 20,0 C 76 % 1009,8 hPa 0,0 l/m 2,7 km/h (1 Bft) S 176 0 min 0,000 mm 0,0 UV-I 52 W/m 14,5 C 18,8 C 4,8 km/h (1 Bft) 100,00 %
22.05.2018 18:58 18,8 C 19,4 C 76 % 1009,9 hPa 0,0 l/m 2,6 km/h (1 Bft) S 176 0 min 0,000 mm 0,0 UV-I 53 W/m 14,5 C 18,8 C 3,2 km/h (1 Bft) 100,00 %
22.05.2018 18:59 18,8 C 19,4 C 77 % 1009,9 hPa 0,0 l/m 3,5 km/h (1 Bft) S 176 0 min 0,000 mm 0,0 UV-I 53 W/m 14,7 C 18,8 C 4,8 km/h (1 Bft) 100,00 %
22.05.2018 19:00 18,8 C 19,4 C 77 % 1009,8 hPa 0,0 l/m 2,8 km/h (1 Bft) S 176 0 min 0,000 mm 0,0 UV-I 54 W/m 14,7 C 18,8 C 4,8 km/h (1 Bft) 100,00 %
22.05.2018 19:02 18,8 C 19,4 C 77 % 1009,8 hPa 0,0 l/m 3,3 km/h (1 Bft) S 176 0 min 0,051 mm 0,0 UV-I 56 W/m 14,7 C 18,8 C 4,8 km/h (1 Bft) 100,00 %
22.05.2018 19:03 18,7 C 19,4 C 77 % 1009,9 hPa 0,0 l/m 4,1 km/h (1 Bft) S 176 0 min 0,000 mm 0,0 UV-I 56 W/m 14,6 C 18,7 C 4,8 km/h (1 Bft) 100,00 %
22.05.2018 19:04 18,7 C 19,4 C 76 % 1009,9 hPa 0,0 l/m 7,1 km/h (2 Bft) S-SO 160 0 min 0,000 mm 0,0 UV-I 56 W/m 14,4 C 18,4 C 9,7 km/h (2 Bft) 100,00 %
22.05.2018 19:05 18,7 C 19,4 C 76 % 1009,9 hPa 0,0 l/m 6,3 km/h (2 Bft) S-SO 166 0 min 0,000 mm 0,0 UV-I 56 W/m 14,4 C 18,7 C 8,0 km/h (2 Bft) 95,65 %
22.05.2018 19:06 18,8 C 19,4 C 76 % 1009,9 hPa 0,0 l/m 4,6 km/h (1 Bft) S-SO 166 0 min 0,000 mm 0,0 UV-I 54 W/m 14,5 C 18,8 C 6,4 km/h (2 Bft) 100,00 %
22.05.2018 19:07 18,8 C 19,4 C 76 % 1009,9 hPa 0,0 l/m 4,6 km/h (1 Bft) S 178 0 min 0,000 mm 0,0 UV-I 54 W/m 14,5 C 18,8 C 6,4 km/h (2 Bft) 100,00 %
22.05.2018 19:08 18,9 C 19,4 C 75 % 1009,9 hPa 0,0 l/m 4,5 km/h (1 Bft) S 178 0 min 0,000 mm 0,0 UV-I 54 W/m 14,4 C 18,9 C 6,4 km/h (2 Bft) 100,00 %
22.05.2018 19:09 18,9 C 19,4 C 75 % 1009,9 hPa 0,0 l/m 3,8 km/h (1 Bft) S-SW 194 0 min 0,000 mm 0,0 UV-I 54 W/m 14,4 C 18,9 C 4,8 km/h (1 Bft) 95,83 %
22.05.2018 19:10 19,1 C 19,4 C 75 % 1009,9 hPa 0,0 l/m 3,1 km/h (1 Bft) S-SW 193 0 min 0,000 mm 0,0 UV-I 54 W/m 14,6 C 19,1 C 4,8 km/h (1 Bft) 100,00 %
22.05.2018 19:11 19,1 C 19,4 C 74 % 1009,9 hPa 0,0 l/m 4,7 km/h (1 Bft) S 176 0 min 0,000 mm 0,0 UV-I 53 W/m 14,4 C 19,1 C 6,4 km/h (2 Bft) 100,00 %
22.05.2018 19:12 19,1 C 19,4 C 74 % 1010,0 hPa 0,0 l/m 4,8 km/h (1 Bft) S 188 0 min 0,000 mm 0,0 UV-I 50 W/m 14,4 C 19,1 C 6,4 km/h (2 Bft) 100,00 %
22.05.2018 19:13 19,1 C 19,4 C 74 % 1010,0 hPa 0,0 l/m 5,6 km/h (1 Bft) S-SW 192 0 min 0,000 mm 0,0 UV-I 49 W/m 14,4 C 19,1 C 6,4 km/h (2 Bft) 100,00 %
22.05.2018 19:14 19,2 C 19,4 C 74 % 1010,0 hPa 0,0 l/m 5,7 km/h (1 Bft) S 191 0 min 0,000 mm 0,0 UV-I 47 W/m 14,4 C 19,2 C 8,0 km/h (2 Bft) 100,00 %
22.05.2018 19:15 19,2 C 19,4 C 74 % 1010,0 hPa 0,0 l/m 4,6 km/h (1 Bft) S 178 0 min 0,000 mm 0,0 UV-I 47 W/m 14,4 C 19,2 C 6,4 km/h (2 Bft) 100,00 %
22.05.2018 19:16 19,2 C 19,4 C 73 % 1010,0 hPa 0,0 l/m 5,6 km/h (1 Bft) S 184 0 min 0,000 mm 0,0 UV-I 47 W/m 14,2 C 19,2 C 8,0 km/h (2 Bft) 100,00 %
22.05.2018 19:18 19,2 C 19,4 C 73 % 1010,0 hPa 0,0 l/m 4,4 km/h (1 Bft) S 184 0 min 0,000 mm 0,0 UV-I 46 W/m 14,2 C 19,2 C 6,4 km/h (2 Bft) 97,87 %
22.05.2018 19:19 19,2 C 19,4 C 73 % 1010,0 hPa 0,0 l/m 3,4 km/h (1 Bft) S 184 0 min 0,000 mm 0,0 UV-I 46 W/m 14,2 C 19,2 C 4,8 km/h (1 Bft) 100,00 %
22.05.2018 19:20 19,2 C 19,4 C 73 % 1010,0 hPa 0,0 l/m 2,3 km/h (1 Bft) S 184 0 min 0,000 mm 0,0 UV-I 46 W/m 14,2 C 19,2 C 3,2 km/h (1 Bft) 100,00 %
22.05.2018 19:21 19,2 C 19,4 C 73 % 1010,0 hPa 0,0 l/m 2,5 km/h (1 Bft) S 184 0 min 0,000 mm 0,0 UV-I 46 W/m 14,2 C 19,2 C 4,8 km/h (1 Bft) 100,00 %
22.05.2018 19:22 19,2 C 19,4 C 73 % 1010,0 hPa 0,0 l/m 2,8 km/h (1 Bft) S 184 0 min 0,000 mm 0,0 UV-I 46 W/m 14,2 C 19,2 C 4,8 km/h (1 Bft) 96,67 %
22.05.2018 19:23 19,2 C 19,4 C 73 % 1010,0 hPa 0,0 l/m 1,9 km/h (1 Bft) S 185 0 min 0,000 mm 0,0 UV-I 46 W/m 14,2 C 19,2 C 4,8 km/h (1 Bft) 100,00 %
22.05.2018 19:24 19,2 C 19,4 C 73 % 1010,1 hPa 0,0 l/m 3,2 km/h (1 Bft) S 184 0 min 0,000 mm 0,0 UV-I 46 W/m 14,2 C 19,2 C 4,8 km/h (1 Bft) 100,00 %
22.05.2018 19:25 19,1 C 19,4 C 73 % 1010,1 hPa 0,0 l/m 2,3 km/h (1 Bft) S 184 0 min 0,000 mm 0,0 UV-I 45 W/m 14,1 C 19,1 C 3,2 km/h (1 Bft) 100,00 %
22.05.2018 19:26 19,1 C 19,4 C 74 % 1010,1 hPa 0,0 l/m 1,9 km/h (1 Bft) S 184 0 min 0,000 mm 0,0 UV-I 43 W/m 14,4 C 19,1 C 3,2 km/h (1 Bft) 100,00 %
22.05.2018 19:27 19,1 C 19,4 C 74 % 1010,1 hPa 0,0 l/m 2,5 km/h (1 Bft) S 184 0 min 0,000 mm 0,0 UV-I 40 W/m 14,4 C 19,1 C 3,2 km/h (1 Bft) 100,00 %
22.05.2018 19:28 19,1 C 19,4 C 74 % 1010,2 hPa 0,0 l/m 0,1 km/h (0 Bft) S 184 0 min 0,000 mm 0,0 UV-I 39 W/m 14,4 C 19,1 C 1,6 km/h (1 Bft) 100,00 %
22.05.2018 19:29 19,1 C 19,4 C 74 % 1010,2 hPa 0,0 l/m 0,0 km/h (0 Bft) S 184 0 min 0,000 mm 0,0 UV-I 36 W/m 14,4 C 19,1 C 0,0 km/h (0 Bft) 100,00 %
22.05.2018 19:30 19,1 C 19,4 C 74 % 1010,2 hPa 0,0 l/m 0,0 km/h (0 Bft) S 184 0 min 0,000 mm 0,0 UV-I 34 W/m 14,4 C 19,1 C 0,0 km/h (0 Bft) 100,00 %
22.05.2018 19:31 19,0 C 19,4 C 75 % 1010,2 hPa 0,0 l/m 0,0 km/h (0 Bft) S 184 0 min 0,000 mm 0,0 UV-I 33 W/m 14,5 C 19,0 C 0,0 km/h (0 Bft) 100,00 %
22.05.2018 19:33 18,6 C 19,4 C 77 % 1010,3 hPa 0,0 l/m 3,5 km/h (1 Bft) N-NO 16 0 min 0,000 mm 0,0 UV-I 33 W/m 14,5 C 18,6 C 4,8 km/h (1 Bft) 100,00 %
22.05.2018 19:34 18,3 C 19,4 C 78 % 1010,3 hPa 0,0 l/m 5,3 km/h (1 Bft) N-NO 17 0 min 0,000 mm 0,0 UV-I 33 W/m 14,4 C 18,3 C 6,4 km/h (2 Bft) 100,00 %
22.05.2018 19:35 18,1 C 19,4 C 79 % 1010,3 hPa 0,0 l/m 5,9 km/h (2 Bft) N-NO 17 0 min 0,000 mm 0,0 UV-I 33 W/m 14,4 C 18,1 C 6,4 km/h (2 Bft) 100,00 %
22.05.2018 19:36 17,8 C 19,4 C 80 % 1010,4 hPa 0,0 l/m 6,9 km/h (2 Bft) N-NO 17 0 min 0,000 mm 0,0 UV-I 33 W/m 14,3 C 17,6 C 8,0 km/h (2 Bft) 100,00 %
22.05.2018 19:38 17,4 C 19,4 C 82 % 1010,4 hPa 0,0 l/m 7,7 km/h (2 Bft) NO 34 0 min 0,000 mm 0,0 UV-I 33 W/m 14,3 C 16,8 C 9,7 km/h (2 Bft) 98,00 %
22.05.2018 19:39 17,4 C 19,4 C 82 % 1010,4 hPa 0,0 l/m 9,6 km/h (2 Bft) N-NO 29 0 min 0,000 mm 0,0 UV-I 33 W/m 14,3 C 15,9 C 12,9 km/h (3 Bft) 100,00 %
22.05.2018 19:40 17,4 C 19,4 C 82 % 1010,5 hPa 0,0 l/m 8,9 km/h (2 Bft) NO 34 0 min 0,000 mm 0,0 UV-I 33 W/m 14,3 C 16,2 C 9,7 km/h (2 Bft) 96,30 %
22.05.2018 19:41 17,4 C 19,4 C 82 % 1010,5 hPa 0,0 l/m 8,2 km/h (2 Bft) N-NO 30 0 min 0,000 mm 0,0 UV-I 33 W/m 14,3 C 16,5 C 12,9 km/h (3 Bft) 100,00 %
22.05.2018 19:42 17,4 C 19,4 C 82 % 1010,5 hPa 0,0 l/m 9,3 km/h (2 Bft) N-NO 26 0 min 0,000 mm 0,0 UV-I 33 W/m 14,3 C 16,1 C 12,9 km/h (3 Bft) 100,00 %
22.05.2018 19:43 17,4 C 19,4 C 82 % 1010,5 hPa 0,0 l/m 7,8 km/h (2 Bft) NO 45 0 min 0,000 mm 0,0 UV-I 32 W/m 14,3 C 16,7 C 11,3 km/h (2 Bft) 100,00 %
22.05.2018 19:44 17,4 C 19,4 C 83 % 1010,6 hPa 0,0 l/m 8,8 km/h (2 Bft) NO 34 0 min 0,000 mm 0,0 UV-I 32 W/m 14,5 C 16,3 C 12,9 km/h (3 Bft) 100,00 %
22.05.2018 19:45 17,3 C 19,4 C 83 % 1010,6 hPa 0,0 l/m 10,9 km/h (2 Bft) N-NO 28 0 min 0,000 mm 0,0 UV-I 32 W/m 14,4 C 15,3 C 14,5 km/h (3 Bft) 95,65 %
22.05.2018 19:46 17,3 C 19,4 C 83 % 1010,6 hPa 0,0 l/m 8,2 km/h (2 Bft) NO 42 0 min 0,000 mm 0,0 UV-I 32 W/m 14,4 C 16,4 C 11,3 km/h (2 Bft) 100,00 %
22.05.2018 19:47 17,3 C 19,4 C 83 % 1010,6 hPa 0,0 l/m 8,5 km/h (2 Bft) N-NO 28 0 min 0,000 mm 0,0 UV-I 30 W/m 14,4 C 16,3 C 9,7 km/h (2 Bft) 100,00 %
22.05.2018 19:48 17,3 C 19,4 C 83 % 1010,6 hPa 0,0 l/m 8,0 km/h (2 Bft) N-NO 30 0 min 0,000 mm 0,0 UV-I 29 W/m 14,4 C 16,5 C 12,9 km/h (3 Bft) 100,00 %
22.05.2018 19:49 17,3 C 19,4 C 83 % 1010,6 hPa 0,0 l/m 7,6 km/h (2 Bft) NO 40 0 min 0,000 mm 0,0 UV-I 28 W/m 14,4 C 16,7 C 9,7 km/h (2 Bft) 100,00 %
22.05.2018 19:50 17,3 C 19,4 C 83 % 1010,6 hPa 0,0 l/m 8,4 km/h (2 Bft) N-NO 26 0 min 0,000 mm 0,0 UV-I 26 W/m 14,4 C 16,3 C 9,7 km/h (2 Bft) 100,00 %
22.05.2018 19:51 17,2 C 19,4 C 83 % 1010,6 hPa 0,0 l/m 7,6 km/h (2 Bft) NO 40 0 min 0,000 mm 0,0 UV-I 25 W/m 14,3 C 16,6 C 9,7 km/h (2 Bft) 100,00 %
22.05.2018 19:52 17,2 C 19,4 C 83 % 1010,6 hPa 0,0 l/m 7,8 km/h (2 Bft) NO 40 0 min 0,000 mm 0,0 UV-I 25 W/m 14,3 C 16,5 C 9,7 km/h (2 Bft) 100,00 %
22.05.2018 19:53 17,2 C 19,4 C 83 % 1010,6 hPa 0,0 l/m 7,9 km/h (2 Bft) NO 44 0 min 0,000 mm 0,0 UV-I 23 W/m 14,3 C 16,5 C 9,7 km/h (2 Bft) 100,00 %
22.05.2018 19:54 17,2 C 19,4 C 83 % 1010,6 hPa 0,0 l/m 8,9 km/h (2 Bft) NO 38 0 min 0,000 mm 0,0 UV-I 22 W/m 14,3 C 16,0 C 11,3 km/h (2 Bft) 100,00 %
22.05.2018 19:55 17,3 C 19,4 C 83 % 1010,5 hPa 0,0 l/m 8,1 km/h (2 Bft) N-NO 23 0 min 0,000 mm 0,0 UV-I 21 W/m 14,4 C 16,5 C 12,9 km/h (3 Bft) 100,00 %
22.05.2018 19:56 17,3 C 19,4 C 83 % 1010,6 hPa 0,0 l/m 11,3 km/h (2 Bft) N-NO 30 0 min 0,000 mm 0,0 UV-I 19 W/m 14,4 C 15,2 C 16,1 km/h (3 Bft) 96,15 %
22.05.2018 19:57 17,3 C 19,4 C 82 % 1010,7 hPa 0,0 l/m 8,1 km/h (2 Bft) O-NO 57 0 min 0,000 mm 0,0 UV-I 19 W/m 14,2 C 16,5 C 12,9 km/h (3 Bft) 100,00 %
22.05.2018 19:58 17,3 C 19,4 C 82 % 1010,7 hPa 0,0 l/m 9,0 km/h (2 Bft) N-NO 32 0 min 0,000 mm 0,0 UV-I 18 W/m 14,2 C 16,1 C 12,9 km/h (3 Bft) 100,00 %
22.05.2018 19:59 17,3 C 19,4 C 82 % 1010,7 hPa 0,0 l/m 6,8 km/h (2 Bft) NO 39 0 min 0,000 mm 0,0 UV-I 18 W/m 14,2 C 17,1 C 8,0 km/h (2 Bft) 95,83 %
22.05.2018 20:00 17,2 C 19,4 C 83 % 1010,6 hPa 0,0 l/m 8,4 km/h (2 Bft) NO 46 0 min 0,000 mm 0,0 UV-I 17 W/m 14,3 C 16,2 C 11,3 km/h (2 Bft) 95,65 %
22.05.2018 20:02 17,2 C 19,4 C 83 % 1010,7 hPa 0,0 l/m 8,5 km/h (2 Bft) N-NO 30 0 min 0,051 mm 0,0 UV-I 16 W/m 14,3 C 16,2 C 12,9 km/h (3 Bft) 97,87 %
22.05.2018 20:03 17,2 C 19,4 C 83 % 1010,7 hPa 0,0 l/m 8,9 km/h (2 Bft) N-NO 33 0 min 0,000 mm 0,0 UV-I 16 W/m 14,3 C 16,0 C 14,5 km/h (3 Bft) 100,00 %
22.05.2018 20:04 17,1 C 19,4 C 83 % 1010,7 hPa 0,0 l/m 12,6 km/h (3 Bft) N-NO 26 0 min 0,000 mm 0,0 UV-I 14 W/m 14,2 C 14,5 C 16,1 km/h (3 Bft) 94,12 %
22.05.2018 20:05 17,1 C 19,4 C 83 % 1010,7 hPa 0,0 l/m 10,6 km/h (2 Bft) NO 42 0 min 0,000 mm 0,0 UV-I 14 W/m 14,2 C 15,2 C 14,5 km/h (3 Bft) 100,00 %
22.05.2018 20:06 17,1 C 19,4 C 82 % 1010,8 hPa 0,0 l/m 10,3 km/h (2 Bft) NO 39 0 min 0,000 mm 0,0 UV-I 14 W/m 14,0 C 15,3 C 14,5 km/h (3 Bft) 96,15 %
22.05.2018 20:08 17,2 C 19,4 C 82 % 1010,8 hPa 0,0 l/m 9,2 km/h (2 Bft) O-NO 59 0 min 0,000 mm 0,0 UV-I 14 W/m 14,1 C 15,9 C 14,5 km/h (3 Bft) 97,62 %
22.05.2018 20:09 17,2 C 19,4 C 82 % 1010,8 hPa 0,0 l/m 8,8 km/h (2 Bft) NO 41 0 min 0,000 mm 0,0 UV-I 14 W/m 14,1 C 16,0 C 11,3 km/h (2 Bft) 100,00 %
22.05.2018 20:10 17,1 C 19,4 C 82 % 1010,8 hPa 0,0 l/m 11,1 km/h (2 Bft) O-NO 57 0 min 0,000 mm 0,0 UV-I 13 W/m 14,0 C 15,0 C 14,5 km/h (3 Bft) 96,30 %
22.05.2018 20:11 17,1 C 19,4 C 82 % 1010,8 hPa 0,0 l/m 10,2 km/h (2 Bft) O-NO 59 0 min 0,000 mm 0,0 UV-I 12 W/m 14,0 C 15,4 C 14,5 km/h (3 Bft) 92,31 %
22.05.2018 20:13 17,1 C 19,4 C 81 % 1010,8 hPa 0,0 l/m 11,5 km/h (2 Bft) NO 45 0 min 0,000 mm 0,0 UV-I 12 W/m 13,8 C 14,9 C 16,1 km/h (3 Bft) 97,73 %
22.05.2018 20:14 17,2 C 19,4 C 80 % 1010,8 hPa 0,0 l/m 9,5 km/h (2 Bft) NO 55 0 min 0,000 mm 0,0 UV-I 12 W/m 13,7 C 15,8 C 14,5 km/h (3 Bft) 96,30 %
22.05.2018 20:15 17,2 C 19,4 C 80 % 1010,7 hPa 0,0 l/m 9,3 km/h (2 Bft) O-NO 57 0 min 0,000 mm 0,0 UV-I 12 W/m 13,7 C 15,8 C 12,9 km/h (3 Bft) 81,82 %
22.05.2018 20:16 17,2 C 19,4 C 80 % 1010,7 hPa 0,0 l/m 8,3 km/h (2 Bft) NO 54 0 min 0,000 mm 0,0 UV-I 12 W/m 13,7 C 16,3 C 14,5 km/h (3 Bft) 100,00 %
22.05.2018 20:18 17,2 C 19,4 C 79 % 1010,8 hPa 0,0 l/m 8,7 km/h (2 Bft) O-NO 65 0 min 0,000 mm 0,0 UV-I 12 W/m 13,5 C 16,1 C 12,9 km/h (3 Bft) 94,64 %
22.05.2018 20:19 17,2 C 19,4 C 79 % 1010,7 hPa 0,0 l/m 9,5 km/h (2 Bft) NO 55 0 min 0,000 mm 0,0 UV-I 12 W/m 13,5 C 15,8 C 12,9 km/h (3 Bft) 100,00 %
22.05.2018 20:20 17,2 C 19,4 C 78 % 1010,7 hPa 0,0 l/m 6,5 km/h (2 Bft) O-NO 69 0 min 0,000 mm 0,0 UV-I 12 W/m 13,3 C 17,2 C 8,0 km/h (2 Bft) 95,83 %
22.05.2018 20:21 17,2 C 19,4 C 78 % 1010,7 hPa 0,0 l/m 6,5 km/h (2 Bft) O-NO 59 0 min 0,000 mm 0,0 UV-I 11 W/m 13,3 C 17,2 C 8,0 km/h (2 Bft) 100,00 %
22.05.2018 20:22 17,2 C 19,4 C 78 % 1010,7 hPa 0,0 l/m 4,8 km/h (1 Bft) NO 55 0 min 0,000 mm 0,0 UV-I 11 W/m 13,3 C 17,2 C 6,4 km/h (2 Bft) 95,83 %
22.05.2018 20:23 17,1 C 19,4 C 78 % 1010,7 hPa 0,0 l/m 6,6 km/h (2 Bft) NO 44 0 min 0,000 mm 0,0 UV-I 11 W/m 13,2 C 17,0 C 8,0 km/h (2 Bft) 100,00 %
22.05.2018 20:24 17,1 C 19,4 C 78 % 1010,7 hPa 0,0 l/m 6,3 km/h (2 Bft) NO 44 0 min 0,000 mm 0,0 UV-I 11 W/m 13,2 C 17,1 C 8,0 km/h (2 Bft) 93,33 %
22.05.2018 20:25 17,0 C 19,4 C 79 % 1010,7 hPa 0,0 l/m 6,5 km/h (2 Bft) NO 52 0 min 0,000 mm 0,0 UV-I 11 W/m 13,3 C 17,0 C 8,0 km/h (2 Bft) 100,00 %
22.05.2018 20:26 16,9 C 19,4 C 79 % 1010,7 hPa 0,0 l/m 7,0 km/h (2 Bft) NO 39 0 min 0,000 mm 0,0 UV-I 11 W/m 13,2 C 16,6 C 8,0 km/h (2 Bft) 96,15 %
22.05.2018 20:27 16,9 C 19,4 C 79 % 1010,7 hPa 0,0 l/m 7,7 km/h (2 Bft) O-NO 59 0 min 0,000 mm 0,0 UV-I 11 W/m 13,2 C 16,2 C 9,7 km/h (2 Bft) 93,33 %
22.05.2018 20:28 16,9 C 19,4 C 79 % 1010,7 hPa 0,0 l/m 5,7 km/h (1 Bft) NO 41 0 min 0,000 mm 0,0 UV-I 11 W/m 13,2 C 16,9 C 8,0 km/h (2 Bft) 100,00 %
22.05.2018 20:29 16,9 C 19,4 C 79 % 1010,7 hPa 0,0 l/m 6,7 km/h (2 Bft) NO 35 0 min 0,000 mm 0,0 UV-I 11 W/m 13,2 C 16,8 C 8,0 km/h (2 Bft) 96,30 %
22.05.2018 20:30 16,8 C 19,4 C 79 % 1010,8 hPa 0,0 l/m 6,1 km/h (2 Bft) NO 46 0 min 0,000 mm 0,0 UV-I 9 W/m 13,1 C 16,8 C 8,0 km/h (2 Bft) 100,00 %
22.05.2018 20:31 16,8 C 19,4 C 79 % 1010,8 hPa 0,0 l/m 7,3 km/h (2 Bft) NO 46 0 min 0,000 mm 0,0 UV-I 9 W/m 13,1 C 16,3 C 8,0 km/h (2 Bft) 95,83 %
22.05.2018 20:32 16,7 C 19,4 C 79 % 1010,8 hPa 0,0 l/m 7,6 km/h (2 Bft) NO 55 0 min 0,000 mm 0,0 UV-I 9 W/m 13,0 C 16,1 C 9,7 km/h (2 Bft) 100,00 %
22.05.2018 20:33 16,7 C 19,4 C 79 % 1010,8 hPa 0,0 l/m 6,2 km/h (2 Bft) NO 46 0 min 0,000 mm 0,0 UV-I 9 W/m 13,0 C 16,7 C 9,7 km/h (2 Bft) 100,00 %
22.05.2018 20:34 16,7 C 19,4 C 79 % 1010,8 hPa 0,0 l/m 5,4 km/h (1 Bft) NO 55 0 min 0,000 mm 0,0 UV-I 9 W/m 13,0 C 16,7 C 8,0 km/h (2 Bft) 100,00 %
22.05.2018 20:35 16,7 C 19,4 C 79 % 1010,8 hPa 0,0 l/m 6,0 km/h (2 Bft) O-NO 63 0 min 0,000 mm 0,0 UV-I 9 W/m 13,0 C 16,7 C 8,0 km/h (2 Bft) 100,00 %
22.05.2018 20:36 16,7 C 19,4 C 79 % 1010,8 hPa 0,0 l/m 6,9 km/h (2 Bft) O-NO 61 0 min 0,000 mm 0,0 UV-I 9 W/m 13,0 C 16,4 C 8,0 km/h (2 Bft) 100,00 %
22.05.2018 20:37 16,7 C 19,4 C 79 % 1010,8 hPa 0,0 l/m 6,4 km/h (2 Bft) O-NO 61 0 min 0,000 mm 0,0 UV-I 7 W/m 13,0 C 16,7 C 8,0 km/h (2 Bft) 96,88 %
22.05.2018 20:38 16,7 C 19,4 C 79 % 1010,8 hPa 0,0 l/m 5,5 km/h (1 Bft) O-NO 65 0 min 0,000 mm 0,0 UV-I 7 W/m 13,0 C 16,7 C 6,4 km/h (2 Bft) 100,00 %
22.05.2018 20:39 16,7 C 19,4 C 78 % 1010,8 hPa 0,0 l/m 4,4 km/h (1 Bft) O-NO 65 0 min 0,000 mm 0,0 UV-I 7 W/m 12,8 C 16,7 C 6,4 km/h (2 Bft) 100,00 %
22.05.2018 20:40 16,7 C 19,4 C 78 % 1010,8 hPa 0,0 l/m 4,2 km/h (1 Bft) O-NO 61 0 min 0,000 mm 0,0 UV-I 7 W/m 12,8 C 16,7 C 4,8 km/h (1 Bft) 100,00 %
22.05.2018 20:41 16,8 C 19,4 C 77 % 1010,8 hPa 0,0 l/m 4,4 km/h (1 Bft) O 79 0 min 0,000 mm 0,0 UV-I 7 W/m 12,7 C 16,8 C 4,8 km/h (1 Bft) 100,00 %
22.05.2018 20:42 16,8 C 19,4 C 77 % 1010,8 hPa 0,0 l/m 4,1 km/h (1 Bft) O 80 0 min 0,000 mm 0,0 UV-I 7 W/m 12,7 C 16,8 C 4,8 km/h (1 Bft) 100,00 %
22.05.2018 20:43 16,8 C 19,4 C 77 % 1010,8 hPa 0,0 l/m 3,9 km/h (1 Bft) O 82 0 min 0,000 mm 0,0 UV-I 5 W/m 12,7 C 16,8 C 4,8 km/h (1 Bft) 100,00 %
22.05.2018 20:44 16,8 C 19,4 C 77 % 1010,8 hPa 0,0 l/m 3,8 km/h (1 Bft) O 98 0 min 0,000 mm 0,0 UV-I 5 W/m 12,7 C 16,8 C 4,8 km/h (1 Bft) 100,00 %
22.05.2018 20:45 16,8 C 19,4 C 77 % 1010,8 hPa 0,0 l/m 4,7 km/h (1 Bft) O-SO 104 0 min 0,000 mm 0,0 UV-I 5 W/m 12,7 C 16,8 C 6,4 km/h (2 Bft) 95,65 %
22.05.2018 20:46 16,8 C 19,4 C 77 % 1010,8 hPa 0,0 l/m 4,6 km/h (1 Bft) O 97 0 min 0,000 mm 0,0 UV-I 5 W/m 12,7 C 16,8 C 6,4 km/h (2 Bft) 100,00 %
22.05.2018 20:47 16,8 C 19,4 C 77 % 1010,8 hPa 0,0 l/m 5,0 km/h (1 Bft) O-NO 74 0 min 0,000 mm 0,0 UV-I 5 W/m 12,7 C 16,8 C 6,4 km/h (2 Bft) 100,00 %
22.05.2018 20:48 16,8 C 19,4 C 77 % 1010,8 hPa 0,0 l/m 3,4 km/h (1 Bft) O-NO 74 0 min 0,000 mm 0,0 UV-I 5 W/m 12,7 C 16,8 C 4,8 km/h (1 Bft) 100,00 %
22.05.2018 20:49 16,7 C 19,4 C 77 % 1010,8 hPa 0,0 l/m 3,7 km/h (1 Bft) O-NO 74 0 min 0,000 mm 0,0 UV-I 5 W/m 12,6 C 16,7 C 4,8 km/h (1 Bft) 100,00 %
22.05.2018 20:50 16,6 C 19,4 C 78 % 1010,9 hPa 0,0 l/m 4,4 km/h (1 Bft) O-NO 74 0 min 0,000 mm 0,0 UV-I 5 W/m 12,7 C 16,6 C 6,4 km/h (2 Bft) 100,00 %
22.05.2018 20:51 16,3 C 19,4 C 78 % 1010,9 hPa 0,0 l/m 4,5 km/h (1 Bft) O-NO 74 0 min 0,000 mm 0,0 UV-I 5 W/m 12,5 C 16,3 C 6,4 km/h (2 Bft) 100,00 %
22.05.2018 20:52 16,2 C 19,4 C 79 % 1010,9 hPa 0,0 l/m 4,1 km/h (1 Bft) O-NO 74 0 min 0,000 mm 0,0 UV-I 5 W/m 12,6 C 16,2 C 6,4 km/h (2 Bft) 100,00 %
22.05.2018 20:53 16,2 C 19,4 C 79 % 1010,9 hPa 0,0 l/m 3,4 km/h (1 Bft) O-NO 74 0 min 0,000 mm 0,0 UV-I 5 W/m 12,6 C 16,2 C 4,8 km/h (1 Bft) 100,00 %
22.05.2018 20:54 16,2 C 19,4 C 80 % 1010,9 hPa 0,0 l/m 4,2 km/h (1 Bft) O-NO 74 0 min 0,000 mm 0,0 UV-I 5 W/m 12,7 C 16,2 C 4,8 km/h (1 Bft) 100,00 %
22.05.2018 20:55 16,2 C 19,4 C 80 % 1010,8 hPa 0,0 l/m 4,2 km/h (1 Bft) O-NO 74 0 min 0,000 mm 0,0 UV-I 5 W/m 12,7 C 16,2 C 6,4 km/h (2 Bft) 100,00 %
22.05.2018 20:56 16,2 C 19,4 C 79 % 1010,9 hPa 0,0 l/m 4,1 km/h (1 Bft) O-NO 74 0 min 0,000 mm 0,0 UV-I 0 W/m 12,6 C 16,2 C 6,4 km/h (2 Bft) 100,00 %
22.05.2018 20:57 16,3 C 19,4 C 79 % 1010,9 hPa 0,0 l/m 4,6 km/h (1 Bft) O-NO 74 0 min 0,000 mm 0,0 UV-I 0 W/m 12,6 C 16,3 C 6,4 km/h (2 Bft) 93,33 %
22.05.2018 20:58 16,3 C 19,4 C 79 % 1010,9 hPa 0,0 l/m 5,0 km/h (1 Bft) O-NO 74 0 min 0,000 mm 0,0 UV-I 0 W/m 12,6 C 16,3 C 6,4 km/h (2 Bft) 100,00 %
22.05.2018 20:59 16,3 C 19,4 C 78 % 1010,9 hPa 0,0 l/m 4,9 km/h (1 Bft) O-NO 73 0 min 0,000 mm 0,0 UV-I 0 W/m 12,5 C 16,3 C 6,4 km/h (2 Bft) 100,00 %
22.05.2018 21:00 16,4 C 19,4 C 78 % 1011,0 hPa 0,0 l/m 5,2 km/h (1 Bft) O-NO 73 0 min 0,000 mm 0,0 UV-I 0 W/m 12,6 C 16,4 C 6,4 km/h (2 Bft) 100,00 %
22.05.2018 21:02 16,5 C 19,4 C 78 % 1010,9 hPa 0,0 l/m 5,5 km/h (1 Bft) O-NO 64 0 min 0,025 mm 0,0 UV-I 0 W/m 12,6 C 16,5 C 6,4 km/h (2 Bft) 100,00 %
22.05.2018 21:03 16,5 C 19,4 C 78 % 1010,9 hPa 0,0 l/m 5,6 km/h (1 Bft) NO 54 0 min 0,000 mm 0,0 UV-I 0 W/m 12,6 C 16,5 C 6,4 km/h (2 Bft) 100,00 %
22.05.2018 21:04 16,4 C 19,4 C 78 % 1010,9 hPa 0,0 l/m 5,8 km/h (2 Bft) NO 53 0 min 0,000 mm 0,0 UV-I 0 W/m 12,6 C 16,4 C 8,0 km/h (2 Bft) 100,00 %
22.05.2018 21:05 16,4 C 19,4 C 78 % 1010,9 hPa 0,0 l/m 4,3 km/h (1 Bft) NO 53 0 min 0,000 mm 0,0 UV-I 0 W/m 12,6 C 16,4 C 4,8 km/h (1 Bft) 100,00 %
22.05.2018 21:06 16,3 C 19,4 C 78 % 1011,0 hPa 0,0 l/m 5,1 km/h (1 Bft) NO 53 0 min 0,000 mm 0,0 UV-I 0 W/m 12,5 C 16,3 C 6,4 km/h (2 Bft) 96,88 %
22.05.2018 21:07 16,3 C 19,4 C 78 % 1011,0 hPa 0,0 l/m 5,2 km/h (1 Bft) NO 53 0 min 0,000 mm 0,0 UV-I 0 W/m 12,5 C 16,3 C 6,4 km/h (2 Bft) 100,00 %
22.05.2018 21:08 16,3 C 19,4 C 79 % 1010,9 hPa 0,0 l/m 4,1 km/h (1 Bft) NO 53 0 min 0,000 mm 0,0 UV-I 0 W/m 12,6 C 16,3 C 4,8 km/h (1 Bft) 98,16 %
22.05.2018 21:09 16,3 C 19,4 C 78 % 1011,0 hPa 0,0 l/m 3,5 km/h (1 Bft) NO 53 0 min 0,000 mm 0,0 UV-I 0 W/m 12,5 C 16,3 C 4,8 km/h (1 Bft) 100,00 %
22.05.2018 21:10 16,3 C 19,4 C 78 % 1011,0 hPa 0,0 l/m 3,4 km/h (1 Bft) NO 53 0 min 0,000 mm 0,0 UV-I 0 W/m 12,5 C 16,3 C 4,8 km/h (1 Bft) 100,00 %
22.05.2018 21:11 16,4 C 19,4 C 78 % 1011,1 hPa 0,0 l/m 1,7 km/h (1 Bft) NO 53 0 min 0,000 mm 0,0 UV-I 0 W/m 12,6 C 16,4 C 3,2 km/h (1 Bft) 100,00 %
22.05.2018 21:12 16,4 C 19,4 C 78 % 1011,1 hPa 0,0 l/m 2,7 km/h (1 Bft) NO 53 0 min 0,000 mm 0,0 UV-I 0 W/m 12,6 C 16,4 C 4,8 km/h (1 Bft) 100,00 %
22.05.2018 21:13 16,4 C 19,4 C 78 % 1011,0 hPa 0,0 l/m 4,2 km/h (1 Bft) NO 53 0 min 0,000 mm 0,0 UV-I 0 W/m 12,6 C 16,4 C 4,8 km/h (1 Bft) 100,00 %
22.05.2018 21:14 16,4 C 19,4 C 78 % 1011,0 hPa 0,0 l/m 3,1 km/h (1 Bft) NO 53 0 min 0,000 mm 0,0 UV-I 0 W/m 12,6 C 16,4 C 4,8 km/h (1 Bft) 100,00 %
22.05.2018 21:15 16,3 C 19,4 C 78 % 1011,1 hPa 0,0 l/m 3,2 km/h (1 Bft) NO 53 0 min 0,000 mm 0,0 UV-I 0 W/m 12,5 C 16,3 C 4,8 km/h (1 Bft) 100,00 %
22.05.2018 21:16 16,3 C 19,4 C 78 % 1011,0 hPa 0,0 l/m 3,8 km/h (1 Bft) NO 53 0 min 0,000 mm 0,0 UV-I 0 W/m 12,5 C 16,3 C 4,8 km/h (1 Bft) 96,15 %
22.05.2018 21:17 16,3 C 19,4 C 78 % 1011,0 hPa 0,0 l/m 3,5 km/h (1 Bft) NO 53 0 min 0,000 mm 0,0 UV-I 0 W/m 12,5 C 16,3 C 4,8 km/h (1 Bft) 100,00 %
22.05.2018 21:18 16,2 C 19,4 C 78 % 1011,0 hPa 0,0 l/m 3,0 km/h (1 Bft) NO 53 0 min 0,000 mm 0,0 UV-I 0 W/m 12,4 C 16,2 C 4,8 km/h (1 Bft) 100,00 %
22.05.2018 21:19 16,2 C 19,4 C 78 % 1011,0 hPa 0,0 l/m 3,6 km/h (1 Bft) NO 53 0 min 0,000 mm 0,0 UV-I 0 W/m 12,4 C 16,2 C 4,8 km/h (1 Bft) 100,00 %
22.05.2018 21:20 16,2 C 19,4 C 78 % 1011,1 hPa 0,0 l/m 3,6 km/h (1 Bft) NO 53 0 min 0,000 mm 0,0 UV-I 0 W/m 12,4 C 16,2 C 4,8 km/h (1 Bft) 100,00 %
22.05.2018 21:21 16,2 C 19,4 C 78 % 1011,1 hPa 0,0 l/m 4,0 km/h (1 Bft) NO 53 0 min 0,000 mm 0,0 UV-I 0 W/m 12,4 C 16,2 C 4,8 km/h (1 Bft) 96,15 %
22.05.2018 21:22 16,2 C 19,4 C 77 % 1011,1 hPa 0,0 l/m 3,9 km/h (1 Bft) NO 53 0 min 0,000 mm 0,0 UV-I 0 W/m 12,2 C 16,2 C 4,8 km/h (1 Bft) 100,00 %
22.05.2018 21:23 16,2 C 19,4 C 77 % 1011,1 hPa 0,0 l/m 4,1 km/h (1 Bft) NO 53 0 min 0,000 mm 0,0 UV-I 0 W/m 12,2 C 16,2 C 4,8 km/h (1 Bft) 95,65 %
22.05.2018 21:24 16,2 C 19,4 C 78 % 1011,1 hPa 0,0 l/m 3,2 km/h (1 Bft) NO 53 0 min 0,000 mm 0,0 UV-I 0 W/m 12,4 C 16,2 C 4,8 km/h (1 Bft) 100,00 %
22.05.2018 21:25 16,2 C 19,4 C 78 % 1011,2 hPa 0,0 l/m 4,3 km/h (1 Bft) NO 53 0 min 0,000 mm 0,0 UV-I 0 W/m 12,4 C 16,2 C 6,4 km/h (2 Bft) 96,15 %
22.05.2018 21:26 16,2 C 19,4 C 77 % 1011,2 hPa 0,0 l/m 2,8 km/h (1 Bft) NO 53 0 min 0,000 mm 0,0 UV-I 0 W/m 12,2 C 16,2 C 3,2 km/h (1 Bft) 95,83 %
22.05.2018 21:27 16,2 C 19,4 C 77 % 1011,2 hPa 0,0 l/m 3,3 km/h (1 Bft) NO 53 0 min 0,000 mm 0,0 UV-I 0 W/m 12,2 C 16,2 C 4,8 km/h (1 Bft) 100,00 %
22.05.2018 21:28 16,2 C 19,4 C 78 % 1011,2 hPa 0,0 l/m 3,1 km/h (1 Bft) NO 53 0 min 0,000 mm 0,0 UV-I 0 W/m 12,4 C 16,2 C 3,2 km/h (1 Bft) 95,83 %
22.05.2018 21:29 16,1 C 19,4 C 78 % 1011,2 hPa 0,0 l/m 3,0 km/h (1 Bft) NO 53 0 min 0,000 mm 0,0 UV-I 0 W/m 12,3 C 16,1 C 4,8 km/h (1 Bft) 100,00 %
22.05.2018 21:30 15,9 C 19,4 C 79 % 1011,2 hPa 0,0 l/m 3,2 km/h (1 Bft) NO 53 0 min 0,000 mm 0,0 UV-I 0 W/m 12,3 C 15,9 C 3,2 km/h (1 Bft) 96,30 %
22.05.2018 21:31 15,8 C 19,4 C 79 % 1011,2 hPa 0,0 l/m 3,0 km/h (1 Bft) NO 53 0 min 0,000 mm 0,0 UV-I 0 W/m 12,2 C 15,8 C 4,8 km/h (1 Bft) 100,00 %
22.05.2018 21:32 15,6 C 19,4 C 80 % 1011,2 hPa 0,0 l/m 2,8 km/h (1 Bft) NO 53 0 min 0,000 mm 0,0 UV-I 0 W/m 12,2 C 15,6 C 3,2 km/h (1 Bft) 95,83 %
22.05.2018 21:33 15,6 C 19,4 C 80 % 1011,2 hPa 0,0 l/m 3,6 km/h (1 Bft) NO 53 0 min 0,000 mm 0,0 UV-I 0 W/m 12,2 C 15,6 C 4,8 km/h (1 Bft) 100,00 %
22.05.2018 21:34 15,6 C 19,4 C 80 % 1011,2 hPa 0,0 l/m 3,6 km/h (1 Bft) NO 53 0 min 0,000 mm 0,0 UV-I 0 W/m 12,2 C 15,6 C 4,8 km/h (1 Bft) 95,83 %
22.05.2018 21:35 15,7 C 19,4 C 80 % 1011,3 hPa 0,0 l/m 3,1 km/h (1 Bft) NO 53 0 min 0,000 mm 0,0 UV-I 0 W/m 12,3 C 15,7 C 4,8 km/h (1 Bft) 95,65 %
22.05.2018 21:36 15,7 C 19,4 C 80 % 1011,2 hPa 0,0 l/m 3,7 km/h (1 Bft) NO 55 0 min 0,000 mm 0,0 UV-I 0 W/m 12,3 C 15,7 C 4,8 km/h (1 Bft) 100,00 %
22.05.2018 21:37 15,8 C 19,4 C 80 % 1011,2 hPa 0,0 l/m 3,3 km/h (1 Bft) NO 55 0 min 0,000 mm 0,0 UV-I 0 W/m 12,4 C 15,8 C 4,8 km/h (1 Bft) 95,83 %
22.05.2018 21:38 15,7 C 19,4 C 80 % 1011,2 hPa 0,0 l/m 3,5 km/h (1 Bft) NO 55 0 min 0,000 mm 0,0 UV-I 0 W/m 12,3 C 15,7 C 4,8 km/h (1 Bft) 96,15 %
22.05.2018 21:39 15,7 C 19,4 C 80 % 1011,3 hPa 0,0 l/m 4,2 km/h (1 Bft) O-NO 76 0 min 0,000 mm 0,0 UV-I 0 W/m 12,3 C 15,7 C 4,8 km/h (1 Bft) 95,83 %
22.05.2018 21:40 15,7 C 19,4 C 80 % 1011,2 hPa 0,0 l/m 4,3 km/h (1 Bft) O-NO 78 0 min 0,000 mm 0,0 UV-I 0 W/m 12,3 C 15,7 C 4,8 km/h (1 Bft) 100,00 %
22.05.2018 21:41 15,6 C 19,4 C 80 % 1011,3 hPa 0,0 l/m 3,9 km/h (1 Bft) O 80 0 min 0,000 mm 0,0 UV-I 0 W/m 12,2 C 15,6 C 4,8 km/h (1 Bft) 95,83 %
22.05.2018 21:43 15,4 C 19,4 C 81 % 1011,3 hPa 0,0 l/m 4,2 km/h (1 Bft) O 82 0 min 0,000 mm 0,0 UV-I 0 W/m 12,2 C 15,4 C 6,4 km/h (2 Bft) 97,73 %
22.05.2018 21:44 15,4 C 19,4 C 81 % 1011,3 hPa 0,0 l/m 4,7 km/h (1 Bft) O 83 0 min 0,000 mm 0,0 UV-I 0 W/m 12,2 C 15,4 C 4,8 km/h (1 Bft) 96,15 %
22.05.2018 21:45 15,5 C 19,4 C 81 % 1011,3 hPa 0,0 l/m 3,5 km/h (1 Bft) O 84 0 min 0,000 mm 0,0 UV-I 0 W/m 12,3 C 15,5 C 4,8 km/h (1 Bft) 95,83 %
22.05.2018 21:46 15,6 C 19,4 C 80 % 1011,3 hPa 0,0 l/m 3,5 km/h (1 Bft) O 84 0 min 0,000 mm 0,0 UV-I 0 W/m 12,2 C 15,6 C 4,8 km/h (1 Bft) 94,12 %
22.05.2018 21:47 15,6 C 19,4 C 80 % 1011,3 hPa 0,0 l/m 2,4 km/h (1 Bft) O 84 0 min 0,000 mm 0,0 UV-I 0 W/m 12,2 C 15,6 C 4,8 km/h (1 Bft) 96,30 %
22.05.2018 21:48 15,6 C 19,4 C 80 % 1011,3 hPa 0,0 l/m 2,7 km/h (1 Bft) O 84 0 min 0,000 mm 0,0 UV-I 0 W/m 12,2 C 15,6 C 3,2 km/h (1 Bft) 95,65 %
22.05.2018 21:49 15,7 C 19,4 C 80 % 1011,3 hPa 0,0 l/m 2,0 km/h (1 Bft) O 84 0 min 0,000 mm 0,0 UV-I 0 W/m 12,3 C 15,7 C 4,8 km/h (1 Bft) 100,00 %
22.05.2018 21:50 15,7 C 19,4 C 80 % 1011,3 hPa 0,0 l/m 2,5 km/h (1 Bft) O 84 0 min 0,000 mm 0,0 UV-I 0 W/m 12,3 C 15,7 C 4,8 km/h (1 Bft) 96,15 %
22.05.2018 21:51 15,8 C 19,4 C 79 % 1011,3 hPa 0,0 l/m 2,3 km/h (1 Bft) O 84 0 min 0,000 mm 0,0 UV-I 0 W/m 12,2 C 15,8 C 3,2 km/h (1 Bft) 100,00 %
22.05.2018 21:52 15,8 C 19,4 C 79 % 1011,3 hPa 0,0 l/m 1,9 km/h (1 Bft) O 84 0 min 0,000 mm 0,0 UV-I 0 W/m 12,2 C 15,8 C 3,2 km/h (1 Bft) 91,67 %
22.05.2018 21:53 15,9 C 19,4 C 79 % 1011,4 hPa 0,0 l/m 1,5 km/h (1 Bft) O 84 0 min 0,000 mm 0,0 UV-I 0 W/m 12,3 C 15,9 C 3,2 km/h (1 Bft) 100,00 %
22.05.2018 21:54 16,0 C 19,4 C 78 % 1011,4 hPa 0,0 l/m 0,2 km/h (0 Bft) O 84 0 min 0,000 mm 0,0 UV-I 0 W/m 12,2 C 16,0 C 1,6 km/h (1 Bft) 96,15 %
22.05.2018 21:55 15,9 C 19,4 C 79 % 1011,4 hPa 0,0 l/m 3,1 km/h (1 Bft) O 84 0 min 0,000 mm 0,0 UV-I 0 W/m 12,3 C 15,9 C 4,8 km/h (1 Bft) 100,00 %
22.05.2018 21:56 15,8 C 19,4 C 79 % 1011,4 hPa 0,0 l/m 3,5 km/h (1 Bft) O 84 0 min 0,000 mm 0,0 UV-I 0 W/m 12,2 C 15,8 C 4,8 km/h (1 Bft) 96,15 %
22.05.2018 21:57 15,7 C 19,4 C 81 % 1011,4 hPa 0,0 l/m 3,1 km/h (1 Bft) O 84 0 min 0,000 mm 0,0 UV-I 0 W/m 12,4 C 15,7 C 4,8 km/h (1 Bft) 95,83 %
22.05.2018 21:58 15,6 C 19,4 C 81 % 1011,4 hPa 0,0 l/m 4,1 km/h (1 Bft) O 84 0 min 0,000 mm 0,0 UV-I 0 W/m 12,3 C 15,6 C 4,8 km/h (1 Bft) 100,00 %
22.05.2018 21:59 15,4 C 19,4 C 81 % 1011,5 hPa 0,0 l/m 3,8 km/h (1 Bft) W-SW 244 0 min 0,000 mm 0,0 UV-I 0 W/m 12,2 C 15,4 C 4,8 km/h (1 Bft) 100,00 %
22.05.2018 22:00 15,4 C 19,4 C 82 % 1011,5 hPa 0,0 l/m 4,5 km/h (1 Bft) W-SW 244 0 min 0,000 mm 0,0 UV-I 0 W/m 12,3 C 15,4 C 6,4 km/h (2 Bft) 95,83 %
22.05.2018 22:02 15,2 C 19,4 C 82 % 1011,5 hPa 0,0 l/m 5,1 km/h (1 Bft) W-SW 244 0 min 0,026 mm 0,0 UV-I 0 W/m 12,1 C 15,2 C 6,4 km/h (2 Bft) 98,11 %
22.05.2018 22:03 15,2 C 19,4 C 82 % 1011,5 hPa 0,0 l/m 4,6 km/h (1 Bft) W-SW 244 0 min 0,000 mm 0,0 UV-I 0 W/m 12,1 C 15,2 C 4,8 km/h (1 Bft) 92,86 %
22.05.2018 22:04 15,1 C 19,4 C 82 % 1011,5 hPa 0,0 l/m 4,9 km/h (1 Bft) W-SW 244 0 min 0,000 mm 0,0 UV-I 0 W/m 12,0 C 15,1 C 6,4 km/h (2 Bft) 95,83 %
22.05.2018 22:05 15,1 C 19,4 C 83 % 1011,5 hPa 0,0 l/m 3,7 km/h (1 Bft) W-SW 244 0 min 0,000 mm 0,0 UV-I 0 W/m 12,2 C 15,1 C 4,8 km/h (1 Bft) 96,15 %
22.05.2018 22:06 15,1 C 19,4 C 83 % 1011,5 hPa 0,0 l/m 4,0 km/h (1 Bft) W-SW 244 0 min 0,000 mm 0,0 UV-I 0 W/m 12,2 C 15,1 C 4,8 km/h (1 Bft) 95,83 %
22.05.2018 22:08 15,1 C 19,4 C 83 % 1011,4 hPa 0,0 l/m 4,0 km/h (1 Bft) W-SW 244 0 min 0,000 mm 0,0 UV-I 0 W/m 12,2 C 15,1 C 4,8 km/h (1 Bft) 91,49 %
22.05.2018 22:09 15,0 C 19,4 C 83 % 1011,4 hPa 0,0 l/m 3,0 km/h (1 Bft) W-SW 244 0 min 0,000 mm 0,0 UV-I 0 W/m 12,1 C 15,0 C 3,2 km/h (1 Bft) 96,15 %
22.05.2018 22:10 15,0 C 19,4 C 83 % 1011,5 hPa 0,0 l/m 2,6 km/h (1 Bft) W-SW 244 0 min 0,000 mm 0,0 UV-I 0 W/m 12,1 C 15,0 C 3,2 km/h (1 Bft) 91,67 %
22.05.2018 22:11 15,0 C 19,4 C 83 % 1011,5 hPa 0,0 l/m 1,1 km/h (1 Bft) W-SW 244 0 min 0,000 mm 0,0 UV-I 0 W/m 12,1 C 15,0 C 3,2 km/h (1 Bft) 95,65 %
22.05.2018 22:13 14,7 C 19,4 C 83 % 1011,5 hPa 0,0 l/m 0,0 km/h (0 Bft) W-SW 244 0 min 0,000 mm 0,0 UV-I 0 W/m 11,8 C 14,7 C 0,0 km/h (0 Bft) 94,00 %
22.05.2018 22:14 14,6 C 19,4 C 83 % 1011,5 hPa 0,0 l/m 0,0 km/h (0 Bft) W-SW 244 0 min 0,000 mm 0,0 UV-I 0 W/m 11,7 C 14,6 C 0,0 km/h (0 Bft) 93,33 %
22.05.2018 22:15 14,4 C 19,4 C 84 % 1011,5 hPa 0,0 l/m 0,0 km/h (0 Bft) W-SW 244 0 min 0,000 mm 0,0 UV-I 0 W/m 11,7 C 14,4 C 0,0 km/h (0 Bft) 95,83 %
22.05.2018 22:16 14,4 C 19,4 C 84 % 1011,5 hPa 0,0 l/m 0,0 km/h (0 Bft) W-SW 244 0 min 0,000 mm 0,0 UV-I 0 W/m 11,7 C 14,4 C 0,0 km/h (0 Bft) 95,65 %
22.05.2018 22:17 14,3 C 19,4 C 84 % 1011,5 hPa 0,0 l/m 0,0 km/h (0 Bft) W-SW 244 0 min 0,000 mm 0,0 UV-I 0 W/m 11,6 C 14,3 C 0,0 km/h (0 Bft) 95,83 %
22.05.2018 22:18 14,3 C 19,4 C 85 % 1011,5 hPa 0,0 l/m 0,0 km/h (0 Bft) W-SW 244 0 min 0,000 mm 0,0 UV-I 0 W/m 11,8 C 14,3 C 0,0 km/h (0 Bft) 100,00 %
22.05.2018 22:19 14,3 C 19,4 C 85 % 1011,5 hPa 0,0 l/m 0,0 km/h (0 Bft) W-SW 244 0 min 0,000 mm 0,0 UV-I 0 W/m 11,8 C 14,3 C 0,0 km/h (0 Bft) 95,83 %
22.05.2018 22:20 14,4 C 19,4 C 85 % 1011,5 hPa 0,0 l/m 0,0 km/h (0 Bft) W-SW 244 0 min 0,000 mm 0,0 UV-I 0 W/m 11,9 C 14,4 C 0,0 km/h (0 Bft) 92,31 %
22.05.2018 22:21 14,6 C 19,4 C 84 % 1011,5 hPa 0,0 l/m 0,0 km/h (0 Bft) W-SW 244 0 min 0,000 mm 0,0 UV-I 0 W/m 11,9 C 14,6 C 0,0 km/h (0 Bft) 100,00 %
22.05.2018 22:22 14,7 C 19,4 C 84 % 1011,4 hPa 0,0 l/m 0,0 km/h (0 Bft) W-SW 244 0 min 0,000 mm 0,0 UV-I 0 W/m 12,0 C 14,7 C 0,0 km/h (0 Bft) 91,30 %
22.05.2018 22:23 14,7 C 19,4 C 84 % 1011,4 hPa 0,0 l/m 0,0 km/h (0 Bft) W-SW 244 0 min 0,000 mm 0,0 UV-I 0 W/m 12,0 C 14,7 C 0,0 km/h (0 Bft) 100,00 %
22.05.2018 22:24 14,8 C 19,4 C 84 % 1011,4 hPa 0,0 l/m 0,1 km/h (0 Bft) W-SW 244 0 min 0,000 mm 0,0 UV-I 0 W/m 12,1 C 14,8 C 1,6 km/h (1 Bft) 95,65 %
22.05.2018 22:25 14,8 C 19,4 C 83 % 1011,4 hPa 0,0 l/m 2,0 km/h (1 Bft) W-SW 244 0 min 0,000 mm 0,0 UV-I 0 W/m 11,9 C 14,8 C 3,2 km/h (1 Bft) 100,00 %
22.05.2018 22:26 14,9 C 19,4 C 83 % 1011,4 hPa 0,0 l/m 1,8 km/h (1 Bft) W-SW 244 0 min 0,000 mm 0,0 UV-I 0 W/m 12,0 C 14,9 C 3,2 km/h (1 Bft) 94,12 %
22.05.2018 22:27 14,9 C 19,4 C 83 % 1011,4 hPa 0,0 l/m 2,1 km/h (1 Bft) W-SW 244 0 min 0,000 mm 0,0 UV-I 0 W/m 12,0 C 14,9 C 3,2 km/h (1 Bft) 96,30 %
22.05.2018 22:28 14,8 C 19,4 C 83 % 1011,3 hPa 0,0 l/m 3,4 km/h (1 Bft) W-SW 244 0 min 0,000 mm 0,0 UV-I 0 W/m 11,9 C 14,8 C 4,8 km/h (1 Bft) 100,00 %
22.05.2018 22:29 14,7 C 19,4 C 83 % 1011,4 hPa 0,0 l/m 3,6 km/h (1 Bft) W-SW 244 0 min 0,000 mm 0,0 UV-I 0 W/m 11,8 C 14,7 C 4,8 km/h (1 Bft) 100,00 %
22.05.2018 22:30 14,7 C 19,4 C 83 % 1011,3 hPa 0,0 l/m 3,4 km/h (1 Bft) W-SW 244 0 min 0,000 mm 0,0 UV-I 0 W/m 11,8 C 14,7 C 4,8 km/h (1 Bft) 96,67 %
22.05.2018 22:31 14,7 C 19,4 C 83 % 1011,3 hPa 0,0 l/m 3,1 km/h (1 Bft) W-SW 244 0 min 0,000 mm 0,0 UV-I 0 W/m 11,8 C 14,7 C 3,2 km/h (1 Bft) 96,55 %
22.05.2018 22:33 14,2 C 19,4 C 83 % 1011,3 hPa 0,0 l/m 3,1 km/h (1 Bft) W-SW 244 0 min 0,000 mm 0,0 UV-I 0 W/m 11,4 C 14,2 C 3,2 km/h (1 Bft) 98,00 %
22.05.2018 22:34 14,0 C 19,4 C 84 % 1011,3 hPa 0,0 l/m 2,0 km/h (1 Bft) W-SW 244 0 min 0,000 mm 0,0 UV-I 0 W/m 11,3 C 14,0 C 3,2 km/h (1 Bft) 100,00 %
22.05.2018 22:35 13,9 C 19,4 C 85 % 1011,3 hPa 0,0 l/m 1,7 km/h (1 Bft) W-SW 244 0 min 0,000 mm 0,0 UV-I 0 W/m 11,4 C 13,9 C 3,2 km/h (1 Bft) 95,83 %
22.05.2018 22:36 13,9 C 19,4 C 85 % 1011,3 hPa 0,0 l/m 0,1 km/h (0 Bft) W-SW 244 0 min 0,000 mm 0,0 UV-I 0 W/m 11,4 C 13,9 C 1,6 km/h (1 Bft) 100,00 %
22.05.2018 22:38 14,1 C 19,4 C 86 % 1011,3 hPa 0,0 l/m 0,0 km/h (0 Bft) W-SW 244 0 min 0,000 mm 0,0 UV-I 0 W/m 11,8 C 14,1 C 0,0 km/h (0 Bft) 98,31 %
22.05.2018 22:39 14,2 C 19,4 C 85 % 1011,3 hPa 0,0 l/m 0,0 km/h (0 Bft) W-SW 244 0 min 0,000 mm 0,0 UV-I 0 W/m 11,7 C 14,2 C 0,0 km/h (0 Bft) 100,00 %
22.05.2018 22:40 14,3 C 19,4 C 85 % 1011,3 hPa 0,0 l/m 0,0 km/h (0 Bft) W-SW 244 0 min 0,000 mm 0,0 UV-I 0 W/m 11,8 C 14,3 C 0,0 km/h (0 Bft) 100,00 %
22.05.2018 22:41 14,4 C 19,4 C 85 % 1011,3 hPa 0,0 l/m 0,0 km/h (0 Bft) W-SW 244 0 min 0,000 mm 0,0 UV-I 0 W/m 11,9 C 14,4 C 0,0 km/h (0 Bft) 95,65 %
22.05.2018 22:42 14,5 C 19,4 C 84 % 1011,3 hPa 0,0 l/m 0,0 km/h (0 Bft) W-SW 244 0 min 0,000 mm 0,0 UV-I 0 W/m 11,8 C 14,5 C 0,0 km/h (0 Bft) 95,83 %
22.05.2018 22:43 14,4 C 19,4 C 84 % 1011,3 hPa 0,0 l/m 0,0 km/h (0 Bft) W-SW 244 0 min 0,000 mm 0,0 UV-I 0 W/m 11,7 C 14,4 C 0,0 km/h (0 Bft) 100,00 %
22.05.2018 22:44 14,4 C 19,4 C 84 % 1011,2 hPa 0,0 l/m 0,0 km/h (0 Bft) W-SW 244 0 min 0,000 mm 0,0 UV-I 0 W/m 11,7 C 14,4 C 0,0 km/h (0 Bft) 100,00 %
22.05.2018 22:45 14,4 C 19,4 C 84 % 1011,2 hPa 0,0 l/m 0,0 km/h (0 Bft) W-SW 244 0 min 0,000 mm 0,0 UV-I 0 W/m 11,7 C 14,4 C 0,0 km/h (0 Bft) 100,00 %
22.05.2018 22:46 14,4 C 19,4 C 84 % 1011,3 hPa 0,0 l/m 0,0 km/h (0 Bft) W-SW 244 0 min 0,000 mm 0,0 UV-I 0 W/m 11,7 C 14,4 C 0,0 km/h (0 Bft) 100,00 %
22.05.2018 22:47 14,3 C 19,4 C 84 % 1011,2 hPa 0,0 l/m 0,0 km/h (0 Bft) W-SW 244 0 min 0,000 mm 0,0 UV-I 0 W/m 11,6 C 14,3 C 0,0 km/h (0 Bft) 95,65 %
22.05.2018 22:48 14,3 C 19,4 C 84 % 1011,3 hPa 0,0 l/m 0,0 km/h (0 Bft) W-SW 244 0 min 0,000 mm 0,0 UV-I 0 W/m 11,6 C 14,3 C 0,0 km/h (0 Bft) 100,00 %
22.05.2018 22:49 14,2 C 19,4 C 84 % 1011,3 hPa 0,0 l/m 0,0 km/h (0 Bft) W-SW 244 0 min 0,000 mm 0,0 UV-I 0 W/m 11,5 C 14,2 C 0,0 km/h (0 Bft) 100,00 %
22.05.2018 22:50 14,2 C 19,4 C 85 % 1011,3 hPa 0,0 l/m 0,0 km/h (0 Bft) W-SW 244 0 min 0,000 mm 0,0 UV-I 0 W/m 11,7 C 14,2 C 0,0 km/h (0 Bft) 96,55 %
22.05.2018 22:51 14,1 C 19,4 C 84 % 1011,3 hPa 0,0 l/m 0,0 km/h (0 Bft) W-SW 244 0 min 0,000 mm 0,0 UV-I 0 W/m 11,4 C 14,1 C 0,0 km/h (0 Bft) 95,65 %
22.05.2018 22:53 14,0 C 19,4 C 85 % 1011,4 hPa 0,0 l/m 2,8 km/h (1 Bft) W-SW 244 0 min 0,000 mm 0,0 UV-I 0 W/m 11,5 C 14,0 C 4,8 km/h (1 Bft) 98,11 %
22.05.2018 22:54 13,9 C 19,4 C 85 % 1011,4 hPa 0,0 l/m 3,4 km/h (1 Bft) W-SW 244 0 min 0,000 mm 0,0 UV-I 0 W/m 11,4 C 13,9 C 4,8 km/h (1 Bft) 91,67 %
22.05.2018 22:55 13,8 C 19,4 C 85 % 1011,4 hPa 0,0 l/m 3,6 km/h (1 Bft) W-SW 243 0 min 0,000 mm 0,0 UV-I 0 W/m 11,3 C 13,8 C 4,8 km/h (1 Bft) 100,00 %
22.05.2018 22:56 13,8 C 19,4 C 85 % 1011,4 hPa 0,0 l/m 4,2 km/h (1 Bft) W-SW 243 0 min 0,000 mm 0,0 UV-I 0 W/m 11,3 C 13,8 C 4,8 km/h (1 Bft) 100,00 %
22.05.2018 22:58 13,8 C 19,4 C 85 % 1011,4 hPa 0,0 l/m 3,5 km/h (1 Bft) W-SW 243 0 min 0,000 mm 0,0 UV-I 0 W/m 11,3 C 13,8 C 4,8 km/h (1 Bft) 95,74 %
22.05.2018 22:59 13,8 C 19,4 C 85 % 1011,4 hPa 0,0 l/m 2,8 km/h (1 Bft) W-SW 243 0 min 0,000 mm 0,0 UV-I 0 W/m 11,3 C 13,8 C 3,2 km/h (1 Bft) 100,00 %
22.05.2018 23:00 13,7 C 19,4 C 86 % 1011,4 hPa 0,0 l/m 3,5 km/h (1 Bft) W-SW 243 0 min 0,000 mm 0,0 UV-I 0 W/m 11,4 C 13,7 C 4,8 km/h (1 Bft) 100,00 %
22.05.2018 23:02 13,8 C 19,4 C 86 % 1011,4 hPa 0,0 l/m 3,4 km/h (1 Bft) W-SW 243 0 min 0,000 mm 0,0 UV-I 0 W/m 11,5 C 13,8 C 4,8 km/h (1 Bft) 100,00 %
22.05.2018 23:03 13,8 C 19,4 C 86 % 1011,5 hPa 0,0 l/m 3,2 km/h (1 Bft) W-SW 243 0 min 0,000 mm 0,0 UV-I 0 W/m 11,5 C 13,8 C 4,8 km/h (1 Bft) 100,00 %
22.05.2018 23:04 13,8 C 19,4 C 86 % 1011,4 hPa 0,0 l/m 3,2 km/h (1 Bft) W-SW 238 0 min 0,000 mm 0,0 UV-I 0 W/m 11,5 C 13,8 C 3,2 km/h (1 Bft) 96,15 %
22.05.2018 23:05 13,7 C 19,4 C 85 % 1011,5 hPa 0,0 l/m 4,3 km/h (1 Bft) W-SW 238 0 min 0,000 mm 0,0 UV-I 0 W/m 11,2 C 13,7 C 4,8 km/h (1 Bft) 100,00 %
22.05.2018 23:06 13,7 C 19,4 C 85 % 1011,5 hPa 0,0 l/m 2,8 km/h (1 Bft) W-SW 238 0 min 0,000 mm 0,0 UV-I 0 W/m 11,2 C 13,7 C 4,8 km/h (1 Bft) 100,00 %
22.05.2018 23:08 13,6 C 19,4 C 86 % 1011,5 hPa 0,0 l/m 2,9 km/h (1 Bft) W-SW 238 0 min 0,000 mm 0,0 UV-I 0 W/m 11,3 C 13,6 C 4,8 km/h (1 Bft) 100,00 %
22.05.2018 23:09 13,6 C 19,4 C 86 % 1011,5 hPa 0,0 l/m 3,4 km/h (1 Bft) SO 127 0 min 0,000 mm 0,0 UV-I 0 W/m 11,3 C 13,6 C 4,8 km/h (1 Bft) 100,00 %
22.05.2018 23:10 13,7 C 19,4 C 86 % 1011,5 hPa 0,0 l/m 3,0 km/h (1 Bft) SO 127 0 min 0,000 mm 0,0 UV-I 0 W/m 11,4 C 13,7 C 3,2 km/h (1 Bft) 100,00 %
22.05.2018 23:11 13,7 C 19,4 C 86 % 1011,5 hPa 0,0 l/m 2,8 km/h (1 Bft) SO 127 0 min 0,000 mm 0,0 UV-I 0 W/m 11,4 C 13,7 C 3,2 km/h (1 Bft) 95,65 %
22.05.2018 23:13 13,9 C 19,4 C 86 % 1011,5 hPa 0,0 l/m 3,3 km/h (1 Bft) SO 133 0 min 0,000 mm 0,0 UV-I 0 W/m 11,6 C 13,9 C 4,8 km/h (1 Bft) 100,00 %
22.05.2018 23:14 13,9 C 19,4 C 85 % 1011,5 hPa 0,0 l/m 5,9 km/h (2 Bft) S-SO 167 0 min 0,000 mm 0,0 UV-I 0 W/m 11,4 C 13,9 C 8,0 km/h (2 Bft) 96,30 %
22.05.2018 23:15 13,8 C 19,4 C 85 % 1011,5 hPa 0,0 l/m 6,5 km/h (2 Bft) S-SO 167 0 min 0,000 mm 0,0 UV-I 0 W/m 11,3 C 13,8 C 8,0 km/h (2 Bft) 100,00 %
22.05.2018 23:16 13,8 C 19,4 C 85 % 1011,5 hPa 0,0 l/m 5,3 km/h (1 Bft) S-SO 167 0 min 0,000 mm 0,0 UV-I 0 W/m 11,3 C 13,8 C 6,4 km/h (2 Bft) 100,00 %
22.05.2018 23:18 13,8 C 19,4 C 86 % 1011,5 hPa 0,0 l/m 5,4 km/h (1 Bft) S-SO 167 0 min 0,000 mm 0,0 UV-I 0 W/m 11,5 C 13,8 C 6,4 km/h (2 Bft) 100,00 %
22.05.2018 23:19 13,8 C 19,4 C 86 % 1011,5 hPa 0,0 l/m 4,7 km/h (1 Bft) S-SO 167 0 min 0,000 mm 0,0 UV-I 0 W/m 11,5 C 13,8 C 4,8 km/h (1 Bft) 100,00 %
22.05.2018 23:20 13,8 C 19,4 C 85 % 1011,5 hPa 0,0 l/m 5,0 km/h (1 Bft) S-SO 167 0 min 0,000 mm 0,0 UV-I 0 W/m 11,3 C 13,8 C 6,4 km/h (2 Bft) 94,44 %
22.05.2018 23:21 13,7 C 19,4 C 84 % 1011,5 hPa 0,0 l/m 4,4 km/h (1 Bft) S-SO 167 0 min 0,000 mm 0,0 UV-I 0 W/m 11,0 C 13,7 C 4,8 km/h (1 Bft) 93,10 %
22.05.2018 23:23 13,7 C 19,4 C 85 % 1011,5 hPa 0,0 l/m 4,0 km/h (1 Bft) S-SO 167 0 min 0,000 mm 0,0 UV-I 0 W/m 11,2 C 13,7 C 6,4 km/h (2 Bft) 100,00 %
22.05.2018 23:24 13,7 C 19,4 C 85 % 1011,5 hPa 0,0 l/m 4,8 km/h (1 Bft) S-SO 167 0 min 0,000 mm 0,0 UV-I 0 W/m 11,2 C 13,7 C 6,4 km/h (2 Bft) 100,00 %
22.05.2018 23:25 13,7 C 19,4 C 86 % 1011,5 hPa 0,0 l/m 3,0 km/h (1 Bft) S-SO 167 0 min 0,000 mm 0,0 UV-I 0 W/m 11,4 C 13,7 C 4,8 km/h (1 Bft) 100,00 %
22.05.2018 23:26 13,7 C 19,4 C 86 % 1011,5 hPa 0,0 l/m 4,0 km/h (1 Bft) S-SO 167 0 min 0,000 mm 0,0 UV-I 0 W/m 11,4 C 13,7 C 6,4 km/h (2 Bft) 100,00 %
22.05.2018 23:28 13,8 C 19,4 C 86 % 1011,6 hPa 0,0 l/m 4,5 km/h (1 Bft) S-SO 167 0 min 0,000 mm 0,0 UV-I 0 W/m 11,5 C 13,8 C 6,4 km/h (2 Bft) 100,00 %
22.05.2018 23:29 13,8 C 19,4 C 86 % 1011,6 hPa 0,0 l/m 1,6 km/h (1 Bft) S-SO 167 0 min 0,000 mm 0,0 UV-I 0 W/m 11,5 C 13,8 C 1,6 km/h (1 Bft) 100,00 %
22.05.2018 23:30 13,8 C 19,4 C 86 % 1011,6 hPa 0,0 l/m 1,5 km/h (1 Bft) S-SO 167 0 min 0,000 mm 0,0 UV-I 0 W/m 11,5 C 13,8 C 4,8 km/h (1 Bft) 100,00 %
22.05.2018 23:31 13,8 C 19,4 C 86 % 1011,6 hPa 0,0 l/m 0,0 km/h (0 Bft) S-SO 167 0 min 0,000 mm 0,0 UV-I 0 W/m 11,5 C 13,8 C 0,0 km/h (0 Bft) 95,65 %
22.05.2018 23:32 13,8 C 19,4 C 86 % 1011,5 hPa 0,0 l/m 0,0 km/h (0 Bft) S-SO 167 0 min 0,000 mm 0,0 UV-I 0 W/m 11,5 C 13,8 C 0,0 km/h (0 Bft) 100,00 %
22.05.2018 23:33 13,8 C 19,4 C 86 % 1011,6 hPa 0,0 l/m 0,5 km/h (0 Bft) S-SO 167 0 min 0,000 mm 0,0 UV-I 0 W/m 11,5 C 13,8 C 4,8 km/h (1 Bft) 100,00 %
22.05.2018 23:34 13,8 C 19,4 C 86 % 1011,5 hPa 0,0 l/m 3,7 km/h (1 Bft) S-SO 167 0 min 0,000 mm 0,0 UV-I 0 W/m 11,5 C 13,8 C 4,8 km/h (1 Bft) 93,33 %
22.05.2018 23:35 13,8 C 19,4 C 86 % 1011,6 hPa 0,0 l/m 2,1 km/h (1 Bft) S-SO 167 0 min 0,000 mm 0,0 UV-I 0 W/m 11,5 C 13,8 C 4,8 km/h (1 Bft) 100,00 %
22.05.2018 23:36 13,8 C 19,4 C 86 % 1011,5 hPa 0,0 l/m 0,1 km/h (0 Bft) S-SO 167 0 min 0,000 mm 0,0 UV-I 0 W/m 11,5 C 13,8 C 1,6 km/h (1 Bft) 95,65 %
22.05.2018 23:37 13,7 C 19,4 C 86 % 1011,6 hPa 0,0 l/m 0,0 km/h (0 Bft) S-SO 167 0 min 0,000 mm 0,0 UV-I 0 W/m 11,4 C 13,7 C 0,0 km/h (0 Bft) 100,00 %
22.05.2018 23:38 13,6 C 19,4 C 86 % 1011,5 hPa 0,0 l/m 0,0 km/h (0 Bft) S-SO 167 0 min 0,000 mm 0,0 UV-I 0 W/m 11,3 C 13,6 C 0,0 km/h (0 Bft) 100,00 %
22.05.2018 23:39 13,6 C 19,4 C 86 % 1011,5 hPa 0,0 l/m 0,0 km/h (0 Bft) S-SO 167 0 min 0,000 mm 0,0 UV-I 0 W/m 11,3 C 13,6 C 0,0 km/h (0 Bft) 100,00 %
22.05.2018 23:40 13,5 C 19,4 C 87 % 1011,6 hPa 0,0 l/m 0,0 km/h (0 Bft) S-SO 167 0 min 0,000 mm 0,0 UV-I 0 W/m 11,4 C 13,5 C 0,0 km/h (0 Bft) 100,00 %
22.05.2018 23:41 13,5 C 19,4 C 87 % 1011,5 hPa 0,0 l/m 0,0 km/h (0 Bft) S-SO 167 0 min 0,000 mm 0,0 UV-I 0 W/m 11,4 C 13,5 C 0,0 km/h (0 Bft) 100,00 %
22.05.2018 23:42 13,5 C 19,4 C 87 % 1011,6 hPa 0,0 l/m 0,0 km/h (0 Bft) S-SO 167 0 min 0,000 mm 0,0 UV-I 0 W/m 11,4 C 13,5 C 0,0 km/h (0 Bft) 100,00 %
22.05.2018 23:43 13,5 C 19,4 C 87 % 1011,5 hPa 0,0 l/m 0,0 km/h (0 Bft) S-SO 167 0 min 0,000 mm 0,0 UV-I 0 W/m 11,4 C 13,5 C 0,0 km/h (0 Bft) 95,83 %
22.05.2018 23:44 13,5 C 19,4 C 87 % 1011,6 hPa 0,0 l/m 0,0 km/h (0 Bft) S-SO 167 0 min 0,000 mm 0,0 UV-I 0 W/m 11,4 C 13,5 C 0,0 km/h (0 Bft) 100,00 %
22.05.2018 23:45 13,4 C 19,4 C 87 % 1011,6 hPa 0,0 l/m 0,1 km/h (0 Bft) S-SO 167 0 min 0,000 mm 0,0 UV-I 0 W/m 11,3 C 13,4 C 1,6 km/h (1 Bft) 100,00 %
22.05.2018 23:46 13,4 C 19,4 C 87 % 1011,6 hPa 0,0 l/m 3,1 km/h (1 Bft) S-SO 167 0 min 0,000 mm 0,0 UV-I 0 W/m 11,3 C 13,4 C 4,8 km/h (1 Bft) 100,00 %
22.05.2018 23:48 13,4 C 19,4 C 87 % 1011,6 hPa 0,0 l/m 2,4 km/h (1 Bft) S-SO 167 0 min 0,000 mm 0,0 UV-I 0 W/m 11,3 C 13,4 C 4,8 km/h (1 Bft) 100,00 %
22.05.2018 23:49 13,4 C 19,4 C 87 % 1011,6 hPa 0,0 l/m 1,1 km/h (1 Bft) S-SO 167 0 min 0,000 mm 0,0 UV-I 0 W/m 11,3 C 13,4 C 1,6 km/h (1 Bft) 100,00 %
22.05.2018 23:50 13,4 C 19,4 C 87 % 1011,6 hPa 0,0 l/m 4,4 km/h (1 Bft) S-SO 168 0 min 0,000 mm 0,0 UV-I 0 W/m 11,3 C 13,4 C 6,4 km/h (2 Bft) 100,00 %
22.05.2018 23:51 13,4 C 19,4 C 87 % 1011,6 hPa 0,0 l/m 4,6 km/h (1 Bft) S 184 0 min 0,000 mm 0,0 UV-I 0 W/m 11,3 C 13,4 C 6,4 km/h (2 Bft) 100,00 %
22.05.2018 23:52 13,3 C 19,4 C 87 % 1011,6 hPa 0,0 l/m 4,4 km/h (1 Bft) S 184 0 min 0,000 mm 0,0 UV-I 0 W/m 11,2 C 13,3 C 4,8 km/h (1 Bft) 100,00 %
22.05.2018 23:53 13,3 C 19,4 C 87 % 1011,6 hPa 0,0 l/m 4,1 km/h (1 Bft) S 184 0 min 0,000 mm 0,0 UV-I 0 W/m 11,2 C 13,3 C 4,8 km/h (1 Bft) 95,65 %
22.05.2018 23:54 13,2 C 19,4 C 87 % 1011,7 hPa 0,0 l/m 3,6 km/h (1 Bft) S 184 0 min 0,000 mm 0,0 UV-I 0 W/m 11,1 C 13,2 C 4,8 km/h (1 Bft) 100,00 %
22.05.2018 23:55 13,2 C 19,4 C 88 % 1011,6 hPa 0,0 l/m 3,5 km/h (1 Bft) S 184 0 min 0,000 mm 0,0 UV-I 0 W/m 11,3 C 13,2 C 4,8 km/h (1 Bft) 95,65 %
22.05.2018 23:56 13,2 C 19,4 C 88 % 1011,7 hPa 0,0 l/m 3,1 km/h (1 Bft) S 184 0 min 0,000 mm 0,0 UV-I 0 W/m 11,3 C 13,2 C 4,8 km/h (1 Bft) 100,00 %
22.05.2018 23:58 13,1 C 19,4 C 87 % 1011,7 hPa 0,0 l/m 3,6 km/h (1 Bft) S 184 0 min 0,000 mm 0,0 UV-I 0 W/m 11,0 C 13,1 C 4,8 km/h (1 Bft) 100,00 %
22.05.2018 23:59 13,1 C 19,4 C 87 % 1011,7 hPa 0,0 l/m 2,8 km/h (1 Bft) S 184 0 min 0,000 mm 0,0 UV-I 0 W/m 11,0 C 13,1 C 3,2 km/h (1 Bft) 95,65 %
_ Min-Zeit 05:15 03:50 13:36 15:55 - 02:41 - - - - - - 05:15 05:15 02:41 20:15
Minimum _ 9,4 C 17,8 C 39 % 1009,1 hPa - 0,0 km/h (0 Bft) - - - - - - 8,0 C 9,4 C 0,0 km/h (0 Bft) 81,82 %
_ Max-Zeit 14:36 15:11 05:21 23:54 00:00 16:29 - - 05:53 13:02 12:41 11:43 14:33 13:46 16:29 00:00
Maximum _ 25,6 C 20,0 C 93 % 1011,7 hPa 0,0 l/m 39,6 km/h
O (6 Bft)
- - 2 min 0,610 mm 5,0 UV-I 932 W/m 14,9 C 25,1 C 54,7 km/h
O-SO (7 Bft)
100,00 %
Durchschnitt _ 17,0 C 18,8 C 72 % 1010,6 hPa #0,0 l/m 6,5 km/h (2 Bft) O-NO - #10:08 h #4,420 mm 2,9 UV-I 380 W/m 11,6 C 16,5 C 9,2 km/h (2 Bft) 98,14 %